Date StartTime U_cm/s V_cm/s W_cm/s Ustd_cm/s Vstd_cm/s Wstd_cm/s Uvar_(cm/s)^2 Vvar_(cm/s)^2 Wvar_(cm/s)^2 KE_(m/s)^2 TurbulentKE_(m/s)^2 HorizWindSpeed_cm/s FrictionSpeec_cm/s DragCoef SpeedOfSound_m/s SonicTemperature_C Pressure_mb 
09/23/2014  00:00:00      -12.750       -6.279       13.118       30.789       19.681       13.355      947.942      387.359      178.356        0.094        0.076       14.213       15.729        1.225      343.899       20.336      862.478
09/23/2014  00:01:00      -41.567       12.555        5.991       45.046       23.106       18.476     2029.144      533.893      341.360        0.241        0.145       43.422       21.540        0.246      344.012       20.527      862.462
09/23/2014  00:02:00       -2.308      -23.068        5.469       19.542       27.257       14.037      381.893      742.920      197.030        0.094        0.066       23.183       15.141        0.427      343.905       20.346      862.450
09/23/2014  00:03:00       41.893       14.853       27.389       12.036       16.719        9.725      144.877      279.532       94.578        0.162        0.026       44.448        8.061        0.033      343.663       19.933      862.441
09/23/2014  00:04:00       57.654       26.245       -6.966       19.710       17.509       21.450      388.501      306.573      460.112        0.261        0.058       63.346        6.953        0.012      343.749       20.080      862.431
09/23/2014  00:05:00       90.606       53.513       17.966       25.947       21.670       20.648      673.227      469.585      426.319        0.648        0.078      105.229       10.519        0.010      343.572       19.777      862.415
09/23/2014  00:06:00       68.169       25.082       17.987       31.495       27.021       24.506      991.920      730.146      600.564        0.396        0.116       72.637       15.245        0.044      343.435       19.545      862.423
09/23/2014  00:07:00       46.161       20.317       27.385       42.725       22.155       20.020     1825.410      490.829      400.796        0.300        0.136       50.434       25.029        0.246      343.450       19.569      862.418
09/23/2014  00:08:00        3.820       14.917       31.604       13.349       17.712       16.071      178.199      313.718      258.263        0.099        0.038       15.399       11.051        0.515      343.373       19.441      862.419
09/23/2014  00:09:00       37.504      -40.312        9.331       27.074       33.045       16.010      733.000     1091.952      256.328        0.260        0.104       55.060       17.136        0.097      343.554       19.748      862.424
09/23/2014  00:10:00       31.151       -3.728       18.155       31.029       36.340       21.391      962.819     1320.594      457.575        0.203        0.137       31.374       24.692        0.619      343.480       19.623      862.424
09/23/2014  00:11:00       17.584      -19.245        7.363       24.389       34.340       15.090      594.832     1179.243      227.712        0.137        0.100       26.068       10.652        0.167      343.514       19.681      862.424
09/23/2014  00:12:00       -4.256       -1.528        5.948       19.172       30.709       14.646      367.584      943.056      214.518        0.079        0.076        4.522        8.093        3.204      343.495       19.647      862.412
09/23/2014  00:13:00       -7.588      -38.423        5.144       24.029       42.767       22.643      577.412     1829.035      512.687        0.224        0.146       39.165       10.283        0.069      343.617       19.854      862.412
09/23/2014  00:14:00      -23.128      -20.094        0.696       20.221       27.106       13.686      408.903      734.745      187.308        0.113        0.067       30.638       12.438        0.165      343.567       19.768      862.417
09/23/2014  00:15:00      -10.548       -1.859      -11.578       12.661       16.426        8.285      160.300      269.817       68.642        0.037        0.025       10.711        7.680        0.514      343.554       19.748      862.420
09/23/2014  00:16:00       40.178      -25.677        4.839       25.627       26.312       19.879      656.742      692.322      395.171        0.202        0.087       47.682       16.743        0.123      343.630       19.878      862.419
09/23/2014  00:17:00       -5.438       -8.520       12.009       11.564       29.170       16.929      133.728      850.868      286.593        0.076        0.064       10.108        9.254        0.838      343.531       19.707      862.409
09/23/2014  00:18:00        0.228      -19.257        5.451       12.059       18.263       11.919      145.417      333.554      142.053        0.051        0.031       19.259        8.200        0.181      343.609       19.841      862.404
09/23/2014  00:19:00       -1.988      -36.797       -3.339       21.866       17.306       12.566      478.104      299.488      157.893        0.115        0.047       36.851        6.594        0.032      343.635       19.885      862.392
09/23/2014  00:20:00      -11.517      -22.383       -4.026       14.097       12.840       10.072      198.728      164.861      101.452        0.056        0.023       25.173        6.382        0.064      343.531       19.708      862.383
09/23/2014  00:21:00      -13.919      -37.339      -10.182       19.742       12.238       10.644      389.753      149.780      113.291        0.117        0.033       39.849        9.553        0.057      343.555       19.749      862.377
09/23/2014  00:22:00       -0.116       -7.431        9.474       13.382       14.429       11.630      179.073      208.203      135.248        0.033        0.026        7.431       10.491        1.993      343.396       19.479      862.367
09/23/2014  00:23:00        2.177       27.825       40.664       19.103       23.527       21.351      364.913      553.530      455.884        0.190        0.069       27.910       20.258        0.527      343.268       19.261      862.340
09/23/2014  00:24:00        9.446      -21.733        3.580       15.514       37.084       27.157      240.692     1375.244      737.515        0.146        0.118       23.697       29.408        1.540      343.245       19.220      862.335
09/23/2014  00:25:00        2.147       -7.296       -8.264       13.076       15.589       10.729      170.974      243.028      115.121        0.033        0.026        7.605        9.859        1.680      343.317       19.343      862.334
09/23/2014  00:26:00        8.122       -4.993       -8.354       21.317       12.291        9.139      454.412      151.058       83.515        0.042        0.034        9.534        9.154        0.922      343.363       19.423      862.321
09/23/2014  00:27:00       22.758       11.167        6.624       18.773       15.390       14.293      352.436      236.867      204.297        0.074        0.040       25.350       12.250        0.234      343.339       19.382      862.317
09/23/2014  00:28:00       -3.346        5.588        6.916        5.900        5.508        7.507       34.808       30.343       56.360        0.011        0.006        6.513        4.591        0.497      343.251       19.229      862.317
09/23/2014  00:29:00       -1.024       -5.797        1.473       10.477       19.628       13.453      109.776      385.269      180.988        0.036        0.034        5.887        9.924        2.842      343.374       19.441      862.319
09/23/2014  00:30:00       -5.277      -18.323        8.655       16.742       20.233       18.369      280.279      409.355      337.426        0.073        0.051       19.068       10.726        0.316      343.406       19.497      862.325
09/23/2014  00:31:00        9.393      -12.709        2.647       13.242       27.885       12.846      175.350      777.585      165.009        0.069        0.056       15.803       10.787        0.466      343.443       19.558      862.322
09/23/2014  00:32:00       -7.573       -4.590        9.488       10.021       19.183        9.336      100.412      367.968       87.153        0.036        0.028        8.855        4.423        0.249      343.252       19.234      862.316
09/23/2014  00:33:00       -1.891      -15.249       -0.511        8.233        6.765        7.072       67.782       45.763       50.012        0.020        0.008       15.366        5.836        0.144      343.345       19.392      862.316
09/23/2014  00:34:00      -21.627      -13.746       -3.870        6.445        4.944        4.814       41.538       24.441       23.170        0.038        0.004       25.626        2.083        0.007      343.299       19.312      862.317
09/23/2014  00:35:00      -10.025       -4.022        0.539        7.161        4.519        3.488       51.282       20.422       12.163        0.010        0.004       10.802        2.490        0.053      343.293       19.303      862.314
09/23/2014  00:36:00        6.673      -12.243       -0.620        7.239        4.395        4.640       52.397       19.320       21.531        0.014        0.005       13.944        4.706        0.114      343.348       19.398      862.296
09/23/2014  00:37:00       -5.118      -14.350       -2.699        4.212        5.756        3.492       17.741       33.134       12.196        0.015        0.003       15.235        2.145        0.020      343.366       19.424      862.290
09/23/2014  00:38:00       -5.182      -16.116       -5.902        7.302        7.984        4.804       53.323       63.744       23.079        0.023        0.007       16.928        4.958        0.086      343.285       19.289      862.279
09/23/2014  00:39:00      -23.561      -14.006       -5.541        4.709        5.132        3.949       22.177       26.342       15.592        0.042        0.003       27.410        2.438        0.008      343.388       19.465      862.265
09/23/2014  00:40:00      -34.878      -12.374       -4.284        6.012        6.314        3.670       36.150       39.869       13.471        0.074        0.004       37.008        2.393        0.004      343.272       19.266      862.265
09/23/2014  00:41:00      -31.225      -13.212       -5.140        7.388        6.607        4.212       54.582       43.654       17.737        0.065        0.006       33.905        2.220        0.004      343.168       19.090      862.269
09/23/2014  00:42:00      -28.643       -5.896       -2.537        7.234        6.842        3.891       52.330       46.809       15.142        0.049        0.006       29.244        2.361        0.007      343.113       18.996      862.270
09/23/2014  00:43:00      -18.498       -9.092       -2.753        7.957        6.408        4.961       63.320       41.063       24.609        0.028        0.006       20.611        3.383        0.027      343.171       19.094      862.278
09/23/2014  00:44:00      -31.108       10.667       -4.161        9.821        9.796        5.343       96.455       95.960       28.545        0.066        0.011       32.886        5.300        0.026      343.094       18.964      862.291
09/23/2014  00:45:00      -30.341       10.462       -4.655       12.924        8.042        7.068      167.031       64.675       49.957        0.067        0.014       32.094        5.259        0.027      342.999       18.800      862.299
09/23/2014  00:46:00      -31.225       14.045       -9.061        6.445        5.930        4.881       41.544       35.166       23.828        0.068        0.005       34.239        3.546        0.011      343.080       18.941      862.304
09/23/2014  00:47:00      -12.164       -1.985       -0.530        8.608       15.370        7.587       74.105      236.249       57.568        0.026        0.018       12.325        3.415        0.077      343.312       19.335      862.313
09/23/2014  00:48:00      -20.572      -10.269       -9.929       14.094       11.248        4.747      198.639      126.510       22.529        0.049        0.017       22.993        4.919        0.046      343.220       19.178      862.323
09/23/2014  00:49:00      -14.219        7.538        2.277        4.556        5.306        5.173       20.760       28.151       26.760        0.017        0.004       16.093        2.993        0.035      343.190       19.128      862.323
09/23/2014  00:50:00       -7.350        0.360        5.078        6.380        4.759        3.945       40.707       22.644       15.559        0.008        0.004        7.359        2.273        0.095      343.070       18.922      862.337
09/23/2014  00:51:00      -33.357      -14.842       -2.836        7.380        8.084        4.547       54.464       65.352       20.677        0.074        0.007       36.510        3.488        0.009      343.091       18.959      862.360
09/23/2014  00:52:00      -59.153       -7.208       -7.459        6.720       11.477        5.098       45.161      131.722       25.992        0.190        0.010       59.591        1.128        0.000      342.969       18.752      862.373
09/23/2014  00:53:00      -53.760       18.651       -6.752       11.640       12.108        7.679      135.483      146.602       58.966        0.181        0.017       56.903        4.911        0.007      342.961       18.736      862.377
09/23/2014  00:54:00      -59.505       21.298       -7.490       14.909       11.842        9.577      222.267      140.229       91.727        0.225        0.023       63.202        6.914        0.012      342.854       18.555      862.374
09/23/2014  00:55:00      -42.167       37.211       -9.559        9.144        7.523        4.275       83.622       56.599       18.277        0.171        0.008       56.238        2.716        0.002      343.130       19.026      862.365
09/23/2014  00:56:00      -35.919       12.747       -4.597       10.144       23.554        7.645      102.891      554.805       58.450        0.109        0.036       38.114        5.503        0.021      343.095       18.967      862.367
09/23/2014  00:57:00      -39.038      -26.048       -9.469       12.610       17.116        8.059      159.008      292.970       64.945        0.140        0.026       46.930        7.265        0.024      342.946       18.713      862.381
09/23/2014  00:58:00      -30.772      -27.876        9.470       26.915       17.635       18.698      724.396      310.997      349.619        0.160        0.069       41.521       13.752        0.110      342.853       18.554      862.386
09/23/2014  00:59:00      -24.699      -16.689        5.802       30.163       21.610       12.137      909.824      466.989      147.306        0.122        0.076       29.808       14.322        0.231      342.898       18.631      862.384
09/23/2014  01:00:00      -85.086      -31.121       -7.744       15.053       18.107        9.303      226.592      327.865       86.552        0.445        0.032       90.599        4.604        0.003      342.897       18.629      862.387
09/23/2014  01:01:00      -70.888      -50.105        0.084       28.045       18.112       13.918      786.505      328.040      193.716        0.442        0.065       86.808        7.586        0.008      342.784       18.436      862.401
09/23/2014  01:02:00      -63.404      -39.321        7.342       39.785       23.757       17.893     1582.827      564.396      320.170        0.404        0.123       74.607       14.668        0.039      342.799       18.462      862.424
09/23/2014  01:03:00      -24.333      -60.187        0.415       31.561       40.351       20.363      996.106     1628.208      414.670        0.363        0.152       64.919       19.688        0.092      342.872       18.584      862.439
09/23/2014  01:04:00      -63.232      -80.574       -2.309       28.152       32.876       16.814      792.548     1080.816      282.700        0.633        0.108      102.423       14.093        0.019      342.861       18.566      862.451
09/23/2014  01:05:00      -76.741      -38.642        4.076       32.486       20.961       22.511     1055.339      439.374      506.754        0.470        0.100       85.921       20.744        0.058      342.752       18.382      862.470
09/23/2014  01:06:00      -77.770      -40.646       -3.441       33.096       19.458       17.558     1095.326      378.608      308.279        0.475        0.089       87.751       12.041        0.019      342.792       18.449      862.488
09/23/2014  01:07:00      -36.644      -41.421        2.196       22.825       21.298       12.964      520.960      453.601      168.055        0.210        0.057       55.303       11.463        0.043      342.773       18.418      862.493
09/23/2014  01:08:00      -63.890      -53.577      -10.019       20.859       17.366       12.620      435.081      301.593      159.262        0.397        0.045       83.381        7.280        0.008      342.777       18.424      862.493
09/23/2014  01:09:00      -60.173      -62.863        8.808       49.170       28.461       24.490     2417.649      810.020      599.746        0.574        0.191       87.021       27.317        0.099      342.647       18.206      862.509
09/23/2014  01:10:00      -94.722      -67.203        5.374       40.314       31.274       26.094     1625.250      978.042      680.878        0.840        0.164      116.140       24.370        0.044      342.578       18.085      862.510
09/23/2014  01:11:00      -59.304      -58.254        1.744       39.314       32.485       24.597     1545.607     1055.283      604.988        0.506        0.160       83.129       18.842        0.051      342.578       18.085      862.509
09/23/2014  01:12:00      -94.319      -63.245      -10.560       18.442       26.837       11.668      340.123      720.216      136.138        0.710        0.060      113.560       10.204        0.008      342.580       18.089      862.497
09/23/2014  01:13:00     -104.732      -40.497      -10.547       24.569       30.804       21.686      603.630      948.861      470.284        0.737        0.101      112.289       15.901        0.020      342.530       18.005      862.492
09/23/2014  01:14:00     -109.979      -51.519       -6.782       28.462       23.043       19.319      810.099      530.980      373.208        0.825        0.086      121.448        9.993        0.007      342.524       17.994      862.487
09/23/2014  01:15:00      -68.147      -61.165       -0.335       46.757       33.994       22.927     2186.218     1155.612      525.646        0.613        0.193       91.571       19.408        0.045      342.415       17.808      862.485
09/23/2014  01:16:00     -120.680      -84.119        0.880       36.149       27.108       18.889     1306.754      734.824      356.780        1.202        0.120      147.104       15.873        0.012      342.438       17.846      862.478
09/23/2014  01:17:00      -67.089      -50.322        3.274       33.915       28.330       20.065     1150.250      802.570      402.597        0.470        0.118       83.864       14.669        0.031      342.383       17.754      862.478
09/23/2014  01:18:00      -72.198      -45.999       -9.980       23.495       16.712       10.736      552.004      279.280      115.269        0.419        0.047       85.607       11.135        0.017      342.423       17.821      862.461
09/23/2014  01:19:00      -86.433      -52.840       -2.065       32.100       31.002       16.091     1030.431      961.111      258.921        0.626        0.113      101.305        7.393        0.005      342.418       17.812      862.450
09/23/2014  01:20:00     -111.104      -74.210       -6.999       38.603       20.875       19.396     1490.214      435.755      376.216        1.010        0.115      133.608       18.515        0.019      342.385       17.759      862.457
09/23/2014  01:21:00      -51.426      -61.805       -0.530       30.472       35.104       21.977      928.515     1232.272      482.993        0.455        0.132       80.402       21.158        0.069      342.404       17.790      862.444
09/23/2014  01:22:00      -92.345      -61.509       -3.580       54.132       43.543       22.567     2930.300     1896.019      509.273        0.883        0.267      110.955       28.347        0.065      342.270       17.560      862.423
09/23/2014  01:23:00      -86.985      -36.624       -0.296       23.970       29.725       17.306      574.552      883.599      299.495        0.533        0.088       94.381       12.308        0.017      342.284       17.586      862.408
09/23/2014  01:24:00     -104.204      -53.609       -6.555       32.515       18.277       16.337     1057.215      334.033      266.901        0.772        0.083      117.185        7.561        0.004      342.328       17.660      862.399
09/23/2014  01:25:00      -83.414      -50.128       -0.367       36.672       31.297       16.692     1344.837      979.478      278.639        0.604        0.130       97.317        8.003        0.007      342.309       17.627      862.385
09/23/2014  01:26:00      -76.260      -39.110       -1.681       31.368       30.876       16.503      983.974      953.320      272.343        0.478        0.110       85.704       12.610        0.022      342.270       17.561      862.397
09/23/2014  01:27:00      -54.752      -31.358       -3.628       29.202       19.952       17.238      852.731      398.081      297.159        0.277        0.077       63.096       17.953        0.081      342.250       17.528      862.407
09/23/2014  01:28:00      -57.272      -17.737       -4.006       16.733       16.005       10.406      279.986      256.166      108.286        0.213        0.032       59.956        9.460        0.025      342.271       17.565      862.408
09/23/2014  01:29:00     -102.239       -8.028       -8.225       32.711       23.447       17.022     1070.017      549.781      289.736        0.625        0.095      102.553       18.254        0.032      342.187       17.422      862.424
09/23/2014  01:30:00      -64.020      -32.231       -3.956       24.799       21.962       13.816      615.005      482.311      190.871        0.322        0.064       71.676        4.691        0.004      342.095       17.264      862.434
09/23/2014  01:31:00      -40.113      -28.033        2.103       27.942       18.535       15.082      780.762      343.534      227.476        0.188        0.068       48.938        9.941        0.041      342.140       17.341      862.432
09/23/2014  01:32:00      -24.186      -19.475        1.758       22.857       14.695        9.759      522.435      215.943       95.232        0.090        0.042       31.052       11.077        0.127      342.185       17.418      862.428
09/23/2014  01:33:00      -59.751      -14.327       -8.018       23.529       10.897        9.247      553.635      118.751       85.498        0.230        0.038       61.444        6.047        0.010      342.294       17.603      862.435
09/23/2014  01:34:00      -31.783      -36.096       -1.334       29.287       15.386       11.236      857.717      236.727      126.250        0.177        0.061       48.094        8.436        0.031      342.303       17.617      862.429
09/23/2014  01:35:00      -15.513      -17.352       -1.366       20.164       14.504       12.458      406.593      210.357      155.191        0.066        0.039       23.275        9.511        0.167      342.310       17.630      862.421
09/23/2014  01:36:00      -19.741      -20.003        6.185       18.877       12.134       10.073      356.354      147.240      101.465        0.072        0.030       28.104        8.592        0.093      342.167       17.387      862.432
09/23/2014  01:37:00      -25.012      -21.947       -3.707       27.369       11.923        9.524      749.064      142.157       90.710        0.105        0.049       33.276        8.274        0.062      342.211       17.461      862.452
09/23/2014  01:38:00      -37.159      -41.992       -7.104       12.844       15.618        9.295      164.969      243.927       86.402        0.184        0.025       56.073        2.745        0.002      342.304       17.620      862.456
09/23/2014  01:39:00       -6.211      -14.984        8.374       21.828       12.197       11.510      476.467      148.760      132.480        0.055        0.038       16.220       12.957        0.638      342.246       17.522      862.468
09/23/2014  01:40:00       -7.946      -14.445       -1.337       27.716       16.097       13.185      768.186      259.123      173.835        0.074        0.060       16.486       11.952        0.526      342.188       17.424      862.489
09/23/2014  01:41:00       11.284      -40.247        4.818       13.889       20.595       12.167      192.894      424.159      148.045        0.127        0.038       41.799        7.735        0.034      342.265       17.553      862.484
09/23/2014  01:42:00      -11.084      -60.635       -2.361       32.048       24.648       13.688     1027.071      607.536      187.368        0.281        0.091       61.640        6.143        0.010      342.298       17.609      862.467
09/23/2014  01:43:00      -56.932      -72.103        0.863       39.278       33.273       22.222     1542.794     1107.097      493.799        0.579        0.157       91.871       23.328        0.064      342.238       17.507      862.445
09/23/2014  01:44:00      -83.762      -66.636        0.858       36.230       29.431       24.325     1312.631      866.167      591.721        0.711        0.139      107.035       24.238        0.051      342.154       17.367      862.447
09/23/2014  01:45:00      -59.882      -55.405        4.014       48.031       28.749       16.535     2306.944      826.481      273.415        0.504        0.170       81.582       20.862        0.065      342.164       17.382      862.421
09/23/2014  01:46:00       20.690       -2.671        8.552       25.361       23.449       16.233      643.182      549.861      263.508        0.098        0.073       20.861       20.289        0.946      342.212       17.465      862.382
09/23/2014  01:47:00       -3.614        5.621       -2.221       35.578       20.035       16.490     1265.787      401.388      271.916        0.099        0.097        6.683       19.801        8.779      342.171       17.393      862.364
09/23/2014  01:48:00     -126.774      -45.060      -10.767       32.962       33.178       15.398     1086.501     1100.811      237.112        1.032        0.121      134.544        6.312        0.002      342.221       17.478      862.393
09/23/2014  01:49:00      -97.700      -29.515        0.100       51.539       39.308       19.743     2656.308     1545.086      389.794        0.750        0.230      102.061       20.818        0.042      341.969       17.050      862.408
09/23/2014  01:50:00      -91.539        1.791       -6.765       48.696       32.600       24.710     2371.342     1062.745      610.580        0.624        0.202       91.556       21.439        0.055      341.715       16.622      862.406
09/23/2014  01:51:00      -40.929        9.840       -3.735       35.683       20.270       16.802     1273.247      410.882      282.322        0.188        0.098       42.095        7.318        0.030      341.732       16.649      862.399
09/23/2014  01:52:00      -34.101      -11.034       -0.596       29.673       24.378       12.171      880.506      594.267      148.145        0.145        0.081       35.842       11.009        0.094      341.780       16.730      862.406
09/23/2014  01:53:00        8.682      -48.432       -5.012       20.311       21.068       16.377      412.525      443.840      268.212        0.179        0.056       49.204       14.082        0.082      342.004       17.111      862.410
09/23/2014  01:54:00       40.973      -52.392       -8.638       30.528       32.743       29.702      931.955     1072.094      882.208        0.369        0.144       66.511       26.905        0.164      342.047       17.183      862.423
09/23/2014  01:55:00        1.729      -15.307        7.896       18.598       21.074       20.048      345.900      444.097      401.917        0.075        0.060       15.404       13.756        0.798      341.978       17.066      862.428
09/23/2014  01:56:00      -36.119       -3.183       -6.444       32.010       15.474        8.562     1024.617      239.434       73.308        0.135        0.067       36.259        9.568        0.070      342.028       17.151      862.457
09/23/2014  01:57:00      -71.666      -21.452      -10.665       27.048       23.414       11.635      731.612      548.238      135.372        0.356        0.071       74.808       11.601        0.024      342.065       17.213      862.473
09/23/2014  01:58:00      -12.642       -6.449       -0.792       16.241       12.403        5.484      263.775      153.844       30.072        0.032        0.022       14.192        7.394        0.271      342.132       17.327      862.470
09/23/2014  01:59:00      -96.507      -47.758       -3.040       46.084       41.530       22.530     2123.697     1724.778      507.617        0.798        0.218      107.677       10.446        0.009      342.026       17.149      862.489
09/23/2014  02:00:00      -49.617      -60.101        3.211       56.920       33.064       17.014     3239.876     1093.223      289.470        0.535        0.231       77.936       16.372        0.044      341.920       16.968      862.512
09/23/2014  02:01:00      -10.204      -38.753       -2.632       13.887       13.176        9.584      192.845      173.612       91.854        0.104        0.023       40.074        7.654        0.036      342.097       17.266      862.502
09/23/2014  02:02:00       24.551        6.593        3.870        5.730       11.332        8.841       32.831      128.419       78.163        0.045        0.012       25.421        8.246        0.105      342.047       17.184      862.481
09/23/2014  02:03:00       14.502        1.467        2.045        9.943        6.836        4.399       98.856       46.731       19.350        0.019        0.008       14.576        3.307        0.051      342.056       17.197      862.461
09/23/2014  02:04:00      -10.605        3.585        4.223       13.479       10.935        5.632      181.671      119.571       31.723        0.024        0.017       11.195        6.137        0.301      342.047       17.183      862.430
09/23/2014  02:05:00      -31.096       36.515       -4.352       15.548       18.175        7.871      241.754      330.340       61.960        0.148        0.032       47.962        8.073        0.028      342.065       17.213      862.417
09/23/2014  02:06:00      -74.889       36.806      -12.502       28.398       17.831        8.548      806.423      317.952       73.061        0.416        0.060       83.445        8.523        0.010      342.165       17.384      862.427
09/23/2014  02:07:00      -73.459       -4.594       -6.027       31.022       23.022       16.688      962.361      530.023      278.488        0.361        0.089       73.602       13.950        0.036      341.972       17.056      862.455
09/23/2014  02:08:00      -79.965      -28.073       -5.067       39.898       11.304       10.269     1591.854      127.773      105.461        0.452        0.091       84.749       13.190        0.024      342.114       17.298      862.464
09/23/2014  02:09:00     -124.153        4.081       -4.499       43.820       26.439       27.243     1920.178      699.020      742.175        0.941        0.168      124.220       27.750        0.050      341.991       17.089      862.475
09/23/2014  02:10:00      -21.221       19.724       10.644       42.792       22.637       19.744     1831.136      512.446      389.817        0.184        0.137       28.972       24.947        0.741      341.868       16.880      862.475
09/23/2014  02:11:00       46.856       43.175       -7.130       23.443       20.245       20.784      549.572      409.879      431.986        0.275        0.070       63.715       19.686        0.095      341.988       17.083      862.429
09/23/2014  02:12:00        6.034      -33.996       -5.685       10.745       31.406       16.004      115.463      986.320      256.113        0.129        0.068       34.527       11.750        0.116      341.939       17.000      862.426
09/23/2014  02:13:00        8.793      -61.811      -16.806       21.553       24.674       13.000      464.550      608.816      168.999        0.271        0.062       62.433        8.690        0.019      342.128       17.322      862.438
09/23/2014  02:14:00       22.043      -77.998      -14.741       31.502       29.901       16.010      992.402      894.086      256.317        0.446        0.107       81.053       13.246        0.027      342.200       17.444      862.452
09/23/2014  02:15:00       34.443      -73.894      -21.867       39.763       43.606       28.483     1581.089     1901.472      811.257        0.571        0.215       81.527       17.461        0.046      342.082       17.243      862.425
09/23/2014  02:16:00       40.946      -65.936       -2.737       31.840       50.581       26.200     1013.797     2558.485      686.453        0.514        0.213       77.615       27.402        0.125      342.091       17.257      862.408
09/23/2014  02:17:00       22.923      -13.857       36.799       52.467       56.693       40.935     2752.778     3214.083     1675.693        0.486        0.382       26.786       42.250        2.488      341.998       17.100      862.380
09/23/2014  02:18:00       10.536      -28.698       -6.143       31.629       35.116       20.263     1000.374     1233.165      410.594        0.181        0.132       30.571       11.039        0.130      342.124       17.313      862.388
09/23/2014  02:19:00      -11.558        2.742        6.475       18.492       15.237       12.129      341.958      232.162      147.120        0.045        0.036       11.879       10.827        0.831      341.959       17.034      862.401
09/23/2014  02:20:00        3.063       -4.089        9.241        7.145        9.894        7.478       51.052       97.890       55.915        0.016        0.010        5.109        4.353        0.726      341.921       16.968      862.396
09/23/2014  02:21:00      -22.227       -9.559        5.803       18.989       14.964       11.238      360.571      223.920      126.287        0.066        0.036       24.195        8.893        0.135      341.912       16.954      862.388
09/23/2014  02:22:00       -3.789      -18.464       -0.401        6.847       11.097        8.136       46.876      123.135       66.191        0.030        0.012       18.848        6.743        0.128      342.032       17.161      862.358
09/23/2014  02:23:00       -4.429      -15.599        1.150       10.128       12.029        6.843      102.578      144.697       46.831        0.028        0.015       16.215        3.909        0.058      342.106       17.283      862.344
09/23/2014  02:24:00      -21.960       -6.409        7.803       22.553       11.321        9.023      508.622      128.164       81.421        0.065        0.036       22.876        9.511        0.173      342.114       17.295      862.352
09/23/2014  02:25:00       -6.437      -22.574        1.711       18.545       14.076       11.550      343.935      198.140      133.391        0.061        0.034       23.474        8.210        0.122      342.133       17.329      862.351
09/23/2014  02:26:00       16.631       27.927        7.985       18.132       25.626       11.231      328.756      656.671      126.140        0.112        0.056       32.504        4.842        0.022      342.016       17.130      862.343
09/23/2014  02:27:00      -23.905       43.420       -1.987       43.448       16.278       13.416     1887.769      264.970      179.994        0.240        0.117       49.566       19.962        0.162      341.921       16.970      862.325
09/23/2014  02:28:00      -41.613       -7.670      -12.279       23.308       46.103       15.231      543.267     2125.469      231.984        0.242        0.145       42.313       18.403        0.189      342.188       17.422      862.326
09/23/2014  02:29:00       29.645      -11.380       12.383       40.984       28.212       23.256     1679.677      795.945      540.819        0.209        0.151       31.754       24.812        0.611      342.122       17.311      862.306
09/23/2014  02:30:00       13.501        7.664        9.578       17.028       13.654       14.507      289.943      186.436      210.456        0.051        0.034       15.525        9.668        0.388      341.929       16.984      862.270
09/23/2014  02:31:00       17.798        8.311       -8.031       10.422        9.496       11.553      108.624       90.182      133.472        0.039        0.017       19.643        7.042        0.129      341.935       16.993      862.253
09/23/2014  02:32:00        0.372        0.444        5.187       12.568        5.906        7.507      157.963       34.881       56.357        0.014        0.012        0.580        5.763       98.902      341.883       16.906      862.257
09/23/2014  02:33:00       35.215       26.674       24.079       17.245       10.838       10.680      297.393      117.456      114.059        0.153        0.026       44.176        5.621        0.016      341.810       16.781      862.249
09/23/2014  02:34:00       32.719       14.356       19.609       23.910       18.807       18.315      571.705      353.704      335.427        0.146        0.063       35.730       15.845        0.197      341.745       16.671      862.253
09/23/2014  02:35:00       48.628       10.822       28.251       28.558       24.038       20.389      815.584      577.828      415.711        0.254        0.090       49.818       18.582        0.139      341.906       16.944      862.263
09/23/2014  02:36:00       48.710       23.913       36.091       20.813       22.129       20.872      433.182      489.696      435.643        0.280        0.068       54.263        9.330        0.030      341.951       17.021      862.264
09/23/2014  02:37:00       54.098       33.976        3.880       19.564       19.513       19.326      382.731      380.774      373.490        0.262        0.057       63.882       13.758        0.046      341.671       16.547      862.255
09/23/2014  02:38:00       60.836       56.701        1.069       24.115       21.120       19.677      581.524      446.054      387.181        0.417        0.071       83.162       11.303        0.018      341.549       16.339      862.253
09/23/2014  02:39:00       26.906       59.645       -7.697       19.579       33.950       21.854      383.351     1152.578      477.600        0.318        0.101       65.433       20.294        0.096      341.520       16.288      862.257
09/23/2014  02:40:00       12.701       75.880       -9.874       17.772       32.403       18.108      315.844     1049.978      327.888        0.385        0.085       76.936       20.780        0.073      341.698       16.593      862.269
09/23/2014  02:41:00      -23.247       83.876      -12.377       16.778       26.401        9.891      281.494      697.013       97.836        0.440        0.054       87.038       11.435        0.017      341.835       16.824      862.294
09/23/2014  02:42:00      -26.219       45.683       -8.809       13.289       23.795       11.103      176.596      566.184      123.284        0.186        0.043       52.673       11.991        0.052      341.792       16.752      862.328
09/23/2014  02:43:00       -8.288       37.442        1.802       16.740       19.407       13.128      280.235      376.632      172.350        0.115        0.041       38.349       10.059        0.069      341.813       16.787      862.355
09/23/2014  02:44:00        8.378       63.891        5.441       15.683       25.156       13.757      245.942      632.824      189.241        0.262        0.053       64.438       12.330        0.037      341.899       16.931      862.367
09/23/2014  02:45:00       -7.643       50.243       -5.866       18.768       12.353        7.158      352.236      152.591       51.242        0.159        0.028       50.821       10.378        0.042      342.130       17.325      862.384
09/23/2014  02:46:00      -70.731        5.679      -12.548       12.178       11.206        9.981      148.294      125.569       99.619        0.278        0.019       70.959        5.166        0.005      341.729       16.646      862.398
09/23/2014  02:47:00      -71.914       -7.912      -12.952        9.153       15.357        8.684       83.771      235.822       75.408        0.290        0.020       72.348        5.864        0.007      341.710       16.612      862.402
09/23/2014  02:48:00      -48.157       -0.775      -11.625       23.179        7.169        7.428      537.259       51.392       55.176        0.155        0.032       48.163        9.261        0.037      341.677       16.557      862.413
09/23/2014  02:49:00      -35.509       -8.157       -4.208       11.023        9.069        6.835      121.496       82.247       46.718        0.080        0.013       36.434        6.338        0.030      341.689       16.577      862.422
09/23/2014  02:50:00       -8.240      -21.654        4.451       20.495       11.790       14.621      420.047      138.999      213.770        0.066        0.039       23.169       12.873        0.309      341.838       16.828      862.430
09/23/2014  02:51:00       11.023        4.071       17.253       11.886       25.886       19.489      141.276      670.080      379.829        0.081        0.060       11.751       18.365        2.443      341.760       16.698      862.418
09/23/2014  02:52:00       11.835        5.571       18.458       19.138       30.820       16.069      366.250      949.854      258.224        0.104        0.079       13.080       18.509        2.002      341.753       16.684      862.410
09/23/2014  02:53:00       12.333      -18.861        9.371        9.270       13.861       13.775       85.925      192.119      189.763        0.053        0.023       22.535        7.691        0.116      341.841       16.833      862.416
09/23/2014  02:54:00        7.886       -1.332       14.514        7.636        4.738        6.732       58.306       22.448       45.325        0.020        0.006        7.998        3.607        0.203      341.743       16.667      862.411
09/23/2014  02:55:00      -15.375        1.593        0.659       13.442        5.586        6.795      180.685       31.206       46.179        0.025        0.013       15.457        7.754        0.252      341.741       16.665      862.409
09/23/2014  02:56:00      -48.512        4.434       -5.824       11.202        7.810        7.824      125.496       61.003       61.215        0.133        0.012       48.715        7.055        0.021      341.800       16.763      862.408
09/23/2014  02:57:00      -38.481       -5.609       -3.112        5.650        7.767        5.019       31.917       60.320       25.194        0.082        0.006       38.888        3.518        0.008      341.735       16.653      862.402
09/23/2014  02:58:00      -36.975       -4.983       -7.401        5.490        4.994        5.012       30.137       24.940       25.123        0.076        0.004       37.309        1.857        0.002      341.737       16.660      862.391
09/23/2014  02:59:00      -46.438       -6.915       -9.659        7.561        7.035        5.635       57.175       49.492       31.759        0.122        0.007       46.950        3.546        0.006      341.786       16.740      862.379
09/23/2014  03:00:00      -56.010      -12.063       -9.085        9.554       10.004        7.142       91.281      100.084       51.014        0.180        0.012       57.294        5.937        0.011      341.711       16.616      862.380
09/23/2014  03:01:00      -38.180      -17.574       -7.410       10.242        4.135        3.504      104.898       17.094       12.277        0.098        0.007       42.030        2.393        0.003      341.774       16.718      862.383
09/23/2014  03:02:00      -40.232      -11.097       -4.526        6.169        9.383        3.789       38.058       88.042       14.356        0.095        0.007       41.734        2.762        0.004      341.821       16.800      862.382
09/23/2014  03:03:00      -40.118        5.269       -8.000        5.255        4.688        4.382       27.616       21.973       19.200        0.088        0.003       40.463        2.488        0.004      341.771       16.715      862.374
09/23/2014  03:04:00      -33.884       11.896       -7.185       12.337       12.374        7.151      152.208      153.119       51.143        0.085        0.018       35.912        2.858        0.006      341.798       16.759      862.369
09/23/2014  03:05:00      -47.535       40.454      -10.321       13.824       20.138       10.548      191.109      405.552      111.268        0.236        0.035       62.419        7.593        0.015      341.798       16.760      862.362
09/23/2014  03:06:00      -42.520       56.790       -7.594       15.989       15.178       12.337      255.652      230.383      152.206        0.286        0.032       70.944        9.765        0.019      341.754       16.687      862.361
09/23/2014  03:07:00      -31.600       30.532       -4.723       23.972       16.903       14.179      574.679      285.709      201.042        0.151        0.053       43.940       13.830        0.099      341.786       16.741      862.352
09/23/2014  03:08:00        5.895       18.206       -0.260       18.059       28.450       15.075      326.140      809.380      227.265        0.086        0.068       19.137        9.257        0.234      341.891       16.919      862.337
09/23/2014  03:09:00      -27.310      -17.845       -1.468       34.472       28.544       11.560     1188.285      814.771      133.635        0.160        0.107       32.623       13.663        0.175      341.879       16.899      862.353
09/23/2014  03:10:00      -87.528      -24.054      -10.364       28.182       24.210       14.203      794.214      586.102      201.739        0.496        0.079       90.773       11.593        0.016      341.507       16.268      862.363
09/23/2014  03:11:00       38.464       22.473        1.077       32.764       11.828       10.662     1073.453      139.906      113.682        0.166        0.066       44.548       15.364        0.119      341.851       16.852      862.336
09/23/2014  03:12:00       26.784        9.386       35.633       24.442       26.777       17.718      597.433      717.018      313.941        0.185        0.081       28.381       13.445        0.224      341.700       16.594      862.312
09/23/2014  03:13:00       44.062      -65.567       -4.874       20.643       29.887       18.018      426.148      893.258      324.656        0.395        0.082       78.997       16.204        0.042      341.855       16.858      862.311
09/23/2014  03:14:00        1.016      -15.278        0.612       33.544       31.372       20.670     1125.215      984.191      427.238        0.139        0.127       15.312       19.945        1.697      341.937       16.997      862.300
09/23/2014  03:15:00      -29.107       -1.777        3.273       37.937       22.574       10.931     1439.250      509.600      119.487        0.146        0.103       29.161        8.903        0.093      341.955       17.027      862.281
09/23/2014  03:16:00      -88.202       -7.304       -9.604       29.094       21.266        9.260      846.461      452.245       85.743        0.465        0.069       88.504        7.144        0.007      341.612       16.445      862.274
09/23/2014  03:17:00      -75.199      -21.002      -11.871       23.313       20.727        9.304      543.474      429.607       86.556        0.365        0.053       78.076        6.213        0.006      341.894       16.922      862.273
09/23/2014  03:18:00     -121.633       27.894      -15.027       33.645       48.537       19.916     1132.006     2355.831      396.666        0.984        0.194      124.790       20.405        0.027      341.713       16.616      862.269
09/23/2014  03:19:00      -35.273       24.804       -5.086       17.453       12.100        9.299      304.600      146.412       86.466        0.121        0.027       43.121        9.421        0.048      341.998       17.099      862.261
09/23/2014  03:20:00      -11.567       59.104       -8.334       18.132       19.931        9.821      328.779      397.228       96.454        0.226        0.041       60.226        8.643        0.021      341.946       17.013      862.262
09/23/2014  03:21:00       18.629       -1.702       -7.876        8.258       17.233        6.036       68.201      296.961       36.430        0.041        0.020       18.707        3.794        0.041      341.988       17.083      862.252
09/23/2014  03:22:00      -13.107      -34.776       -2.818       23.639       18.212       14.455      558.789      331.673      208.936        0.124        0.055       37.165       10.578        0.081      341.979       17.068      862.247
09/23/2014  03:23:00      -60.526      -51.088        1.664       24.481       23.205       18.679      599.341      538.462      348.914        0.388        0.074       79.204       11.624        0.022      341.887       16.912      862.260
09/23/2014  03:24:00      -72.050      -37.079        3.073       29.436       21.604       14.212      866.503      466.712      201.971        0.406        0.077       81.031       11.417        0.020      341.861       16.867      862.266
09/23/2014  03:25:00      -81.588      -13.356       -7.144       18.856       19.278       16.965      355.549      371.637      287.798        0.395        0.051       82.674       12.330        0.022      341.764       16.703      862.258
09/23/2014  03:26:00      -76.646      -38.441       -6.814       24.907       16.002       11.600      620.341      256.058      134.567        0.420        0.051       85.746        4.078        0.002      341.710       16.610      862.243
09/23/2014  03:27:00      -14.625      -38.063        0.811       21.336       15.137       12.372      455.242      229.128      153.058        0.125        0.042       40.776       12.122        0.088      341.746       16.672      862.233
09/23/2014  03:28:00      -10.662      -53.615        0.100       25.564       22.391        9.814      653.528      501.350       96.321        0.212        0.063       54.665       10.739        0.039      341.894       16.923      862.232
09/23/2014  03:29:00       14.677       18.811       14.141       12.783       11.627        7.471      163.411      135.187       55.809        0.056        0.018       23.859        5.204        0.048      341.739       16.660      862.223
09/23/2014  03:30:00      -46.188        3.932       -8.622       30.799       11.902       10.241      948.565      141.647      104.884        0.171        0.060       46.355        8.701        0.035      341.760       16.697      862.249
09/23/2014  03:31:00     -102.835      -18.917      -11.185       33.005       21.764       15.240     1089.336      473.668      232.243        0.643        0.090      104.561       15.971        0.023      341.666       16.537      862.279
09/23/2014  03:32:00      -43.816      -35.768        0.400       35.882       11.217        9.349     1287.546      125.826       87.407        0.235        0.075       56.562        7.745        0.019      341.677       16.557      862.288
09/23/2014  03:33:00       -6.703      -52.128        0.950       12.751        8.540        4.538      162.582       72.924       20.598        0.151        0.013       52.557        2.289        0.002      342.160       17.374      862.282
09/23/2014  03:34:00       -9.323      -49.866       -8.977       16.362       10.150        8.550      267.708      103.024       73.096        0.155        0.022       50.730        4.961        0.010      342.221       17.479      862.281
09/23/2014  03:35:00      -48.450      -24.043       -4.390       19.987       13.966        7.787      399.484      195.040       60.634        0.180        0.033       54.088        7.697        0.020      341.947       17.012      862.269
09/23/2014  03:36:00      -85.296      -39.617       -2.351       26.555       19.329       11.725      705.157      373.622      137.480        0.503        0.061       94.047        6.938        0.005      341.658       16.524      862.286
09/23/2014  03:37:00      -85.158      -44.936       -8.889       20.722       13.303       13.130      429.422      176.965      172.397        0.506        0.039       96.286        6.983        0.005      341.705       16.602      862.295
09/23/2014  03:38:00      -50.346      -41.443       -5.020       11.173        8.885       10.417      124.846       78.951      108.506        0.229        0.016       65.209        5.990        0.008      341.884       16.907      862.283
09/23/2014  03:39:00      -44.130      -11.450       -5.641        9.236       17.435        7.762       85.295      303.964       60.248        0.128        0.022       45.591        5.696        0.016      341.867       16.877      862.278
09/23/2014  03:40:00      -26.482       -8.246       -4.627        4.751        7.594        4.224       22.568       57.663       17.843        0.044        0.005       27.736        2.467        0.008      341.959       17.033      862.258
09/23/2014  03:41:00      -40.820      -12.714       -6.109       12.014        7.709        4.338      144.326       59.423       18.822        0.104        0.011       42.754        3.794        0.008      342.081       17.241      862.245
09/23/2014  03:42:00      -53.114      -21.299       -7.626       23.449        9.957       11.659      549.867       99.135      135.940        0.206        0.039       57.226        7.628        0.018      341.760       16.696      862.247
09/23/2014  03:43:00      -30.402      -13.205       -2.054        7.380        6.070        7.210       54.462       36.846       51.988        0.062        0.007       33.146        5.162        0.024      341.735       16.654      862.248
09/23/2014  03:44:00      -25.932       -7.295       -4.872        7.104        6.062        4.603       50.467       36.744       21.189        0.043        0.005       26.939        3.967        0.022      341.700       16.594      862.253
09/23/2014  03:45:00       -0.433       -3.148       -0.363       11.928        8.418        7.782      142.276       70.860       60.561        0.014        0.014        3.178        8.485        7.128      341.633       16.480      862.263
09/23/2014  03:46:00       13.029       25.599        7.571       17.771        6.917       10.247      315.807       47.840      105.001        0.068        0.023       28.724        8.087        0.079      341.623       16.464      862.267
09/23/2014  03:47:00        0.478       39.396      -12.295       10.500       10.656        5.864      110.244      113.554       34.391        0.098        0.013       39.399        5.400        0.019      341.409       16.099      862.276
09/23/2014  03:48:00       15.385        7.410       -4.004        8.356        6.812        6.234       69.825       46.406       38.858        0.023        0.008       17.077        4.691        0.075      341.406       16.097      862.287
09/23/2014  03:49:00       18.688       14.378       -1.633        8.421       10.530        8.496       70.914      110.876       72.189        0.041        0.013       23.579        5.698        0.058      341.597       16.420      862.277
09/23/2014  03:50:00       16.786       44.971        3.017        8.802       14.540        7.996       77.471      211.416       63.934        0.133        0.018       48.001        6.603        0.019      341.595       16.418      862.258
09/23/2014  03:51:00       33.820       53.944       -1.326       19.270       19.199        9.577      371.341      368.620       91.719        0.244        0.042       63.669        8.495        0.018      341.614       16.449      862.243
09/23/2014  03:52:00       31.813        7.536        9.911       24.627       15.001        8.340      606.472      225.029       69.560        0.103        0.045       32.693       10.309        0.099      341.530       16.306      862.230
09/23/2014  03:53:00       28.977      -39.919       -7.100       26.377       31.318       14.860      695.739      980.808      220.817        0.219        0.095       49.327       16.021        0.105      341.560       16.357      862.227
09/23/2014  03:54:00       25.604      -18.792        6.232       26.327       34.790       21.249      693.127     1210.341      451.523        0.170        0.118       31.760       19.166        0.364      341.501       16.256      862.209
09/23/2014  03:55:00       31.723      -44.480       -9.783       27.450       35.497       24.105      753.514     1260.046      581.032        0.284        0.130       54.634       12.788        0.055      341.562       16.361      862.191
09/23/2014  03:56:00        1.218      -70.156       -8.380       36.178       43.529       12.203     1308.850     1894.736      148.903        0.417        0.168       70.166       10.634        0.023      341.572       16.377      862.191
09/23/2014  03:57:00        0.397      -42.560       -2.664       19.201       14.102       14.562      368.690      198.856      212.042        0.130        0.039       42.561        4.281        0.010      341.562       16.361      862.163
09/23/2014  03:58:00       -8.994      -37.823       -4.721       11.236       15.358       10.050      126.237      235.878      100.998        0.100        0.023       38.877        5.630        0.021      341.578       16.386      862.144
09/23/2014  03:59:00       34.796      -48.305       -8.704       32.646       38.827       22.384     1065.733     1507.569      501.036        0.335        0.154       59.533       21.237        0.127      341.540       16.322      862.119
09/23/2014  04:00:00       16.105        1.142       15.777       21.591       14.073       17.955      466.192      198.055      322.369        0.075        0.049       16.146        9.940        0.379      341.388       16.066      862.100
09/23/2014  04:01:00       32.355       -8.197       19.327       19.432       15.683       15.856      377.596      245.950      251.427        0.118        0.044       33.377       10.908        0.107      341.464       16.195      862.093
09/23/2014  04:02:00       34.939       21.657       22.780       32.269       19.625       12.746     1041.296      385.134      162.461        0.190        0.079       41.106        6.879        0.028      341.464       16.194      862.112
09/23/2014  04:03:00       73.961       36.784       27.968       20.169       21.155       24.150      406.780      447.546      583.213        0.452        0.072       82.603       13.289        0.026      341.587       16.403      862.124
09/23/2014  04:04:00      101.168       30.758       15.564       37.464       32.980       26.642     1403.572     1087.654      709.813        0.731        0.160      105.740       22.414        0.045      341.537       16.318      862.117
09/23/2014  04:05:00       32.634       52.540       53.272       40.702       40.783       31.017     1656.615     1663.237      962.050        0.547        0.214       61.850       26.547        0.184      341.429       16.135      862.109
09/23/2014  04:06:00       -5.729      -53.157       14.401       18.658       50.996       20.286      348.109     2600.541      411.519        0.321        0.168       53.465       26.791        0.251      341.485       16.230      862.121
09/23/2014  04:07:00       26.862      -94.081       -2.452       21.117       23.600       16.709      445.907      556.978      279.202        0.543        0.064       97.841       10.906        0.012      341.600       16.423      862.133
09/23/2014  04:08:00       23.192      -50.949       -3.074       22.528       18.945       16.209      507.532      358.901      262.735        0.214        0.056       55.979       12.944        0.053      341.623       16.462      862.115
09/23/2014  04:09:00       34.986       22.772       30.443       33.109       19.998       17.505     1096.188      399.909      306.441        0.224        0.090       41.744       15.211        0.133      341.465       16.196      862.102
09/23/2014  04:10:00       57.640       40.022       23.051       18.217       15.783       21.343      331.861      249.090      455.511        0.325        0.052       70.173       15.475        0.049      341.530       16.304      862.084
09/23/2014  04:11:00       48.380       25.577       20.871       18.554       14.727       15.776      344.242      216.894      248.873        0.212        0.041       54.725       10.450        0.036      341.447       16.164      862.078
09/23/2014  04:12:00       42.673        4.936        7.478       17.695        9.482       12.813      313.105       89.913      164.161        0.123        0.028       42.957        9.153        0.045      341.442       16.156      862.082
09/23/2014  04:13:00       41.773       12.924       15.818       17.747       12.561       13.458      314.940      157.791      181.129        0.141        0.033       43.726        6.537        0.022      341.472       16.207      862.103
09/23/2014  04:14:00       36.129       25.572       33.921       19.133       21.300       12.278      366.055      453.689      150.742        0.204        0.049       44.263        8.331        0.035      341.509       16.270      862.128
09/23/2014  04:15:00        3.638       20.356       39.613       23.127       19.158       16.742      534.867      367.038      280.302        0.159        0.059       20.678       14.240        0.474      341.488       16.234      862.151
09/23/2014  04:16:00       84.001       49.646       24.971       14.708       11.629       12.964      216.314      135.230      168.063        0.533        0.026       97.575        6.750        0.005      341.620       16.459      862.164
09/23/2014  04:17:00       87.867       50.718       20.663       12.482        8.104        9.140      155.808       65.670       83.534        0.551        0.015      101.454        7.390        0.005      341.539       16.321      862.170
09/23/2014  04:18:00       74.910       42.888        4.277       17.974       19.104       13.615      323.054      364.950      185.360        0.417        0.044       86.318       10.944        0.016      341.419       16.118      862.180
09/23/2014  04:19:00       56.704       36.601        9.458       17.155       12.821       14.670      294.303      164.374      215.213        0.266        0.034       67.491        9.999        0.022      341.444       16.160      862.200
09/23/2014  04:20:00       25.946       23.017        6.480       19.237        9.119        9.101      370.061       83.152       82.829        0.089        0.027       34.684        5.978        0.030      341.470       16.204      862.216
09/23/2014  04:21:00       34.365       39.972       -2.587       13.895       12.630       10.863      193.068      159.512      118.002        0.163        0.024       52.713        8.147        0.024      341.534       16.313      862.230
09/23/2014  04:22:00       50.486       29.689        2.964       16.456       10.980       10.416      270.804      120.559      108.499        0.197        0.025       58.568        4.020        0.005      341.442       16.157      862.239
09/23/2014  04:23:00       81.913       45.594       -6.701       14.676       14.811       11.005      215.390      219.365      121.106        0.469        0.028       93.748        7.292        0.006      341.646       16.502      862.257
09/23/2014  04:24:00       40.907       36.612       -3.593       23.008       14.850       11.135      529.348      220.519      123.980        0.195        0.044       54.899       12.961        0.056      341.694       16.584      862.282
09/23/2014  04:25:00       13.098       12.531       -0.604       12.429       10.468       14.434      154.469      109.575      208.331        0.040        0.024       18.127        6.128        0.114      341.647       16.506      862.289
09/23/2014  04:26:00      -24.951        9.955       -3.546       18.095        7.127        4.992      327.422       50.798       24.919        0.057        0.020       26.864        3.711        0.019      341.602       16.428      862.289
09/23/2014  04:27:00      -50.845        1.323       -9.746       18.396        7.439        6.392      338.395       55.345       40.854        0.156        0.022       50.862        5.979        0.014      341.285       15.892      862.286
09/23/2014  04:28:00      -41.968        3.063       -5.380       12.685        9.031        8.049      160.913       81.558       64.785        0.105        0.015       42.080        4.249        0.010      341.322       15.955      862.280
09/23/2014  04:29:00      -42.972      -11.350       -4.764       12.845       13.745        8.933      164.997      188.925       79.792        0.122        0.022       44.446        3.077        0.005      341.329       15.966      862.287
09/23/2014  04:30:00       -3.363      -35.488       -8.128       16.539       10.270        6.561      273.528      105.472       43.045        0.088        0.021       35.647        3.761        0.011      341.389       16.068      862.303
09/23/2014  04:31:00       -7.234      -53.441      -13.450       15.960       19.739        9.391      254.733      389.628       88.188        0.191        0.037       53.928        7.391        0.019      341.419       16.117      862.316
09/23/2014  04:32:00        3.420      -16.108        6.406       22.629       11.384       17.973      512.069      129.598      323.027        0.064        0.048       16.467       18.275        1.232      341.352       16.003      862.332
09/23/2014  04:33:00       -1.602        5.298       17.463       11.574        9.457        9.853      133.950       89.427       97.074        0.033        0.016        5.535        3.781        0.467      341.247       15.827      862.328
09/23/2014  04:34:00        2.130        7.306       25.736       18.312       20.755       14.687      335.343      430.754      215.723        0.085        0.049        7.610       12.717        2.793      341.181       15.715      862.299
09/23/2014  04:35:00        8.338       -2.504       19.844       15.067       20.518       19.054      227.027      421.006      363.068        0.074        0.051        8.706       13.858        2.534      341.135       15.639      862.266
09/23/2014  04:36:00       56.820      -51.106       -4.291       23.320       25.309       14.337      543.838      640.555      205.554        0.362        0.069       76.422       11.276        0.022      341.385       16.060      862.237
09/23/2014  04:37:00       62.302      -49.743       -4.294       16.787       23.008       14.086      281.793      529.364      198.427        0.369        0.050       79.724        8.995        0.013      341.504       16.261      862.224
09/23/2014  04:38:00       33.038       35.685       42.359       23.361       23.038       14.741      545.748      530.751      217.284        0.273        0.065       48.631       14.212        0.085      341.287       15.896      862.208
09/23/2014  04:39:00       14.100       10.724       20.179       18.182       15.898       12.012      330.592      252.743      144.294        0.072        0.036       17.714        7.435        0.176      341.258       15.846      862.206
09/23/2014  04:40:00      -20.856        7.255       -1.193       18.552       21.305        9.238      344.159      453.901       85.337        0.069        0.044       22.081       11.816        0.286      341.298       15.914      862.234
09/23/2014  04:41:00       24.772       42.346       10.243       33.087       17.899       18.805     1094.760      320.376      353.631        0.214        0.088       49.060       21.727        0.196      341.379       16.051      862.255
09/23/2014  04:42:00       61.411       22.515       22.263       21.086       28.929       18.930      444.606      836.906      358.360        0.321        0.082       65.408       18.089        0.076      341.426       16.130      862.267
09/23/2014  04:43:00        3.584       -0.386       -7.344       28.868       16.895        7.594      833.367      285.444       57.663        0.062        0.059        3.605        2.850        0.625      341.339       15.984      862.301
09/23/2014  04:44:00      -19.419       10.725        1.058       11.793       10.588        7.627      139.083      112.103       58.177        0.040        0.015       22.184        6.806        0.094      341.306       15.927      862.326
09/23/2014  04:45:00       -3.969      -17.021        2.901       14.121       10.784        8.728      199.400      116.286       76.182        0.035        0.020       17.478        5.483        0.098      341.330       15.967      862.337
09/23/2014  04:46:00      -35.392      -31.907        6.425       35.050       23.691       13.886     1228.537      561.250      192.829        0.215        0.099       47.651       17.651        0.137      341.215       15.773      862.354
09/23/2014  04:47:00     -109.595      -27.561      -11.607       22.709       24.350       14.491      515.718      592.910      209.978        0.711        0.066      113.007       10.660        0.009      340.858       15.168      862.388
09/23/2014  04:48:00      -17.043       10.861        1.065       34.305       12.552       10.469     1176.847      157.552      109.591        0.093        0.072       20.210        9.928        0.241      340.817       15.098      862.389
09/23/2014  04:49:00       27.772       44.553       17.709       27.114       22.923       19.533      735.157      525.483      381.539        0.236        0.082       52.500       19.435        0.137      341.030       15.460      862.360
09/23/2014  04:50:00     -127.386      -24.468      -10.152       46.147       40.009       15.127     2129.580     1600.719      228.836        1.044        0.198      129.714        8.244        0.004      340.892       15.226      862.371
09/23/2014  04:51:00      -71.641      -20.655       -8.128       48.774       40.077       14.238     2378.874     1606.165      202.721        0.491        0.209       74.559       19.086        0.066      340.747       14.983      862.364
09/23/2014  04:52:00       -5.359        7.823       -1.018       13.453        8.818       10.496      180.976       77.750      110.168        0.023        0.018        9.483        7.428        0.614      340.828       15.117      862.328
09/23/2014  04:53:00      -53.173        6.724       -6.434       25.620       11.326        8.466      656.402      128.273       71.667        0.189        0.043       53.597        8.837        0.027      341.091       15.562      862.337
09/23/2014  04:54:00      -99.729       -9.885      -10.004       19.587       19.157       13.566      383.635      366.985      184.049        0.554        0.047      100.218        7.671        0.006      340.817       15.100      862.373
09/23/2014  04:55:00      -47.121        5.791       -2.786       22.504       18.461       10.195      506.430      340.807      103.944        0.161        0.048       47.475        7.534        0.025      340.739       14.968      862.384
09/23/2014  04:56:00      -26.141       -2.418       -3.848       20.611       12.836        5.715      424.827      164.759       32.661        0.066        0.031       26.253        6.774        0.067      341.160       15.680      862.373
09/23/2014  04:57:00      -88.643      -18.784      -12.576       20.757       20.925       11.554      430.843      437.873      133.488        0.469        0.050       90.612        9.505        0.011      340.928       15.287      862.379
09/23/2014  04:58:00      -39.790       18.972      -15.385       31.549       12.968       11.586      995.342      168.177      134.245        0.174        0.065       44.082       12.166        0.076      340.936       15.301      862.361
09/23/2014  04:59:00      -10.354       23.198        1.375       27.555       13.310        9.992      759.289      177.157       99.841        0.084        0.052       25.404        9.054        0.127      341.266       15.860      862.346
09/23/2014  05:00:00      -82.300      -17.344      -10.588       25.600       24.350       14.034      655.345      592.904      196.960        0.432        0.072       84.108       14.583        0.030      340.725       14.944      862.375
09/23/2014  05:01:00      -65.261      -20.376       -5.947       43.315       29.134       14.582     1876.168      848.764      212.641        0.382        0.147       68.368       16.235        0.056      340.562       14.669      862.387
09/23/2014  05:02:00      -33.662        7.961      -12.368       20.803       17.001        9.302      432.769      289.039       86.519        0.108        0.040       34.590        6.149        0.032      340.756       14.998      862.381
09/23/2014  05:03:00      -72.000        1.725       -8.962       18.918       28.390       14.397      357.884      806.002      207.273        0.332        0.069       72.021       12.715        0.031      340.902       15.243      862.403
09/23/2014  05:04:00      -84.513      -16.775      -15.951       22.141       19.687       12.197      490.244      387.569      148.757        0.435        0.051       86.162        5.131        0.004      340.656       14.829      862.430
09/23/2014  05:05:00      -49.327        2.526      -10.423       42.181       34.869       20.789     1779.223     1215.836      432.177        0.299        0.171       49.391       20.669        0.175      340.613       14.754      862.439
09/23/2014  05:06:00      -43.712      -11.915       -8.199       24.181       22.473       14.737      584.715      505.031      217.177        0.171        0.065       45.307       12.887        0.081      340.612       14.752      862.451
09/23/2014  05:07:00      -78.792      -30.628       -4.887       32.137       34.867       17.240     1032.805     1215.730      297.209        0.486        0.127       84.535        9.769        0.013      340.594       14.722      862.464
09/23/2014  05:08:00      -57.677      -13.012       -9.567       31.948       28.238       19.617     1020.668      797.381      384.817        0.289        0.110       59.126       17.723        0.090      340.496       14.557      862.492
09/23/2014  05:09:00      -49.058        2.238       -9.674       24.197       21.376       16.990      585.512      456.921      288.673        0.192        0.067       49.109       12.308        0.063      340.482       14.531      862.503
09/23/2014  05:10:00      -46.606      -12.410      -12.685       12.879       13.093       10.016      165.877      171.420      100.316        0.146        0.022       48.230        4.010        0.007      340.552       14.651      862.496
09/23/2014  05:11:00      -93.967      -26.828      -10.679       37.921       21.272       12.464     1438.015      452.497      155.352        0.585        0.102       97.721        8.696        0.008      340.575       14.691      862.495
09/23/2014  05:12:00     -148.583      -17.180      -22.786       36.408       36.587       20.125     1325.556     1338.587      405.011        1.298        0.153      149.573       15.169        0.010      340.350       14.310      862.506
09/23/2014  05:13:00      -31.503      -16.060       -2.928       31.267       21.837       17.982      977.633      476.862      323.355        0.152        0.089       35.360       19.558        0.306      340.370       14.344      862.488
09/23/2014  05:14:00      -23.072      -25.300       -1.071        8.896       13.040        9.400       79.140      170.037       88.362        0.076        0.017       34.240        4.436        0.017      340.701       14.902      862.466
09/23/2014  05:15:00      -66.809      -33.955      -13.976       25.710       16.028       11.348      661.022      256.903      128.771        0.343        0.052       74.942       10.032        0.018      340.737       14.965      862.461
09/23/2014  05:16:00      -96.292      -54.550      -13.672       22.752       23.674       14.964      517.646      560.456      223.922        0.687        0.065      110.670        9.410        0.007      340.575       14.691      862.466
09/23/2014  05:17:00      -77.105      -63.841        5.190       31.260       36.896       18.110      977.198     1361.324      327.955        0.636        0.133      100.104       15.194        0.023      340.455       14.487      862.477
09/23/2014  05:18:00      -60.299      -19.870       -0.652       25.443       20.796       12.979      647.350      432.453      168.448        0.264        0.062       63.488        9.339        0.022      340.536       14.624      862.469
09/23/2014  05:19:00      -90.820      -36.528      -12.052       32.766       21.487       14.139     1073.642      461.673      199.907        0.573        0.087       97.890       12.342        0.016      340.615       14.758      862.453
09/23/2014  05:20:00      -68.454        6.171       -6.021       46.042       36.796       21.112     2119.832     1353.979      445.706        0.434        0.196       68.731       20.379        0.088      340.490       14.547      862.453
09/23/2014  05:21:00        9.005      -42.293        0.223       17.927       21.508       14.407      321.366      462.589      207.564        0.143        0.050       43.241       13.483        0.097      340.626       14.776      862.443
09/23/2014  05:22:00        2.202      -14.345       -3.694        9.497       11.263       10.092       90.185      126.845      101.847        0.027        0.016       14.513        7.273        0.251      341.153       15.667      862.436
09/23/2014  05:23:00      -23.942       -6.021       -6.154       12.187       10.557       14.853      148.525      111.445      220.625        0.056        0.024       24.688       10.004        0.164      341.138       15.642      862.444
09/23/2014  05:24:00     -110.547      -54.158      -15.225       35.799       22.830       14.444     1281.572      521.207      208.640        0.870        0.101      123.100       17.515        0.020      340.645       14.808      862.464
09/23/2014  05:25:00     -116.583      -35.049      -15.732       23.174       27.099       13.307      537.048      734.330      177.075        0.826        0.072      121.737        9.116        0.006      340.519       14.595      862.477
09/23/2014  05:26:00     -112.907      -11.155      -19.689        8.642       10.845        8.656       74.682      117.607       74.924        0.676        0.013      113.456        6.505        0.003      340.599       14.731      862.466
09/23/2014  05:27:00      -78.271      -18.703      -10.956       18.310       16.052       11.843      335.247      257.666      140.262        0.366        0.037       80.474        9.213        0.013      340.643       14.804      862.458
09/23/2014  05:28:00      -38.483      -20.704       -1.247       10.845       14.029       10.926      117.609      196.825      119.378        0.117        0.022       43.699        6.618        0.023      340.724       14.943      862.444
09/23/2014  05:29:00      -52.918      -26.061       -9.481       13.141       18.861       10.426      172.697      355.724      108.701        0.210        0.032       58.987        9.099        0.024      340.964       15.348      862.435
09/23/2014  05:30:00     -110.127      -36.936      -11.451       26.362       21.082       11.969      694.981      444.451      143.266        0.745        0.064      116.156       11.095        0.009      340.598       14.728      862.415
09/23/2014  05:31:00      -91.965      -28.640      -11.889       16.408       13.553        8.921      269.210      183.690       79.584        0.498        0.027       96.322        3.646        0.001      340.485       14.535      862.390
09/23/2014  05:32:00      -75.005      -27.248      -10.668       14.811       12.307       10.785      219.367      151.451      116.320        0.348        0.024       79.801       10.124        0.016      340.583       14.704      862.350
09/23/2014  05:33:00      -59.349      -21.587      -12.135       12.798       19.088        9.676      163.777      364.352       93.633        0.238        0.031       63.153        6.569        0.011      340.631       14.784      862.331
09/23/2014  05:34:00      -80.642      -23.700       -9.784       21.086       15.934       11.740      444.632      253.886      137.816        0.400        0.042       84.052        7.107        0.007      340.573       14.686      862.322
09/23/2014  05:35:00      -94.021      -11.214      -14.575       15.064       17.146        9.688      226.927      293.983       93.851        0.490        0.031       94.688        5.189        0.003      340.491       14.548      862.329
09/23/2014  05:36:00      -84.793      -12.305      -17.061       15.433       20.635       16.795      238.192      425.794      282.085        0.429        0.047       85.681       13.333        0.024      340.584       14.705      862.327
09/23/2014  05:37:00      -81.231      -14.141      -13.225       20.628       21.567       17.511      425.510      465.132      306.637        0.409        0.060       82.453       10.671        0.017      340.607       14.744      862.332
09/23/2014  05:38:00      -84.134      -14.858      -11.967       22.551       21.109       13.119      508.570      445.577      172.109        0.428        0.056       85.436        8.359        0.010      340.653       14.821      862.346
09/23/2014  05:39:00      -66.359      -33.193      -10.129       20.732       21.770       15.509      429.814      473.926      240.542        0.338        0.057       74.198       10.913        0.022      340.550       14.648      862.372
09/23/2014  05:40:00      -80.013      -24.365      -16.033        8.766       12.100        7.279       76.843      146.414       52.984        0.376        0.014       83.641        5.050        0.004      340.530       14.615      862.381
09/23/2014  05:41:00      -87.634      -12.973      -13.054        7.259        7.285        8.099       52.693       53.071       65.589        0.409        0.009       88.589        5.150        0.003      340.672       14.854      862.387
09/23/2014  05:42:00      -81.641      -10.776      -11.107        8.982       10.215        8.245       80.674      104.348       67.976        0.358        0.013       82.349        3.174        0.001      340.585       14.707      862.407
09/23/2014  05:43:00      -74.926      -11.157       -8.810       16.176       10.277        9.174      261.668      105.608       84.160        0.313        0.023       75.752        6.243        0.007      340.697       14.897      862.423
09/23/2014  05:44:00      -25.386      -28.930       -0.292       18.073       16.060        8.380      326.637      257.909       70.217        0.107        0.033       38.489        4.542        0.014      340.809       15.086      862.444
09/23/2014  05:45:00      -17.127      -18.661       -5.893       18.954       11.579       11.028      359.271      134.080      121.616        0.065        0.031       25.329        8.203        0.105      340.734       14.960      862.445
09/23/2014  05:46:00      -83.700      -28.186       -9.002       27.448       15.975        8.199      753.380      255.210       67.225        0.448        0.054       88.319        5.179        0.003      340.459       14.495      862.447
09/23/2014  05:47:00      -80.912      -20.413       -6.677       25.823       21.977       13.984      666.812      482.988      195.563        0.418        0.067       83.448       13.222        0.025      340.377       14.354      862.456
09/23/2014  05:48:00      -95.298       13.717       -9.716       21.126       17.846       16.358      446.295      318.480      267.588        0.520        0.052       96.280       12.009        0.016      340.390       14.378      862.455
09/23/2014  05:49:00      -70.076       -6.516       -7.549       36.264       26.448       21.389     1315.051      699.472      457.469        0.374        0.124       70.378       22.776        0.105      340.337       14.288      862.465
09/23/2014  05:50:00      -74.770      -10.570       -5.066       28.088       21.555       14.067      788.919      464.621      197.888        0.359        0.073       75.513        7.966        0.011      340.231       14.108      862.466
09/23/2014  05:51:00      -46.133       -5.274       -5.827       34.220       19.517        9.904     1171.030      380.904       98.092        0.192        0.083       46.433        9.936        0.046      340.240       14.122      862.466
09/23/2014  05:52:00      -43.291      -15.254      -10.015       20.482       14.847        9.874      419.507      220.435       97.505        0.147        0.037       45.900        5.741        0.016      340.271       14.175      862.467
09/23/2014  05:53:00      -67.153      -25.535      -10.172       17.580       17.205       11.975      309.069      295.999      143.401        0.301        0.037       71.844        9.076        0.016      340.299       14.223      862.493
09/23/2014  05:54:00      -72.155       -1.336       -5.371       21.033       21.849       15.480      442.394      477.394      239.621        0.320        0.058       72.167       10.972        0.023      340.319       14.257      862.512
09/23/2014  05:55:00      -80.039      -11.321      -10.819       24.895       18.580       13.731      619.742      345.210      188.546        0.390        0.058       80.835        9.489        0.014      340.223       14.094      862.529
09/23/2014  05:56:00      -77.516      -19.098      -10.776       21.301       21.730       14.936      453.713      472.200      223.094        0.382        0.057       79.834       11.903        0.022      340.363       14.331      862.541
09/23/2014  05:57:00      -74.205      -33.430      -17.708       22.746       22.809       13.161      517.377      520.253      173.219        0.407        0.061       81.388        6.050        0.006      340.366       14.336      862.559
09/23/2014  05:58:00      -50.039        0.261       -9.395       16.182       23.454       13.215      261.850      550.104      174.625        0.179        0.049       50.040       12.041        0.058      340.381       14.362      862.573
09/23/2014  05:59:00      -47.287       -0.701       -8.763       12.741        8.934        8.625      162.327       79.811       74.392        0.131        0.016       47.292        7.116        0.023      340.591       14.719      862.586
09/23/2014  06:00:00      -49.093      -20.239      -11.818       10.119       14.632        9.592      102.399      214.096       92.009        0.168        0.020       53.101        5.593        0.011      340.517       14.593      862.608
09/23/2014  06:01:00      -65.144      -17.105      -12.177       11.274       12.073        7.711      127.102      145.764       59.458        0.251        0.017       67.352        3.471        0.003      340.304       14.230      862.630
09/23/2014  06:02:00      -18.307      -21.819       -3.997       20.308       14.906        6.709      412.434      222.178       45.011        0.075        0.034       28.482        5.611        0.039      340.340       14.292      862.633
09/23/2014  06:03:00        2.692      -24.457       -5.692        5.807       14.794        6.497       33.724      218.856       42.209        0.047        0.015       24.604        3.123        0.016      340.697       14.897      862.639
09/23/2014  06:04:00        3.832      -17.872       -7.699        7.979       10.479        8.667       63.671      109.803       75.112        0.032        0.012       18.278        6.920        0.143      340.650       14.816      862.638
09/23/2014  06:05:00      -33.417      -17.367       -2.501       28.287       12.611       12.135      800.131      159.032      147.255        0.127        0.055       37.661        3.239        0.007      340.500       14.563      862.644
09/23/2014  06:06:00      -81.972      -12.950       -7.172       11.660       11.935        9.031      135.952      142.456       81.562        0.365        0.018       82.989        5.064        0.004      340.224       14.097      862.646
09/23/2014  06:07:00      -54.683      -21.357       -8.797       15.288       13.486        7.590      233.727      181.862       57.612        0.200        0.024       58.706        6.998        0.014      340.208       14.069      862.647
09/23/2014  06:08:00      -19.046      -15.487        0.126       13.721       14.511        7.768      188.279      210.568       60.340        0.053        0.023       24.548        7.785        0.101      340.283       14.196      862.659
09/23/2014  06:09:00        0.869       -5.502        1.772        7.943        5.211        7.284       63.089       27.153       53.064        0.009        0.007        5.570        4.042        0.527      340.452       14.482      862.661
09/23/2014  06:10:00       -4.686      -19.354        0.875        6.109       13.988        6.890       37.324      195.655       47.471        0.034        0.014       19.913        2.621        0.017      340.560       14.665      862.665
09/23/2014  06:11:00      -43.004      -30.897       -3.213       23.113       11.763        6.255      534.190      138.375       39.120        0.176        0.036       52.952        5.908        0.012      340.445       14.470      862.677
09/23/2014  06:12:00      -87.627      -31.993       -7.903       15.094       12.490        9.792      227.843      156.012       95.882        0.462        0.024       93.284        5.766        0.004      340.166       13.998      862.677
09/23/2014  06:13:00      -72.862      -38.366      -10.751       18.054       18.472       14.780      325.950      341.197      218.454        0.389        0.044       82.346       11.038        0.018      340.452       14.482      862.668
09/23/2014  06:14:00      -39.409      -21.612       -3.046       15.930       14.259       12.550      253.774      203.311      157.507        0.132        0.031       44.946        9.213        0.042      340.551       14.649      862.657
09/23/2014  06:15:00      -35.709      -31.376       -5.867       26.808       17.606       15.082      718.676      309.966      227.461        0.177        0.063       47.535        7.690        0.026      340.287       14.203      862.662
09/23/2014  06:16:00      -83.569      -17.640      -16.610       15.705       17.802       10.810      246.652      316.927      116.851        0.413        0.034       85.411        8.135        0.009      340.245       14.133      862.669
09/23/2014  06:17:00      -57.255      -18.698       -5.662       29.019       27.356       19.149      842.097      748.350      366.677        0.281        0.098       60.231       17.555        0.085      340.539       14.629      862.667
09/23/2014  06:18:00      -66.926      -42.790      -11.429       26.672       29.259       19.570      711.417      856.109      382.972        0.420        0.098       79.436       15.345        0.037      340.173       14.012      862.678
09/23/2014  06:19:00      -98.477      -53.169      -11.954       29.981       24.487       20.321      898.854      599.595      412.949        0.729        0.096      111.914       17.719        0.025      340.131       13.940      862.687
09/23/2014  06:20:00      -32.605       -4.703       -2.184       40.762       26.167       17.256     1661.580      684.737      297.766        0.187        0.132       32.942       15.734        0.228      340.380       14.360      862.694
09/23/2014  06:21:00      -10.556       24.535        1.343       15.065       15.474       10.414      226.942      239.447      108.446        0.064        0.029       26.710        6.187        0.054      340.635       14.793      862.700
09/23/2014  06:22:00        5.014      -12.356        2.042        6.200       10.285        6.360       38.444      105.789       40.456        0.018        0.009       13.335        3.403        0.065      340.637       14.796      862.705
09/23/2014  06:23:00       -3.600      -12.560        8.601       16.117       16.936       15.827      259.773      286.828      250.480        0.052        0.040       13.065       11.460        0.769      340.493       14.553      862.734
09/23/2014  06:24:00      -60.287      -31.450       -6.477       47.554       25.880       15.758     2261.403      669.796      248.316        0.392        0.159       67.997       17.789        0.068      340.141       13.956      862.773
09/23/2014  06:25:00      -61.224      -29.951       -7.109       28.927       20.353       18.001      836.779      414.253      324.050        0.314        0.079       68.157       10.219        0.022      340.238       14.120      862.774
09/23/2014  06:26:00      -96.302      -36.059      -15.513       36.952       18.284       17.647     1365.460      334.318      311.428        0.641        0.101      102.832       19.417        0.036      340.233       14.113      862.784
09/23/2014  06:27:00     -104.732      -31.777      -20.079       14.674       20.676       11.917      215.339      427.514      142.023        0.658        0.039      109.447       10.457        0.009      340.288       14.206      862.783
09/23/2014  06:28:00      -71.365      -16.720       -9.771       28.840       13.270       12.599      831.738      176.103      158.723        0.332        0.058       73.297        9.642        0.017      340.451       14.480      862.774
09/23/2014  06:29:00       25.716       13.157        4.378       23.234       15.590        7.560      539.807      243.055       57.150        0.085        0.042       28.886        4.592        0.025      340.403       14.398      862.753
09/23/2014  06:30:00       -0.280      -11.226      -11.356       21.219       13.859        6.083      450.259      192.062       37.005        0.047        0.034       11.229        5.369        0.229      340.440       14.461      862.749
09/23/2014  06:31:00      -19.461        6.288       -8.824        8.183        8.916        9.536       66.958       79.494       90.941        0.037        0.012       20.452        5.954        0.085      340.597       14.728      862.771
09/23/2014  06:32:00      -28.665      -11.077       -2.880       10.693       13.406        9.551      114.342      179.724       91.225        0.067        0.019       30.730        8.313        0.073      340.503       14.568      862.786
09/23/2014  06:33:00       -2.652      -24.101       -4.549       15.871       13.174       11.241      251.881      173.541      126.369        0.058        0.028       24.246        8.736        0.130      340.171       14.008      862.808
09/23/2014  06:34:00       -1.834      -11.420       -1.822       10.608       11.620        8.894      112.538      135.027       79.111        0.023        0.016       11.567        4.424        0.146      340.175       14.014      862.833
09/23/2014  06:35:00      -28.541        8.611        0.718       20.497       17.609       13.230      420.137      310.072      175.039        0.090        0.045       29.811        8.534        0.082      340.340       14.294      862.854
09/23/2014  06:36:00       -9.934       -4.315        2.576       16.236       11.626        7.270      263.594      135.160       52.859        0.029        0.023       10.831        4.333        0.160      340.247       14.137      862.885
09/23/2014  06:37:00       -2.441       13.293       -4.546        9.521       14.134        7.197       90.649      199.772       51.796        0.027        0.017       13.516        3.979        0.087      340.365       14.334      862.892
09/23/2014  06:38:00       -8.560       11.577        0.059       16.011        9.272       12.114      256.354       85.976      146.759        0.035        0.024       14.398       11.312        0.617      340.518       14.593      862.896
09/23/2014  06:39:00      -18.156       15.068        0.627       15.734       16.466       10.043      247.545      271.135      100.864        0.059        0.031       23.594        9.364        0.158      340.446       14.472      862.880
09/23/2014  06:40:00       -8.551      -17.727        3.188       10.324       12.262        9.975      106.585      150.350       99.498        0.038        0.018       19.682        8.410        0.183      340.027       13.765      862.867
09/23/2014  06:41:00       -4.953      -46.071      -11.411       11.229       18.609        9.641      126.090      346.285       92.949        0.142        0.028       46.337        5.935        0.016      340.083       13.859      862.847
09/23/2014  06:42:00      -13.256      -28.612       -1.751       14.888       13.731       18.823      221.656      188.535      354.319        0.088        0.038       31.534        7.773        0.061      340.217       14.084      862.827
09/23/2014  06:43:00      -52.459      -22.069        3.122       20.740       18.666       11.389      430.127      348.407      129.717        0.208        0.045       56.912        8.504        0.022      340.262       14.161      862.840
09/23/2014  06:44:00      -63.513      -17.619      -15.491       21.737       10.856       15.105      472.487      117.863      228.154        0.270        0.041       65.911        9.698        0.022      340.101       13.889      862.853
09/23/2014  06:45:00       -6.266       12.273       -8.225       11.612       10.516        7.998      134.845      110.581       63.973        0.028        0.015       13.779        6.398        0.216      340.692       14.889      862.859
09/23/2014  06:46:00       33.083       17.408        9.200       14.488       10.155        9.479      209.905      103.115       89.854        0.094        0.020       37.384        6.113        0.027      340.671       14.854      862.871
09/23/2014  06:47:00      -22.620      -10.592        1.239       24.341       14.389       11.652      592.493      207.039      135.768        0.078        0.047       24.977        5.473        0.048      340.392       14.380      862.890
09/23/2014  06:48:00      -34.122      -23.049       -7.572       27.695       12.837       11.219      766.999      164.794      125.865        0.141        0.053       41.177        9.176        0.050      339.967       13.663      862.908
09/23/2014  06:49:00       42.504       29.981        0.383       32.105       25.274        9.811     1030.747      638.796       96.257        0.224        0.088       52.014       10.753        0.043      340.115       13.912      862.902
09/23/2014  06:50:00       46.659       23.918        8.966       25.845       18.374       15.168      667.984      337.587      230.070        0.203        0.062       52.432       11.112        0.045      340.185       14.030      862.902
09/23/2014  06:51:00       30.847        4.244        3.190       18.929       23.052       10.932      358.292      531.407      119.505        0.099        0.050       31.138       10.330        0.110      340.192       14.042      862.918
09/23/2014  06:52:00       -2.262      -35.052       -5.694       11.711       10.806       11.428      137.155      116.777      130.606        0.083        0.019       35.124        6.515        0.034      340.264       14.162      862.944
09/23/2014  06:53:00        4.197       -6.067        3.070       10.252        7.602        8.573      105.113       57.792       73.489        0.015        0.012        7.377        3.979        0.291      340.332       14.280      862.949
09/23/2014  06:54:00        6.338       -1.133        1.873        9.496       13.684        4.453       90.171      187.247       19.827        0.017        0.015        6.438        3.520        0.299      340.541       14.633      862.962
09/23/2014  06:55:00      -24.646       13.524       -2.441        9.368       10.367        6.537       87.763      107.478       42.734        0.052        0.012       28.113        4.232        0.023      340.227       14.102      862.975
09/23/2014  06:56:00      -33.073       -0.801       -9.530       10.101        8.998        6.953      102.022       80.960       48.351        0.071        0.012       33.082        3.514        0.011      340.251       14.142      862.985
09/23/2014  06:57:00      -55.033      -13.143       -6.719        8.336        6.751        7.918       69.481       45.572       62.695        0.171        0.009       56.581        4.247        0.006      340.278       14.188      862.990
09/23/2014  06:58:00      -72.019       -8.844       -8.054       12.254       11.193        9.737      150.163      125.293       94.813        0.285        0.019       72.560        6.178        0.007      340.201       14.057      862.998
09/23/2014  06:59:00      -80.009       -5.215      -15.470       23.637       12.014       11.338      558.720      144.345      128.557        0.375        0.042       80.179       10.594        0.017      339.939       13.615      863.020
09/23/2014  07:00:00      -68.417       -8.421       -9.991       10.176        8.103        9.072      103.554       65.660       82.309        0.255        0.013       68.934        5.415        0.006      340.121       13.923      863.033
09/23/2014  07:01:00      -73.528      -30.721       -8.257       12.558       18.328       14.299      157.705      335.910      204.473        0.356        0.035       79.688       10.218        0.016      340.127       13.933      863.046
09/23/2014  07:02:00      -53.378      -25.944       -1.211       20.413       20.648       16.617      416.695      426.355      276.123        0.232        0.056       59.349        9.388        0.025      339.957       13.646      863.054
09/23/2014  07:03:00      -65.843       -2.716      -16.330        9.822       12.687        8.999       96.473      160.959       80.976        0.247        0.017       65.899        3.205        0.002      340.243       14.129      863.035
09/23/2014  07:04:00      -91.540      -22.627      -14.433       16.830       14.365       10.938      283.237      206.361      119.632        0.485        0.030       94.295        4.919        0.003      340.109       13.902      863.039
09/23/2014  07:05:00      -86.386       -8.859      -13.511       14.617       30.492       13.100      213.653      929.739      171.608        0.452        0.066       86.839       13.828        0.025      340.018       13.750      863.046
09/23/2014  07:06:00      -70.792       -0.196      -14.729       14.315       14.490        8.247      204.907      209.947       68.006        0.286        0.024       70.792        7.198        0.010      340.273       14.180      863.056
09/23/2014  07:07:00      -38.632      -17.519       -9.661       16.534       15.863        9.970      273.385      251.650       99.395        0.126        0.031       42.418        7.428        0.031      340.308       14.240      863.068
09/23/2014  07:08:00      -68.330      -25.849       -2.106       30.776       17.307       14.269      947.138      299.516      203.610        0.340        0.073       73.056       16.548        0.051      340.094       13.878      863.089
09/23/2014  07:09:00      -62.275      -26.718       -4.511       15.527       12.245        6.248      241.095      149.933       39.033        0.252        0.022       67.764        7.183        0.011      340.098       13.885      863.090
09/23/2014  07:10:00      -58.238      -17.703       -7.073        7.216        8.584        4.467       52.067       73.691       19.955        0.195        0.007       60.869        4.098        0.005      340.178       14.019      863.089
09/23/2014  07:11:00      -36.429      -19.590       -2.794        8.859        5.632        3.334       78.480       31.725       11.115        0.092        0.006       41.362        3.188        0.006      340.294       14.214      863.083
09/23/2014  07:12:00      -68.182        3.810       -9.777       16.303       12.084        7.758      265.787      146.025       60.179        0.262        0.024       68.289        7.627        0.012      340.263       14.161      863.097
09/23/2014  07:13:00      -56.062        0.663      -10.465        5.112        6.191        4.787       26.136       38.331       22.917        0.167        0.004       56.066        2.253        0.002      340.297       14.221      863.110
09/23/2014  07:14:00      -34.660       -9.335       -8.584       15.114        7.596        6.126      228.442       57.695       37.523        0.084        0.016       35.895        7.096        0.039      340.372       14.347      863.121
09/23/2014  07:15:00       -7.113       -5.899        0.234        4.099        7.006        3.965       16.803       49.077       15.718        0.008        0.004        9.241        4.099        0.197      340.613       14.756      863.134
09/23/2014  07:16:00      -39.347       12.594       10.271       13.089       14.743        8.221      171.319      217.361       67.582        0.113        0.023       41.314        5.011        0.015      340.548       14.645      863.151
09/23/2014  07:17:00      -45.361       -9.244       -4.088        6.794        7.821        6.668       46.164       61.173       44.462        0.116        0.008       46.293        2.247        0.002      340.389       14.375      863.179
09/23/2014  07:18:00       -2.021      -22.162       -0.510       12.356       11.639        7.818      152.678      135.464       61.129        0.042        0.017       22.254        3.901        0.031      340.476       14.524      863.176
09/23/2014  07:19:00        5.079      -37.192       -4.778        9.733       13.142       10.045       94.728      172.700      100.896        0.090        0.018       37.537        6.248        0.028      340.666       14.844      863.187
09/23/2014  07:20:00       -3.375      -10.847       12.602        5.477       11.778        5.974       29.997      138.717       35.688        0.025        0.010       11.360        3.401        0.090      340.661       14.836      863.190
09/23/2014  07:21:00       -3.065        7.082        8.252       14.253       12.494       12.145      203.138      156.106      147.502        0.032        0.025        7.717        9.956        1.665      340.568       14.679      863.186
09/23/2014  07:22:00       -5.167      -15.235       10.610       15.525       17.355       13.286      241.038      301.213      176.529        0.054        0.036       16.088        6.923        0.185      340.662       14.838      863.180
09/23/2014  07:23:00       64.074       41.495       29.906       30.737       20.162       16.896      944.763      406.502      285.465        0.418        0.082       76.337       14.863        0.038      340.502       14.566      863.155
09/23/2014  07:24:00       93.661       42.105        5.230       26.867       18.592       13.291      721.835      345.665      176.640        0.591        0.062      102.690        5.005        0.002      340.548       14.643      863.138
09/23/2014  07:25:00       63.443       40.026       13.684       32.587       22.465       20.742     1061.903      504.698      430.233        0.391        0.100       75.014       10.687        0.020      340.558       14.664      863.135
09/23/2014  07:26:00       18.245       -0.407       15.644       15.033       16.880       14.168      225.985      284.936      200.719        0.064        0.036       18.250        9.049        0.246      340.611       14.751      863.154
09/23/2014  07:27:00       34.479        1.917       21.736       37.225       13.468       14.813     1385.731      181.400      219.434        0.173        0.089       34.532       17.431        0.255      340.655       14.827      863.164
09/23/2014  07:28:00       29.240       63.212       59.046       30.690       39.281       32.101      941.856     1542.978     1030.497        0.593        0.176       69.647       31.889        0.210      340.638       14.796      863.153
09/23/2014  07:29:00        2.438       57.918       74.705       25.839       34.588       17.375      667.675     1196.332      301.904        0.555        0.108       57.969       16.714        0.083      340.600       14.732      863.152
09/23/2014  07:30:00       39.283       39.600       37.120       28.001       23.220       17.232      784.077      539.156      296.940        0.305        0.081       55.779       13.839        0.062      340.555       14.656      863.162
09/23/2014  07:31:00       40.206       19.334       13.560       20.880       14.600       18.355      435.974      213.173      336.896        0.158        0.049       44.613       12.593        0.080      340.558       14.662      863.168
09/23/2014  07:32:00       62.547       42.560       30.862       30.039       23.583       12.663      902.356      556.177      160.340        0.415        0.081       75.654       13.278        0.031      340.520       14.597      863.176
09/23/2014  07:33:00       64.274       48.652       44.663       21.630       20.613       20.009      467.868      424.911      400.341        0.489        0.065       80.611       14.962        0.034      340.524       14.604      863.180
09/23/2014  07:34:00       55.218       50.313       52.589       39.579       32.388       28.317     1566.508     1048.973      801.873        0.588        0.171       74.702       24.107        0.104      340.631       14.785      863.164
09/23/2014  07:35:00       44.553       11.789       17.786       25.488       25.346       16.850      649.621      642.419      283.923        0.201        0.079       46.086        8.484        0.034      340.570       14.683      863.162
09/23/2014  07:36:00       15.167       17.863       21.050       17.048       26.862       16.111      290.617      721.550      259.563        0.113        0.064       23.433       14.736        0.395      340.601       14.735      863.173
09/23/2014  07:37:00       32.145       16.996        7.899       20.410       16.060       15.393      416.562      257.921      236.935        0.115        0.046       36.361       12.784        0.124      340.587       14.711      863.177
09/23/2014  07:38:00       49.858       28.580        7.080       15.765       20.092       14.420      248.529      403.672      207.951        0.211        0.043       57.469       11.866        0.043      340.521       14.599      863.160
09/23/2014  07:39:00       76.664       37.151       15.316       18.873       18.233       19.872      356.189      332.434      394.881        0.429        0.054       85.192       11.680        0.019      340.508       14.576      863.139
09/23/2014  07:40:00       79.781       37.456       -6.268       21.657       20.637       18.642      469.008      425.897      347.507        0.452        0.062       88.136       10.202        0.013      340.549       14.647      863.140
09/23/2014  07:41:00       78.058       57.475       14.239       16.657       15.675       13.999      277.441      245.692      195.977        0.516        0.036       96.935        7.262        0.006      340.544       14.638      863.155
09/23/2014  07:42:00       51.210       42.141       16.721       21.054       14.847       13.607      443.279      220.430      185.143        0.276        0.042       66.320        4.285        0.004      340.553       14.654      863.160
09/23/2014  07:43:00       19.214       14.130        2.222       17.728       12.706       10.888      314.267      161.452      118.556        0.058        0.030       23.850        6.274        0.069      340.638       14.798      863.177
09/23/2014  07:44:00       39.894       16.548        0.168       18.856       10.405       14.507      355.554      108.261      210.455        0.127        0.034       43.190        7.378        0.029      340.635       14.792      863.177
09/23/2014  07:45:00       50.797       27.658        8.576       19.955       14.897       14.711      398.191      221.913      216.403        0.213        0.042       57.839        9.309        0.026      340.618       14.764      863.166
09/23/2014  07:46:00       26.453       24.973        1.951       28.130       20.015       18.636      791.294      400.593      347.305        0.143        0.077       36.379       19.620        0.291      340.670       14.851      863.177
09/23/2014  07:47:00       50.042       27.054       -1.064       18.667       12.945       16.092      348.465      167.561      258.956        0.201        0.039       56.887        8.860        0.024      340.628       14.781      863.190
09/23/2014  07:48:00       43.318       34.305       14.057       25.240       19.946       15.511      637.050      397.849      240.590        0.226        0.064       55.256       10.495        0.036      340.671       14.853      863.176
09/23/2014  07:49:00       83.660       45.339        5.135       26.535       21.545       17.209      704.081      464.200      296.139        0.527        0.073       95.156       12.132        0.016      340.616       14.760      863.161
09/23/2014  07:50:00       15.322       33.435       -2.050       27.537       20.172       21.648      758.305      406.897      468.640        0.150        0.082       36.778        9.842        0.072      340.691       14.887      863.170
09/23/2014  07:51:00       56.377       38.001        5.305       32.327       18.301       17.199     1045.021      334.924      295.805        0.316        0.084       67.988       16.370        0.058      340.717       14.929      863.175
09/23/2014  07:52:00       40.805       46.600       30.150       41.048       21.952       24.639     1684.928      481.910      607.092        0.376        0.139       61.940       29.071        0.220      340.828       15.118      863.194
09/23/2014  07:53:00       26.516       51.425        9.282       29.511       25.713       25.878      870.926      661.161      669.683        0.282        0.110       57.859       15.746        0.074      340.739       14.969      863.209
09/23/2014  07:54:00       52.117       30.875       -4.156       33.535       22.046       20.732     1124.567      486.040      429.830        0.286        0.102       60.576       11.902        0.039      340.680       14.869      863.205
09/23/2014  07:55:00       70.303       52.791        6.034       21.452       14.586       14.176      460.175      212.738      200.959        0.432        0.044       87.917        9.968        0.013      340.657       14.828      863.195
09/23/2014  07:56:00       88.232       52.562       10.127       24.669       22.870       18.649      608.556      523.056      347.772        0.606        0.074      102.701       11.775        0.013      340.692       14.888      863.200
09/23/2014  07:57:00       93.968       75.877       17.716       20.863       17.661       20.757      435.248      311.909      430.859        0.804        0.059      120.778        9.997        0.007      340.666       14.846      863.190
09/23/2014  07:58:00      100.341       58.360       17.536       24.103       26.518       22.675      580.956      703.183      514.136        0.779        0.090      116.078       12.751        0.012      340.753       14.991      863.167
09/23/2014  07:59:00       96.121       45.075       10.726       26.714       17.006       20.771      713.622      289.187      431.451        0.641        0.072      106.165       11.509        0.012      340.717       14.929      863.174
09/23/2014  08:00:00       55.046       57.279       33.776       17.654       17.059       15.912      311.666      291.011      253.178        0.415        0.043       79.441        9.852        0.015      340.816       15.096      863.180
09/23/2014  08:01:00       12.202       21.217        3.742       33.919       21.995       16.550     1150.506      483.760      273.887        0.126        0.095       24.475       10.653        0.189      340.876       15.200      863.190
09/23/2014  08:02:00        4.294        4.140        2.603       15.082       12.819       14.386      227.473      164.318      206.966        0.032        0.030        5.965        4.724        0.627      341.179       15.711      863.197
09/23/2014  08:03:00       45.864       25.363        9.064       19.955       21.060       15.439      398.207      443.514      238.358        0.195        0.054       52.410       11.481        0.048      340.970       15.358      863.205
09/23/2014  08:04:00       64.809       47.561        8.157       16.211       10.308       12.772      262.799      106.258      163.118        0.353        0.027       80.388        8.299        0.011      340.906       15.249      863.210
09/23/2014  08:05:00       70.375       45.817       20.120       37.937       23.478       24.700     1439.228      551.202      610.107        0.503        0.130       83.975       15.079        0.032      341.070       15.529      863.207
09/23/2014  08:06:00       -7.595      -25.841       13.183       19.402       24.819       16.470      376.419      615.976      271.249        0.108        0.063       26.934       11.690        0.188      341.342       15.987      863.229
09/23/2014  08:07:00       -1.892        0.513       45.999       23.158       44.114       15.734      536.305     1946.009      247.574        0.242        0.136        1.960       11.165       32.443      341.454       16.177      863.231
09/23/2014  08:08:00       28.044       38.895       48.352       27.333       34.584       23.097      747.103     1196.066      533.478        0.356        0.124       47.951       22.625        0.223      341.289       15.899      863.218
09/23/2014  08:09:00        9.877       50.658       63.656       26.315       28.367       31.152      692.485      804.711      970.453        0.459        0.123       51.612       22.541        0.191      341.408       16.100      863.201
09/23/2014  08:10:00      107.478       73.652       24.553       60.921       22.451       31.063     3711.418      504.063      964.906        1.138        0.259      130.293       37.895        0.085      341.189       15.728      863.186
09/23/2014  08:11:00       98.659       47.504       26.396       45.363       38.543       34.566     2057.797     1485.532     1194.834        0.871        0.237      109.500       26.261        0.058      341.208       15.761      863.182
09/23/2014  08:12:00       70.453       62.789       38.179       33.609       19.998       20.719     1129.562      399.940      429.270        0.616        0.098       94.372       18.296        0.038      341.146       15.656      863.205
09/23/2014  08:13:00       22.936       32.885       34.574       25.549       30.876       16.335      652.749      953.337      266.839        0.234        0.094       40.093       10.328        0.066      341.388       16.066      863.229
09/23/2014  08:14:00       35.054       36.046       27.448       27.053       31.159       19.890      731.881      970.863      395.631        0.269        0.105       50.280       13.308        0.070      341.547       16.334      863.227
09/23/2014  08:15:00        2.807       31.968       45.593       27.063       22.861       28.325      732.402      522.644      802.311        0.258        0.103       32.090       23.034        0.515      341.788       16.744      863.234
09/23/2014  08:16:00        0.783       39.830       66.763       21.595       34.407       20.412      466.340     1183.809      416.649        0.406        0.103       39.838       21.220        0.284      341.710       16.611      863.254
09/23/2014  08:17:00       26.751       41.406       56.167       25.843       35.338       22.691      667.884     1248.762      514.859        0.401        0.122       49.296       19.956        0.164      341.721       16.631      863.268
09/23/2014  08:18:00       62.332       46.799       29.252       36.746       41.106       27.370     1350.259     1689.669      749.100        0.536        0.189       77.946       27.216        0.122      341.413       16.109      863.287
09/23/2014  08:19:00       45.607       16.184       37.646       53.284       43.372       37.121     2839.135     1881.128     1377.981        0.493        0.305       48.393       32.653        0.455      341.700       16.595      863.287
09/23/2014  08:20:00       49.094       27.333       38.829       37.847       32.146       25.314     1432.372     1033.357      640.806        0.389        0.155       56.190       23.965        0.182      341.567       16.369      863.301
09/23/2014  08:21:00       28.529       56.724       59.455       37.192       29.470       30.507     1383.266      868.459      930.678        0.537        0.159       63.494       28.474        0.201      341.693       16.581      863.316
09/23/2014  08:22:00       14.996      -36.969       10.728       30.127       41.580       22.861      907.662     1728.905      522.644        0.243        0.158       39.894       22.623        0.322      341.767       16.708      863.322
09/23/2014  08:23:00       12.090      -35.323       22.001       24.781       52.452       26.866      614.112     2751.233      721.766        0.298        0.204       37.335       15.662        0.176      341.976       17.062      863.310
09/23/2014  08:24:00       12.769       26.924       20.528       29.282       23.477       18.593      857.445      551.192      345.707        0.153        0.088       29.798       13.175        0.195      342.060       17.207      863.301
09/23/2014  08:25:00       35.420       16.602        1.608       16.148       18.280       19.009      260.761      334.157      361.349        0.124        0.048       39.118       11.420        0.085      341.911       16.952      863.318
09/23/2014  08:26:00       28.358       28.566        8.813       15.086       10.620       12.682      227.573      112.785      160.826        0.110        0.025       40.252        4.610        0.013      341.856       16.860      863.328
09/23/2014  08:27:00       24.726       23.840       12.124       19.557       16.816       19.966      382.458      282.773      398.652        0.120        0.053       34.347       16.134        0.221      341.910       16.951      863.332
09/23/2014  08:28:00       16.937       12.705       14.508       17.618       15.470       14.748      310.392      239.306      217.499        0.071        0.038       21.172       11.147        0.277      341.967       17.048      863.345
09/23/2014  08:29:00      -30.593      -16.256        6.531       20.593       17.024       16.645      424.052      289.826      277.040        0.112        0.050       34.643       17.638        0.259      341.980       17.070      863.359
09/23/2014  08:30:00      -40.069      -28.717       -4.199       20.153       19.764       15.818      406.127      390.624      250.200        0.175        0.052       49.297       11.981        0.059      341.766       16.707      863.359
09/23/2014  08:31:00      -14.347      -12.572       25.098       25.324       36.775       20.874      641.320     1352.387      435.734        0.171        0.121       19.076       20.070        1.107      342.214       17.468      863.352
09/23/2014  08:32:00        9.067       37.254       55.418       27.298       26.054       24.966      745.166      678.832      623.326        0.329        0.102       38.342       16.205        0.179      342.531       18.006      863.343
09/23/2014  08:33:00       12.351       12.671       27.281       28.028       28.557       18.721      785.581      815.530      350.457        0.150        0.098       17.695        8.925        0.254      342.351       17.700      863.350
09/23/2014  08:34:00        8.378       -5.459       18.510       17.257       11.197       13.865      297.794      125.377      192.235        0.053        0.031       10.000        6.617        0.438      342.385       17.758      863.347
09/23/2014  08:35:00      -17.292      -16.321       16.975       10.796       13.842       10.148      116.560      191.595      102.990        0.063        0.021       23.778        7.529        0.100      342.213       17.467      863.350
09/23/2014  08:36:00       -2.704        2.895       -1.853       11.178       12.694       11.513      124.956      161.132      132.559        0.022        0.021        3.961        6.482        2.678      342.379       17.747      863.350
09/23/2014  08:37:00       -0.550        7.155       33.320       12.107       12.642       17.458      146.590      159.819      304.782        0.089        0.031        7.176        6.817        0.902      342.714       18.316      863.346
09/23/2014  08:38:00        9.148      -36.727        8.218       12.804       25.904       17.406      163.938      671.005      302.977        0.132        0.057       37.849       12.392        0.107      342.441       17.853      863.354
09/23/2014  08:39:00      -15.355      -13.507        0.994       19.813       12.252       12.854      392.551      150.117      165.233        0.056        0.035       20.450        8.907        0.190      342.263       17.552      863.361
09/23/2014  08:40:00      -14.302       14.253       35.041       14.633       24.897       19.887      214.133      619.868      395.488        0.143        0.061       20.191       17.830        0.780      342.570       18.072      863.346
09/23/2014  08:41:00      -32.305      -50.844      -13.365       21.327       23.895       15.397      454.861      570.972      237.057        0.253        0.063       60.239        8.251        0.019      342.143       17.345      863.339
09/23/2014  08:42:00      -16.531      -11.535       22.939       25.392       23.012       20.759      644.748      529.551      430.955        0.127        0.080       20.158       14.372        0.508      342.573       18.078      863.345
09/23/2014  08:43:00       31.401       -9.669       25.753       37.294       40.356       36.777     1390.817     1628.581     1352.544        0.306        0.219       32.856       38.510        1.374      342.670       18.243      863.350
09/23/2014  08:44:00      -13.848       -6.972       17.276       19.170       29.617       17.072      367.491      877.167      291.443        0.104        0.077       15.504        5.861        0.143      342.611       18.142      863.355
09/23/2014  08:45:00      -11.612        6.252       35.639       12.227       17.805       15.292      149.500      317.004      233.846        0.107        0.035       13.188       11.400        0.747      343.068       18.919      863.360
09/23/2014  08:46:00        1.226       17.617       40.645       14.972       20.963       13.812      224.151      439.467      190.768        0.141        0.043       17.659       12.644        0.513      342.981       18.771      863.356
09/23/2014  08:47:00       10.728       15.893       43.754       24.726       26.449       18.170      611.358      699.537      330.137        0.196        0.082       19.176       18.135        0.894      342.731       18.346      863.356
09/23/2014  08:48:00       -0.684        5.780        9.106       13.630       22.306       14.105      185.777      497.575      198.962        0.050        0.044        5.820       11.041        3.598      342.800       18.462      863.356
09/23/2014  08:49:00        2.221       11.081       43.681       20.898       33.080       29.395      436.727     1094.277      864.037        0.221        0.120       11.301       29.172        6.664      343.054       18.896      863.359
09/23/2014  08:50:00       -2.703       40.513       53.839       18.463       33.735       19.413      340.872     1138.039      376.880        0.320        0.093       40.603       15.264        0.141      343.035       18.862      863.345
09/23/2014  08:51:00       -4.973       29.930       52.656       17.943       24.388       14.602      321.967      594.766      213.222        0.241        0.056       30.340       13.131        0.187      343.339       19.380      863.341
09/23/2014  08:52:00       -0.865       39.831       58.346       26.335       25.857       17.071      693.543      668.593      291.411        0.332        0.083       39.840        9.116        0.052      343.178       19.108      863.331
09/23/2014  08:53:00        2.532        9.848       32.992       23.298       27.266       20.643      542.779      743.443      426.133        0.145        0.086       10.168        9.742        0.918      343.234       19.203      863.340
09/23/2014  08:54:00       99.595       49.650       -6.799       30.669       22.083       19.326      940.564      487.679      373.507        0.712        0.090      111.284       10.576        0.009      342.412       17.804      863.351
09/23/2014  08:55:00      112.211       57.736       10.714       29.874       31.344       22.804      892.468      982.446      520.040        0.922        0.120      126.193        8.292        0.004      342.377       17.744      863.351
09/23/2014  08:56:00       73.318       58.014        9.231       28.203       22.290       21.592      795.416      496.828      466.223        0.529        0.088       93.494        9.695        0.011      342.450       17.867      863.354
09/23/2014  08:57:00      114.973       59.119       -2.716       43.156       34.607       38.581     1862.450     1197.657     1488.503        1.063        0.227      129.282       21.958        0.029      342.564       18.063      863.345
09/23/2014  08:58:00      121.630       84.616       42.442       44.292       35.550       49.186     1961.772     1263.826     2419.283        1.470        0.282      148.168       28.264        0.036      342.627       18.170      863.339
09/23/2014  08:59:00       69.431       39.988       23.044       57.383       47.866       41.383     3292.819     2291.126     1712.588        0.712        0.365       80.123       25.116        0.098      343.012       18.824      863.347
09/23/2014  09:00:00       77.087       48.439       27.460       57.571       59.268       47.719     3314.435     3512.713     2277.074        0.907        0.455       91.043       41.140        0.204      342.806       18.473      863.367
09/23/2014  09:01:00       47.662       47.432       13.969       35.295       40.132       31.664     1245.722     1610.588     1002.598        0.429        0.193       67.242       28.787        0.183      342.746       18.372      863.375
09/23/2014  09:02:00       46.001       35.119       13.034       34.109       30.110       29.261     1163.452      906.639      856.180        0.322        0.146       57.874       17.384        0.090      342.915       18.659      863.375
09/23/2014  09:03:00       46.246       54.739       47.623       43.581       34.513       31.779     1899.320     1191.158     1009.927        0.575        0.205       71.659       24.071        0.113      343.153       19.064      863.371
09/23/2014  09:04:00       28.914       31.273       28.617       40.090       26.656       29.575     1607.175      710.528      874.710        0.291        0.160       42.592       26.514        0.388      343.158       19.073      863.378
09/23/2014  09:05:00       26.904       64.455       72.540       49.507       39.124       33.982     2450.908     1530.675     1154.781        0.764        0.257       69.845       32.321        0.214      343.086       18.951      863.368
09/23/2014  09:06:00       30.472       86.976       96.464       51.718       54.029       41.616     2674.702     2919.082     1731.908        1.256        0.366       92.160       31.724        0.118      343.055       18.898      863.351
09/23/2014  09:07:00       39.008       71.296       72.553       56.271       42.201       43.838     3166.436     1780.901     1921.800        0.937        0.343       81.270       30.342        0.139      343.001       18.804      863.351
09/23/2014  09:08:00       70.771       62.768       30.016       61.191       43.366       47.663     3744.316     1880.601     2271.754        0.887        0.395       94.595       42.609        0.203      342.912       18.654      863.344
09/23/2014  09:09:00       89.231       73.801       -8.102       53.329       37.092       30.157     2843.985     1375.789      909.436        0.930        0.256      115.796       25.061        0.047      342.865       18.573      863.346
09/23/2014  09:10:00       79.329       46.038       11.040       48.269       45.235       34.884     2329.928     2046.173     1216.888        0.706        0.280       91.720       30.217        0.109      343.049       18.888      863.335
09/23/2014  09:11:00        6.540       45.407       58.470       45.176       53.022       55.729     2040.859     2811.329     3105.774        0.674        0.398       45.876       46.646        1.034      343.536       19.717      863.318
09/23/2014  09:12:00      124.981       96.809       68.421       59.231       57.298       52.826     3508.336     3283.106     2790.550        1.963        0.479      158.089       45.562        0.083      342.758       18.390      863.317
09/23/2014  09:13:00      123.541       66.476       21.775       68.311       51.318       47.996     4666.423     2633.521     2303.590        1.488        0.480      140.290       39.036        0.077      342.775       18.419      863.315
09/23/2014  09:14:00      105.438       58.127       21.751       59.731       48.571       44.431     3567.813     2359.158     1974.148        1.143        0.395      120.399       19.989        0.028      342.884       18.605      863.319
09/23/2014  09:15:00      126.439       93.837       45.975       55.210       38.454       40.270     3048.190     1478.715     1621.710        1.653        0.307      157.456       34.356        0.048      342.893       18.621      863.317
09/23/2014  09:16:00       51.819       60.754       57.280       51.456       43.860       24.942     2647.742     1923.684      622.106        0.742        0.260       79.852       20.775        0.068      343.423       19.524      863.310
09/23/2014  09:17:00       41.275       38.223       40.578       45.466       37.898       35.528     2067.154     1436.238     1262.225        0.479        0.238       56.255       27.415        0.238      343.746       20.075      863.311
09/23/2014  09:18:00      103.745       53.893       16.892       50.484       40.675       36.001     2548.656     1654.448     1296.089        0.973        0.275      116.908       17.868        0.023      343.286       19.291      863.319
09/23/2014  09:19:00       74.369       66.977       51.267       68.790       40.718       60.909     4732.102     1657.943     3709.890        1.137        0.505      100.083       47.904        0.229      343.446       19.565      863.320
09/23/2014  09:20:00       62.125       94.352       86.152       70.665       41.900       47.509     4993.523     1755.578     2257.115        1.459        0.450      112.968       35.565        0.099      343.192       19.130      863.317
09/23/2014  09:21:00       -0.539       15.388       55.955       16.972       27.499       22.570      288.060      756.184      509.396        0.246        0.078       15.397       16.059        1.088      343.787       20.144      863.327
09/23/2014  09:22:00        7.981        3.960       38.791       25.248       29.024       26.265      637.441      842.408      689.857        0.188        0.108        8.910       12.588        1.996      343.707       20.009      863.329
09/23/2014  09:23:00       25.289       27.891       18.349       64.745       41.450       27.260     4191.939     1718.071      743.106        0.420        0.333       37.649       25.395        0.455      343.514       19.679      863.323
09/23/2014  09:24:00      113.150       70.257       20.670       40.417       30.682       35.268     1633.555      941.374     1243.802        1.099        0.191      133.187       17.206        0.017      343.087       18.953      863.323
09/23/2014  09:25:00       60.236       15.125       -8.620       36.083       27.523       24.220     1301.961      757.493      586.598        0.329        0.132       62.106       18.953        0.093      343.305       19.323      863.324
09/23/2014  09:26:00       49.355       54.396       34.331       60.561       40.578       32.918     3667.611     1646.565     1083.595        0.648        0.320       73.449       15.235        0.043      343.637       19.888      863.299
09/23/2014  09:27:00      153.552       91.774       19.098       51.895       35.487       30.765     2693.074     1259.296      946.480        1.863        0.245      178.887       25.800        0.021      343.146       19.052      863.277
09/23/2014  09:28:00      135.178       52.684       21.626       67.607       54.041       40.847     4570.693     2920.414     1668.440        1.534        0.458      145.081       35.747        0.061      343.109       18.989      863.275
09/23/2014  09:29:00       91.870       28.742        8.652       48.539       43.646       38.036     2356.029     1904.960     1446.737        0.752        0.285       96.261       34.030        0.125      343.304       19.322      863.259
09/23/2014  09:30:00       72.874       59.151       17.147       38.004       38.386       28.712     1444.284     1473.499      824.395        0.642        0.187       93.859       19.330        0.042      343.373       19.437      863.254
09/23/2014  09:31:00       71.459       56.761        2.928       57.069       53.796       33.124     3256.874     2893.962     1097.172        0.779        0.362       91.259       18.430        0.041      343.347       19.393      863.255
09/23/2014  09:32:00       44.565       43.464       10.637       42.758       33.216       26.342     1828.283     1103.274      693.884        0.381        0.181       62.251       16.397        0.069      343.336       19.375      863.264
09/23/2014  09:33:00       96.000       69.090        9.285       30.251       23.755       32.310      915.134      564.322     1043.929        0.830        0.126      118.277       14.196        0.014      343.233       19.200      863.293
09/23/2014  09:34:00       56.879       61.007        5.293       31.525       26.612       23.962      993.800      708.209      574.185        0.463        0.114       83.409       15.314        0.034      343.297       19.309      863.299
09/23/2014  09:35:00       94.251       57.050        2.705       22.734       19.106       18.290      516.855      365.050      334.536        0.668        0.061      110.172        9.394        0.007      343.332       19.369      863.303
09/23/2014  09:36:00       92.289       57.567        5.898       19.563       16.594       20.993      382.696      275.375      440.699        0.648        0.055      108.771        4.514        0.002      343.244       19.218      863.297
09/23/2014  09:37:00       67.765       41.425        7.892       24.370       26.678       23.486      593.888      711.700      551.583        0.411        0.093       79.424       12.480        0.025      343.391       19.469      863.297
09/23/2014  09:38:00       38.805       36.655        6.104       36.664       29.437       19.136     1344.224      866.559      366.168        0.273        0.129       53.380       14.175        0.071      343.607       19.838      863.289
09/23/2014  09:39:00       31.752       24.663       26.265       41.593       31.702       18.283     1729.957     1005.038      334.271        0.269        0.153       40.205       14.933        0.138      344.119       20.712      863.284
09/23/2014  09:40:00       15.004       78.712       79.599       39.936       47.156       52.057     1594.868     2223.673     2709.961        0.964        0.326       80.129       43.886        0.300      344.134       20.738      863.274
09/23/2014  09:41:00       93.600       76.473       51.111       42.997       30.227       33.475     1848.772      913.649     1120.599        1.055        0.194      120.868       26.050        0.046      343.604       19.835      863.275
09/23/2014  09:42:00       38.336       32.923       53.880       37.016       39.220       27.498     1370.154     1538.180      756.137        0.456        0.183       50.533       24.214        0.230      343.979       20.474      863.280
09/23/2014  09:43:00      101.481       87.325       19.254       43.125       31.554       35.457     1859.781      995.624     1257.232        1.120        0.206      133.881       28.352        0.045      343.717       20.027      863.265
09/23/2014  09:44:00       87.719       87.953       64.773       51.290       23.768       32.425     2630.705      564.925     1051.401        1.194        0.212      124.219       13.194        0.011      343.861       20.269      863.259
09/23/2014  09:45:00       52.294       72.565       66.912       55.847       37.630       44.749     3118.943     1416.050     2002.490        0.951        0.327       89.444       41.044        0.211      344.074       20.635      863.258
09/23/2014  09:46:00        9.267       42.503       88.703       37.330       51.497       27.733     1393.528     2651.894      769.099        0.729        0.241       43.502       29.553        0.462      344.335       21.081      863.249
09/23/2014  09:47:00        8.942        7.568       59.783       32.737       53.108       35.923     1071.704     2820.485     1290.475        0.445        0.259       11.714       36.653        9.790      344.405       21.200      863.259
09/23/2014  09:48:00       56.108       -6.040       38.916       45.202       58.294       48.481     2043.200     3398.190     2350.397        0.624        0.390       56.432       43.610        0.597      344.250       20.936      863.251
09/23/2014  09:49:00       83.446       78.190       76.970       39.820       24.343       20.482     1585.636      592.604      419.506        1.080        0.130      114.354       14.900        0.017      343.900       20.337      863.250
09/23/2014  09:50:00       69.143       81.173       86.603       47.407       38.766       27.315     2247.404     1502.792      746.092        1.168        0.225      106.629       10.660        0.010      344.174       20.807      863.242
09/23/2014  09:51:00       37.518       69.604       76.190       34.983       33.838       18.108     1223.809     1145.027      327.906        0.738        0.135       79.072       18.066        0.052      344.193       20.838      863.244
09/23/2014  09:52:00       -0.631       39.094       68.727       30.834       38.115       28.920      950.745     1452.781      836.347        0.475        0.162       39.099       23.923        0.374      344.696       21.699      863.232
09/23/2014  09:53:00       21.357       47.068       87.218       29.614       50.386       24.864      876.982     2538.799      618.210        0.716        0.202       51.687       23.251        0.202      344.563       21.471      863.232
09/23/2014  09:54:00       95.118       99.904       81.247       55.907       43.017       43.096     3125.608     1850.481     1857.260        1.623        0.342      137.943       34.624        0.063      344.270       20.969      863.220
09/23/2014  09:55:00       99.668       64.643       23.666       41.787       29.561       26.407     1746.152      873.834      697.337        0.899        0.166      118.795       12.458        0.011      344.134       20.738      863.222
09/23/2014  09:56:00       72.154       71.446       59.580       87.604       52.067       45.233     7674.483     2710.955     2046.010        1.314        0.622      101.542       38.185        0.141      344.599       21.531      863.204
09/23/2014  09:57:00      116.465       66.554       26.639       56.775       62.314       39.330     3223.371     3882.993     1546.873        1.368        0.433      134.139       32.285        0.058      344.426       21.236      863.199
09/23/2014  09:58:00       67.452       63.464       58.800       53.118       56.678       38.037     2821.553     3212.384     1446.839        0.976        0.374       92.614       35.714        0.149      344.725       21.747      863.180
09/23/2014  09:59:00       39.146       -0.084       38.044       50.588       63.994       38.057     2559.133     4095.225     1448.333        0.554        0.405       39.146       39.335        1.010      344.684       21.678      863.167
09/23/2014  10:00:00       55.762      -27.066       46.439       64.282       66.094       41.111     4132.135     4368.400     1690.087        0.809        0.510       61.984       41.836        0.456      345.006       22.229      863.147
09/23/2014  10:01:00       39.262       17.263       62.384       33.806       69.701       30.417     1142.855     4858.282      925.202        0.633        0.346       42.890       34.152        0.634      344.975       22.176      863.142
09/23/2014  10:02:00       14.984       -1.225       30.690       21.525       38.541       27.636      463.329     1485.426      763.742        0.194        0.136       15.034       20.940        1.940      345.203       22.566      863.142
09/23/2014  10:03:00        7.621      -56.148       12.976       33.257       35.148       34.333     1106.037     1235.351     1178.787        0.345        0.176       56.663       26.314        0.216      345.035       22.280      863.144
09/23/2014  10:04:00       66.402      -52.363        5.516       47.356       54.303       44.837     2242.562     2948.845     2010.390        0.719        0.360       84.564       40.794        0.233      345.072       22.342      863.131
09/23/2014  10:05:00       28.016      -40.538       21.214       36.548       51.600       37.665     1335.721     2662.549     1418.619        0.415        0.271       49.277       33.738        0.469      345.406       22.914      863.120
09/23/2014  10:06:00       18.328       17.765       45.166       31.779       50.594       34.825     1009.874     2559.786     1212.795        0.374        0.239       25.524       15.111        0.350      345.444       22.979      863.109
09/23/2014  10:07:00       32.410      -29.522       22.499       44.879       61.235       31.312     2014.119     3749.736      980.459        0.459        0.337       43.840       32.096        0.536      345.216       22.589      863.114
09/23/2014  10:08:00       46.810      -12.251       22.114       42.097       78.651       29.185     1772.183     6185.935      851.739        0.582        0.440       48.387       24.814        0.263      345.009       22.233      863.121
09/23/2014  10:09:00       19.979       -2.852       44.661       29.676       26.858       21.563      880.639      721.338      464.963        0.223        0.103       20.182       12.996        0.415      345.620       23.281      863.121
09/23/2014  10:10:00       40.685       83.374       79.489       54.239       36.817       36.950     2941.837     1355.486     1365.329        1.029        0.283       92.771       29.101        0.098      345.208       22.575      863.126
09/23/2014  10:11:00       18.744      -53.085       19.165       59.948       72.173       29.428     3593.803     5208.942      866.033        0.660        0.483       56.297       21.723        0.149      345.161       22.492      863.125
09/23/2014  10:12:00       36.162        6.641       26.205       41.401       46.042       34.955     1714.042     2119.877     1221.830        0.355        0.253       36.767       37.107        1.019      345.542       23.147      863.124
09/23/2014  10:13:00       52.247       17.903       57.492       62.427       57.361       47.769     3897.079     3290.316     2281.834        0.791        0.473       55.229       42.627        0.596      345.317       22.760      863.123
09/23/2014  10:14:00       76.528       61.545       17.668       58.075       39.282       47.066     3372.694     1543.050     2215.218        0.854        0.357       98.206       39.614        0.163      345.183       22.532      863.108
09/23/2014  10:15:00       88.956       83.346       65.943       41.571       26.196       26.893     1728.107      686.251      723.211        1.117        0.157      121.901       17.734        0.021      345.102       22.394      863.104
09/23/2014  10:16:00       90.393       41.212       29.851       41.247       57.038       23.599     1701.325     3253.306      556.906        0.814        0.276       99.344       12.649        0.016      345.154       22.481      863.091
09/23/2014  10:17:00       59.119       21.690       13.383       37.574       38.330       31.911     1411.771     1469.196     1018.297        0.402        0.195       62.972       23.075        0.134      345.319       22.764      863.093
09/23/2014  10:18:00       16.968       24.228       17.507       39.016       36.218       32.071     1522.215     1311.739     1028.531        0.252        0.193       29.579       18.492        0.391      345.647       23.328      863.086
09/23/2014  10:19:00        9.008       19.837       43.359       34.193       67.790       35.824     1169.162     4595.502     1283.350        0.470        0.352       21.786       40.282        3.419      345.700       23.417      863.085
09/23/2014  10:20:00       59.671     -109.675      -20.346       42.381       55.358       30.174     1796.115     3064.547      910.462        1.089        0.289      124.856       24.767        0.039      345.386       22.880      863.089
09/23/2014  10:21:00       54.801      -18.419       26.738       52.523       67.604       43.438     2758.645     4570.254     1886.834        0.663        0.461       57.814       52.648        0.829      345.468       23.020      863.080
09/23/2014  10:22:00       10.702      -70.361        3.085       27.064       32.895       24.596      732.483     1082.071      604.951        0.375        0.121       71.170       18.239        0.066      345.386       22.880      863.070
09/23/2014  10:23:00        6.132       32.179       40.983       29.914       33.985       37.884      894.857     1154.963     1435.211        0.312        0.174       32.758       20.095        0.376      345.870       23.708      863.051
09/23/2014  10:24:00       36.926       49.932       47.412       44.216       38.647       28.088     1955.028     1493.602      788.957        0.517        0.212       62.102       19.463        0.098      345.485       23.049      863.053
09/23/2014  10:25:00       64.975       78.762       52.462       57.681       50.071       43.401     3327.107     2507.081     1883.606        1.045        0.386      102.104       37.265        0.133      345.372       22.854      863.062
09/23/2014  10:26:00       80.366       82.959       61.130       34.404       22.312       23.201     1183.658      497.846      538.286        0.965        0.111      115.503       12.149        0.011      345.150       22.473      863.059
09/23/2014  10:27:00       68.678       48.140        6.332       28.057       13.277       19.671      787.208      176.277      386.943        0.421        0.068       83.870       17.204        0.042      345.129       22.440      863.067
09/23/2014  10:28:00       71.366       55.862       42.591       37.610       26.569       28.276     1414.475      705.907      799.541        0.647        0.146       90.629        7.603        0.007      345.249       22.646      863.060
09/23/2014  10:29:00       67.106       34.893        8.339       33.918       31.843       28.230     1150.420     1013.977      796.955        0.438        0.148       75.636       19.651        0.068      345.327       22.779      863.052
09/23/2014  10:30:00       36.070       50.315       13.521       48.575       37.718       28.344     2359.499     1422.673      803.410        0.430        0.229       61.909       29.235        0.223      345.604       23.252      863.046
09/23/2014  10:31:00        5.314       21.689       35.441       21.424       23.487       18.913      458.970      551.659      357.710        0.156        0.068       22.331        7.717        0.119      345.943       23.836      863.033
09/23/2014  10:32:00       28.726        2.925        7.129       34.376       27.697       18.562     1181.698      767.103      344.540        0.159        0.115       28.875        8.875        0.094      345.827       23.636      863.043
09/23/2014  10:33:00       61.402       51.119        9.839       40.940       40.720       34.059     1676.062     1658.088     1159.994        0.549        0.225       79.896       18.440        0.053      345.691       23.403      863.051
09/23/2014  10:34:00       30.680       35.566       30.266       39.621       27.147       35.563     1569.851      736.938     1264.750        0.335        0.179       46.970       27.224        0.336      345.883       23.732      863.044
09/23/2014  10:35:00       89.558       56.173       25.757       41.140       34.905       43.369     1692.523     1218.376     1880.833        0.831        0.240      105.717       31.071        0.086      345.544       23.149      863.047
09/23/2014  10:36:00       80.401       18.539        6.237       43.552       38.622       29.215     1896.774     1491.635      853.530        0.554        0.212       82.510       20.016        0.059      345.484       23.047      863.032
09/23/2014  10:37:00       53.771       47.066        7.739       40.067       37.874       35.865     1605.399     1434.456     1286.327        0.475        0.216       71.460       20.592        0.083      345.509       23.090      862.996
09/23/2014  10:38:00       44.456       37.276       16.992       38.355       26.710       23.371     1471.081      713.432      546.225        0.319        0.137       58.016       14.022        0.058      345.597       23.240      862.986
09/23/2014  10:39:00       52.708       37.984       14.342       33.181       26.151       24.163     1100.958      683.876      583.867        0.340        0.118       64.969       18.290        0.079      345.698       23.415      862.987
09/23/2014  10:40:00       37.478       53.222        8.422       37.346       28.567       25.962     1394.736      816.099      674.027        0.360        0.144       65.093       10.115        0.024      345.516       23.102      862.999
09/23/2014  10:41:00       71.800       69.092       -8.071       32.202       32.315       29.078     1036.939     1044.235      845.533        0.646        0.146       99.644       23.805        0.057      345.421       22.938      863.011
09/23/2014  10:42:00        0.325       44.937       15.770       21.204       26.302       22.295      449.624      691.817      497.060        0.195        0.082       44.939        7.092        0.025      345.716       23.446      863.028
09/23/2014  10:43:00       13.153       50.511        4.425       19.955       38.132       22.825      398.195     1454.030      520.991        0.256        0.119       52.196       22.076        0.179      345.770       23.538      863.021
09/23/2014  10:44:00       85.850       58.153       14.877       28.563       32.525       26.829      815.855     1057.844      719.788        0.678        0.130      103.692       18.380        0.031      345.627       23.292      863.011
09/23/2014  10:45:00       48.750       53.092        3.446       29.002       30.701       24.835      841.131      942.523      616.766        0.380        0.120       72.079       20.981        0.085      345.629       23.297      863.000
09/23/2014  10:46:00       34.535       50.460       16.144       47.852       30.400       25.418     2289.813      924.184      646.060        0.393        0.193       61.146       19.932        0.106      345.919       23.795      862.982
09/23/2014  10:47:00       83.858       73.542       14.612       42.390       39.783       39.631     1796.910     1582.678     1570.643        0.880        0.248      111.538       27.436        0.061      345.667       23.360      862.964
09/23/2014  10:48:00       82.109       53.481       -3.759       38.172       39.822       23.674     1457.123     1585.784      560.455        0.661        0.180       97.990       15.773        0.026      345.558       23.175      862.965
09/23/2014  10:49:00       65.916       48.114       17.939       44.140       38.787       27.606     1948.305     1504.467      762.092        0.560        0.211       81.608       25.674        0.099      345.743       23.492      862.956
09/23/2014  10:50:00       97.729       42.353       -9.280       33.851       31.363       27.644     1145.917      983.641      764.176        0.716        0.145      106.511       19.837        0.035      345.503       23.079      862.945
09/23/2014  10:51:00       36.819       50.843       -4.320       37.750       26.499       19.516     1425.025      702.192      380.858        0.323        0.125       62.775        9.285        0.022      345.617       23.274      862.951
09/23/2014  10:52:00       -2.573       38.498       -8.636       19.197       24.597       17.732      368.534      605.019      314.413        0.143        0.064       38.584       12.757        0.109      345.863       23.700      862.962
09/23/2014  10:53:00      -33.207       22.230        5.403       29.412       27.824       16.363      865.050      774.168      267.748        0.177        0.095       39.961       19.088        0.228      346.102       24.109      862.952
09/23/2014  10:54:00       -9.568       61.605        0.488       25.593       32.752       21.432      654.991     1072.685      459.348        0.304        0.109       62.343       13.886        0.050      346.034       23.991      862.947
09/23/2014  10:55:00      -18.456       13.067        0.767       31.925       14.677       15.097     1019.199      215.422      227.922        0.099        0.073       22.614       16.125        0.508      345.885       23.736      862.937
09/23/2014  10:56:00        6.439       24.046        7.372       28.364       22.599       22.775      804.509      510.713      518.688        0.125        0.092       24.894       13.529        0.295      346.161       24.211      862.929
09/23/2014  10:57:00      -17.287        9.556       22.299       20.160       24.218       22.558      406.424      586.502      508.871        0.119        0.075       19.752       18.654        0.892      346.229       24.327      862.927
09/23/2014  10:58:00        2.754       16.935       13.914       28.747       21.463       23.038      826.418      460.661      530.746        0.115        0.091       17.157       18.987        1.225      346.042       24.006      862.913
09/23/2014  10:59:00       32.787       32.739       16.809       39.526       25.659       23.891     1562.299      658.379      570.794        0.261        0.140       46.334       23.792        0.264      345.966       23.873      862.890
09/23/2014  11:00:00       42.322       35.212       -5.064       17.338       17.523       14.066      300.591      307.044      197.847        0.193        0.040       55.055       10.852        0.039      345.714       23.440      862.873
09/23/2014  11:01:00       35.837       39.433       32.115       23.291       18.003       22.255      542.450      324.104      495.272        0.262        0.068       53.284        5.095        0.009      346.045       24.011      862.856
09/23/2014  11:02:00       47.145       46.766       43.501       41.474       29.291       24.773     1720.073      857.974      613.703        0.475        0.160       66.406       20.056        0.091      345.951       23.849      862.848
09/23/2014  11:03:00      -10.048      -11.572       25.110       31.508       35.622       29.840      992.759     1268.942      890.415        0.201        0.158       15.325       27.133        3.134      346.131       24.157      862.850
09/23/2014  11:04:00      -14.370      -17.697       -2.761       45.035       47.868       20.220     2028.180     2291.371      408.831        0.263        0.236       22.797       19.979        0.768      345.909       23.776      862.837
09/23/2014  11:05:00      -99.847      -10.194       -4.207       44.665       31.745       20.276     1994.971     1007.762      411.119        0.675        0.171      100.366       16.855        0.028      345.744       23.492      862.839
09/23/2014  11:06:00      -83.164       14.641      -11.106       30.221       32.199       20.751      913.333     1036.758      430.604        0.482        0.119       84.443       16.589        0.039      345.797       23.585      862.849
09/23/2014  11:07:00     -144.861      -55.515       -5.325       51.272       57.019       28.958     2628.859     3251.212      838.569        1.541        0.336      155.134       12.049        0.006      345.660       23.349      862.866
09/23/2014  11:08:00     -128.295      -33.338       -7.787       58.693       38.282       20.691     3444.869     1465.532      428.132        1.148        0.267      132.556       26.210        0.039      345.651       23.333      862.881
09/23/2014  11:09:00     -115.073      -38.456       -6.820       46.645       28.345       23.029     2175.763      803.451      530.329        0.914        0.175      121.329       23.998        0.039      345.592       23.233      862.876
09/23/2014  11:10:00      -44.101      -22.252       -5.984       31.093       27.115       15.026      966.784      735.225      225.771        0.220        0.096       49.397       15.019        0.092      345.634       23.305      862.867
09/23/2014  11:11:00      -66.969      -44.788        2.982       16.791       30.886       20.959      281.934      953.947      439.277        0.409        0.084       80.566       17.190        0.046      345.616       23.273      862.839
09/23/2014  11:12:00      -32.683       -7.281       -3.216       28.024       15.015       14.796      785.367      225.448      218.933        0.118        0.061       33.485       13.401        0.160      345.793       23.577      862.811
09/23/2014  11:13:00      -41.438      -16.112       -6.182       17.504       15.987        8.312      306.400      255.591       69.093        0.132        0.032       44.460        4.567        0.011      345.760       23.521      862.784
09/23/2014  11:14:00      -14.344        3.875       -5.002       12.820       23.729       12.785      164.362      563.063      163.445        0.057        0.045       14.858        8.811        0.352      345.963       23.868      862.757
09/23/2014  11:15:00      -17.439       57.393        2.184       24.230       25.626       20.010      587.069      656.691      400.409        0.262        0.082       59.984       13.452        0.050      346.103       24.110      862.730
09/23/2014  11:16:00      -38.358       22.270       -9.861       23.423       25.118       13.655      548.633      630.911      186.446        0.172        0.068       44.354        9.210        0.043      346.031       23.985      862.730
09/23/2014  11:17:00      -47.620      -37.125       -3.539       30.791       34.752       16.630      948.087     1207.695      276.542        0.304        0.122       60.381       15.575        0.067      345.917       23.790      862.726
09/23/2014  11:18:00       -2.604      -80.055       -5.739       30.644       18.506       16.994      939.074      342.476      288.781        0.401        0.079       80.098        9.310        0.014      345.757       23.516      862.713
09/23/2014  11:19:00      -23.200      -64.877       -5.598       26.509       18.432       20.127      702.707      339.742      405.101        0.311        0.072       68.900        6.100        0.008      345.735       23.479      862.702
09/23/2014  11:20:00      -70.118       -8.046      -26.624       32.302       21.680       20.047     1043.431      470.011      401.864        0.380        0.096       70.578       16.934        0.058      345.815       23.615      862.692
09/23/2014  11:21:00      -59.757        6.107      -11.257       33.220       20.545       20.598     1103.548      422.102      424.278        0.284        0.097       60.069       22.249        0.137      345.870       23.708      862.701
09/23/2014  11:22:00     -128.220        8.558      -21.212       55.633       18.193       17.771     3094.998      330.969      315.808        1.035        0.187      128.505       22.359        0.030      345.822       23.626      862.697
09/23/2014  11:23:00     -132.492       36.125       -9.283       42.777       50.207       34.057     1829.835     2520.765     1159.875        1.223        0.276      137.328       19.112        0.019      345.992       23.919      862.700
09/23/2014  11:24:00     -132.911        6.865      -17.269       61.104       52.043       33.371     3733.657     2708.470     1113.628        1.278        0.378      133.089       38.327        0.083      345.921       23.796      862.697
09/23/2014  11:25:00     -155.586       29.397      -20.461      104.742       59.682       33.911    10970.912     3561.986     1149.951        2.058        0.784      158.339       48.522        0.094      346.021       23.968      862.677
09/23/2014  11:26:00     -203.442     -101.380      -12.708       81.881       60.326       37.034     6704.544     3639.257     1371.516        3.177        0.586      227.303       32.482        0.020      345.973       23.882      862.658
09/23/2014  11:27:00     -215.249      -34.994       -8.174       61.520       45.584       35.702     3784.702     2077.939     1274.650        2.738        0.357      218.075       35.119        0.026      345.793       23.574      862.661
09/23/2014  11:28:00     -187.750       -4.916      -12.532       41.908       47.513       30.814     1756.292     2257.510      949.478        2.020        0.248      187.814       23.500        0.016      345.834       23.647      862.649
09/23/2014  11:29:00     -134.683      -32.098       -7.105       45.654       34.039       23.591     2084.260     1158.631      556.517        1.151        0.190      138.455       19.819        0.020      345.994       23.923      862.650
09/23/2014  11:30:00      -38.214      -48.186        7.707       43.755       42.983       30.537     1914.530     1847.578      932.523        0.427        0.235       61.499       27.959        0.207      346.205       24.285      862.655
09/23/2014  11:31:00      -44.694      -40.807       13.055       89.828       40.452       31.977     8069.091     1636.401     1022.529        0.728        0.536       60.520       33.167        0.300      346.290       24.431      862.629
09/23/2014  11:32:00     -157.241      -70.120       -7.360       35.921       42.628       28.011     1290.299     1817.155      784.593        1.679        0.195      172.168       15.513        0.008      345.931       23.814      862.627
09/23/2014  11:33:00     -105.659      -50.708      -12.697       37.624       56.002       26.867     1415.544     3136.211      721.850        0.958        0.264      117.197       18.795        0.026      345.989       23.914      862.610
09/23/2014  11:34:00      -78.407     -113.095      -14.847       49.017       39.837       24.884     2402.672     1587.000      619.236        1.188        0.230      137.615       23.821        0.030      345.938       23.827      862.595
09/23/2014  11:35:00     -112.983      -63.729        0.120       54.484       41.842       22.077     2968.488     1750.758      487.399        1.102        0.260      129.717       12.298        0.009      345.952       23.850      862.582
09/23/2014  11:36:00      -93.245      -46.385       -4.806       29.583       28.041       13.580      875.151      786.302      184.411        0.636        0.092      104.145        8.550        0.007      345.978       23.896      862.574
09/23/2014  11:37:00      -16.778      -28.842       -8.824       35.400       28.094       20.212     1253.153      789.260      408.506        0.182        0.123       33.367       11.708        0.123      346.321       24.484      862.586
09/23/2014  11:38:00      -19.269      -18.897       10.557       27.012       28.410       22.319      729.623      807.156      498.136        0.144        0.102       26.988        8.278        0.094      346.445       24.697      862.592
09/23/2014  11:39:00      -36.554        0.072       16.523       20.952       20.546       14.585      438.974      422.126      212.735        0.134        0.054       36.554        8.924        0.060      346.509       24.808      862.602
09/23/2014  11:40:00      -28.743        5.908       38.309       31.962       41.057       38.860     1021.581     1685.697     1510.100        0.327        0.211       29.344       32.781        1.248      346.738       25.202      862.603
09/23/2014  11:41:00      -16.483       21.448       49.022       31.213       37.505       36.647      974.283     1406.595     1343.032        0.343        0.186       27.050       30.844        1.300      346.653       25.056      862.583
09/23/2014  11:42:00      -33.788      -32.256      -10.468       29.575       50.161       31.163      874.679     2516.118      971.151        0.333        0.218       46.713       33.807        0.524      346.413       24.642      862.594
09/23/2014  11:43:00       -4.375      -47.415        8.850       36.184       49.041       31.282     1309.311     2404.986      978.543        0.352        0.235       47.616       26.371        0.307      346.501       24.794      862.586
09/23/2014  11:44:00       10.863       -5.750       40.797       36.760       61.230       36.895     1351.312     3749.081     1361.258        0.414        0.323       12.290       36.032        8.595      346.721       25.171      862.587
09/23/2014  11:45:00       -1.820       19.573        8.102       21.673       18.618       22.929      469.711      346.622      525.734        0.090        0.067       19.658       19.010        0.935      346.611       24.983      862.598
09/23/2014  11:46:00       19.039       45.369       52.725       36.303       27.788       22.576     1317.943      772.201      509.692        0.390        0.130       49.202       20.461        0.173      346.708       25.149      862.571
09/23/2014  11:47:00       30.105       39.857       63.651       34.043       33.209       21.990     1158.895     1102.824      483.556        0.465        0.137       49.949       18.213        0.133      346.858       25.408      862.553
09/23/2014  11:48:00       13.117       13.755       71.997       33.534       69.235       36.264     1124.553     4793.432     1315.044        0.639        0.362       19.007       37.938        3.984      346.824       25.349      862.535
09/23/2014  11:49:00       20.175      -16.716       28.589       51.122       41.469       35.680     2613.463     1719.703     1273.066        0.355        0.280       26.200       28.611        1.192      346.656       25.059      862.527
09/23/2014  11:50:00      -44.612      -48.447        8.508       32.380       39.510       29.627     1048.467     1561.060      877.773        0.395        0.174       65.859       23.122        0.123      346.762       25.242      862.512
09/23/2014  11:51:00      -41.737        3.654        2.466       35.198       20.660       17.699     1238.899      426.828      313.240        0.187        0.099       41.897       14.058        0.113      346.660       25.066      862.516
09/23/2014  11:52:00      -33.960       -7.680        6.525       24.551       19.816       11.530      602.775      392.689      132.949        0.119        0.056       34.818        6.034        0.030      346.619       24.998      862.507
09/23/2014  11:53:00      -37.079        5.629        3.560       23.797       23.309       19.748      566.276      543.296      389.985        0.146        0.075       37.504       20.732        0.306      346.624       25.006      862.512
09/23/2014  11:54:00        0.456      -18.217       19.608       30.694       50.936       25.647      942.129     2594.437      657.777        0.245        0.210       18.223       26.836        2.169      346.683       25.107      862.516
09/23/2014  11:55:00      -10.062       62.899       81.407       28.635       39.789       36.153      819.950     1583.143     1307.036        0.720        0.186       63.699       28.555        0.201      346.928       25.527      862.500
09/23/2014  11:56:00       53.641       39.120       68.152       56.484       46.448       43.368     3190.404     2157.390     1880.794        0.814        0.361       66.391       35.262        0.282      346.520       24.828      862.504
09/23/2014  11:57:00      -10.220      -41.293        9.836       22.315       32.526       23.865      497.978     1057.921      569.522        0.202        0.106       42.539       17.065        0.161      346.735       25.196      862.494
09/23/2014  11:58:00       -0.794      -36.891       17.694       19.499       32.203       27.568      380.201     1037.056      759.985        0.193        0.109       36.900       22.879        0.384      346.789       25.289      862.473
09/23/2014  11:59:00       16.409       10.099       23.349       29.142       41.941       31.210      849.251     1759.010      974.047        0.225        0.179       19.268       33.878        3.092      346.941       25.551      862.458
09/23/2014  12:00:00       75.784       54.949       27.244       72.469       63.157       52.078     5251.774     3988.861     2712.151        1.073        0.598       93.609       23.097        0.061      346.666       25.077      862.439
09/23/2014  12:01:00      139.942       90.110       43.503       57.733       51.215       48.744     3333.126     2622.967     2375.998        1.896        0.417      166.444       34.445        0.043      346.232       24.329      862.431
09/23/2014  12:02:00       86.678       72.377       55.251       51.170       33.687       35.318     2618.361     1134.800     1247.383        1.040        0.250      112.922       32.799        0.084      346.474       24.749      862.420
09/23/2014  12:03:00       36.134       65.655       58.100       37.307       43.970       19.280     1391.837     1933.387      371.710        0.634        0.185       74.942        9.976        0.018      346.572       24.916      862.428
09/23/2014  12:04:00        4.304       15.326       24.873       22.172       25.039       18.713      491.586      626.975      350.163        0.117        0.073       15.919       11.727        0.543      347.015       25.678      862.428
09/23/2014  12:05:00       -5.799       41.835       17.381       24.865       26.524       19.762      618.271      703.532      390.537        0.190        0.086       42.235       18.343        0.189      346.848       25.391      862.431
09/23/2014  12:06:00       40.909       34.504       11.979       44.390       27.468       35.059     1970.439      754.506     1229.111        0.348        0.198       53.517       22.664        0.179      346.692       25.123      862.410
09/23/2014  12:07:00      -35.871       -5.126      -28.517       34.036       23.003       30.307     1158.466      529.160      918.520        0.237        0.130       36.236       23.857        0.433      346.435       24.681      862.399
09/23/2014  12:08:00       10.552        9.582        2.163       28.340       25.827       31.545      803.140      667.047      995.057        0.134        0.123       14.254        8.980        0.397      346.781       25.276      862.390
09/23/2014  12:09:00      -23.780       25.531       -7.332       24.357       23.486       22.196      593.278      551.603      492.684        0.145        0.082       34.890       17.759        0.259      346.773       25.264      862.375
09/23/2014  12:10:00       67.501       42.028        9.844       32.735       32.310       25.806     1071.550     1043.941      665.947        0.460        0.139       79.516       18.002        0.051      346.621       25.000      862.377
09/23/2014  12:11:00       40.398       42.172        0.995       22.818       29.770       31.194      520.643      886.272      973.081        0.290        0.119       58.399       19.579        0.112      346.616       24.991      862.389
09/23/2014  12:12:00      -63.690       42.366      -17.636       34.452       31.309       16.622     1186.948      980.242      276.277        0.430        0.122       76.493       13.602        0.032      346.793       25.296      862.401
09/23/2014  12:13:00      -26.207       25.425       -0.555       32.643       21.146       27.093     1065.591      447.156      734.027        0.179        0.112       36.514       24.159        0.438      347.057       25.751      862.397
09/23/2014  12:14:00       -0.805       14.549        9.107       22.447       11.770       13.873      503.858      138.532      192.452        0.056        0.042       14.572        8.918        0.375      347.400       26.342      862.400
09/23/2014  12:15:00       27.790       48.318        9.980       35.799       37.053       32.878     1281.578     1372.900     1080.947        0.347        0.187       55.740       24.629        0.195      347.317       26.200      862.388
09/23/2014  12:16:00       41.548       36.642        0.184       25.275       19.793       15.001      638.802      391.774      225.024        0.216        0.063       55.398        7.497        0.018      346.923       25.520      862.383
09/23/2014  12:17:00       32.992       62.515        3.643       22.514       30.212       21.437      506.863      912.792      459.565        0.344        0.094       70.687       14.901        0.044      347.036       25.715      862.365
09/23/2014  12:18:00       42.624       26.515       19.419       34.379       25.696       25.531     1181.943      660.265      651.855        0.270        0.125       50.198       19.563        0.152      347.192       25.982      862.360
09/23/2014  12:19:00       49.199       32.301       45.237       47.535       32.197       32.402     2259.551     1036.615     1049.918        0.493        0.217       58.855       23.577        0.160      347.542       26.589      862.337
09/23/2014  12:20:00        7.172       23.551       32.563       39.109       29.024       33.631     1529.541      842.418     1131.031        0.258        0.175       24.619       15.494        0.396      347.613       26.709      862.328
09/23/2014  12:21:00       25.763       69.080       -8.307       46.309       40.130       36.526     2144.566     1610.454     1334.154        0.530        0.254       73.728       30.159        0.167      347.049       25.738      862.316
09/23/2014  12:22:00       -1.872       62.038        4.013       33.385       50.786       28.434     1114.532     2579.191      808.476        0.418        0.225       62.066       32.624        0.276      347.520       26.549      862.302
09/23/2014  12:23:00       17.193       78.011       17.704       64.154       58.787       46.981     4115.681     3455.953     2207.258        0.824        0.489       79.883       42.688        0.286      347.515       26.541      862.272
09/23/2014  12:24:00      104.446       48.503       16.923       72.469       59.579       40.207     5251.825     3549.654     1616.587        1.198        0.521      115.159       20.788        0.033      347.464       26.451      862.257
09/23/2014  12:25:00        8.674       13.827       14.342       37.767       33.779       22.534     1426.352     1141.020      507.783        0.177        0.154       16.322       10.630        0.424      347.764       26.970      862.244
09/23/2014  12:26:00       54.747       50.041        8.715       41.618       47.610       27.700     1732.061     2266.710      767.276        0.517        0.238       74.171       21.275        0.082      347.720       26.893      862.233
09/23/2014  12:27:00       85.296       73.500       13.128       66.070       42.089       37.621     4365.183     1771.522     1415.373        1.020        0.378      112.595       27.347        0.059      347.409       26.356      862.229
09/23/2014  12:28:00      159.093       86.462       13.062       47.937       54.966       42.878     2297.973     3021.296     1838.495        2.006        0.358      181.070       20.937        0.013      347.061       25.757      862.211
09/23/2014  12:29:00        7.075      218.010      -32.595       70.199       81.682       30.214     4927.850     6671.964      912.879        3.057        0.626      218.125       24.886        0.013      347.100       25.820      862.201
09/23/2014  12:30:00       -8.803      175.426      -16.116       32.147       56.830       33.331     1033.443     3229.645     1110.977        1.824        0.269      175.647       29.631        0.028      347.116       25.853      862.202
09/23/2014  12:31:00      -16.059       69.275       -1.290       30.593       48.184       30.084      935.947     2321.737      905.072        0.461        0.208       71.112       18.202        0.066      347.361       26.275      862.201
09/23/2014  12:32:00       -6.665      140.457      -11.113       30.751       70.031       37.948      945.636     4904.411     1440.053        1.359        0.365      140.615       28.407        0.041      347.173       25.949      862.195
09/23/2014  12:33:00      -34.401      101.258      -12.615       28.439       52.437       32.968      808.796     2749.654     1086.892        0.812        0.232      106.942       27.494        0.066      347.120       25.859      862.180
09/23/2014  12:34:00     -101.784       52.022      -22.170       28.205       24.923       21.634      795.531      621.137      468.046        0.772        0.094      114.308       14.394        0.016      346.899       25.480      862.159
09/23/2014  12:35:00       -9.115       20.947        1.196       28.599       34.979       28.701      817.891     1223.548      823.733        0.169        0.143       22.844       21.456        0.882      347.479       26.477      862.133
09/23/2014  12:36:00      -25.611      127.457       -6.650       50.147       83.217       37.229     2514.678     6925.148     1386.001        1.388        0.541      130.005       43.487        0.112      347.227       26.044      862.106
09/23/2014  12:37:00      -66.601       71.877      -23.360       29.391       41.813       20.706      863.845     1748.341      428.737        0.659        0.152       97.990       20.641        0.044      346.998       25.649      862.095
09/23/2014  12:38:00      -76.566       28.720      -12.806       30.298       31.316       22.321      917.986      980.671      498.242        0.462        0.120       81.775       12.671        0.024      347.010       25.670      862.077
09/23/2014  12:39:00      -51.416        2.659        1.881       35.269       23.691       18.969     1243.868      561.249      359.839        0.241        0.108       51.484       10.015        0.038      347.475       26.470      862.053
09/23/2014  12:40:00      -12.247       37.079       18.823       24.871       40.463       29.124      618.565     1637.232      848.181        0.249        0.155       39.049       25.231        0.417      348.388       28.048      862.042
09/23/2014  12:41:00      -66.240      132.068      -10.816       52.032       92.839       38.315     2707.291     8618.998     1468.069        1.737        0.640      147.749       29.921        0.041      347.497       26.509      862.029
09/23/2014  12:42:00      -57.218       61.061       -8.171       39.050       55.176       32.482     1524.891     3044.360     1055.081        0.635        0.281       83.681       22.642        0.073      347.711       26.878      862.014
09/23/2014  12:43:00      -43.867       64.425        4.347       40.110       36.696       30.301     1608.840     1346.595      918.174        0.498        0.194       77.942       20.153        0.067      347.846       27.112      862.007
09/23/2014  12:44:00      -10.293      113.939       -1.051       37.259       50.640       31.313     1388.205     2564.403      980.488        0.901        0.247      114.403       31.819        0.077      347.659       26.789      861.990
09/23/2014  12:45:00       -6.722        7.307       38.987       24.681       25.460       21.695      609.155      648.221      470.688        0.167        0.086        9.929       14.691        2.189      348.591       28.398      861.984
09/23/2014  12:46:00      -69.269       -5.222      -15.006       41.722       37.326       22.959     1740.710     1393.199      527.125        0.436        0.183       69.466       12.286        0.031      347.863       27.140      861.988
09/23/2014  12:47:00       33.562        5.509       15.941       39.799       31.211       29.023     1583.997      974.140      842.343        0.241        0.170       34.011       13.788        0.164      348.117       27.580      861.977
09/23/2014  12:48:00        3.489      -16.053       19.036       37.490       34.831       20.441     1405.513     1213.222      417.820        0.183        0.152       16.428       20.796        1.603      348.311       27.917      861.977
09/23/2014  12:49:00        0.655       -7.564        7.082       54.374       32.223       31.762     2956.516     1038.350     1008.821        0.255        0.250        7.592       26.572       12.249      348.133       27.608      861.977
09/23/2014  12:50:00      -43.681       19.163        1.512       53.072       46.928       31.102     2816.648     2202.214      967.305        0.413        0.299       47.700       37.081        0.604      347.859       27.136      861.976
09/23/2014  12:51:00       -2.259      -22.656      -16.285       36.594       38.702       20.912     1339.137     1497.843      437.324        0.203        0.164       22.768       22.090        0.941      347.239       26.065      861.976
09/23/2014  12:52:00      -14.248      -88.930       -2.739       24.485       50.775       16.683      599.497     2578.095      278.333        0.579        0.173       90.064       13.248        0.022      347.112       25.844      861.964
09/23/2014  12:53:00       -4.861      -13.854       -0.753       19.104       20.833       20.680      364.968      434.012      427.670        0.072        0.061       14.682       14.913        1.032      348.016       27.407      861.939
09/23/2014  12:54:00       -4.457        2.032       30.699       17.796       36.364       30.876      316.712     1322.356      953.343        0.178        0.130        4.899       30.404       38.522      348.603       28.419      861.916
09/23/2014  12:55:00        1.567       20.877       77.343       34.453       58.392       36.895     1186.985     3409.603     1361.220        0.619        0.298       20.936       36.199        2.990      348.212       27.745      861.892
09/23/2014  12:56:00       67.544       50.710       81.479       89.774       84.557       61.884     8059.420     7149.910     3829.610        1.640        0.952       84.461       55.955        0.439      347.857       27.130      861.871
09/23/2014  12:57:00       82.131       44.729       51.888       82.419       72.291       48.537     6792.848     5226.029     2355.804        1.290        0.719       93.521       42.711        0.209      347.725       26.902      861.850
09/23/2014  12:58:00      149.496      111.649       63.546       79.089       47.556       52.641     6254.995     2261.550     2771.064        2.507        0.564      186.587       36.285        0.038      347.814       27.054      861.836
09/23/2014  12:59:00      163.582       76.521       60.676      102.127       65.542       70.289    10429.840     4295.707     4940.499        2.798        0.983      180.595       55.056        0.093      347.774       26.985      861.809
09/23/2014  13:00:00       75.205      -21.207       34.531       66.860       74.290       52.451     4470.247     5519.012     2751.092        1.002        0.637       78.138       31.414        0.162      347.914       27.229      861.813
09/23/2014  13:01:00       73.682      -94.619        4.347       59.704       96.196       58.959     3564.581     9253.588     3476.221        1.534        0.815      119.924       60.392        0.254      347.656       26.781      861.813
09/23/2014  13:02:00       35.321      -31.594       51.884       45.053       66.370       44.483     2029.735     4404.936     1978.778        0.667        0.421       47.389       36.066        0.579      347.926       27.249      861.820
09/23/2014  13:03:00       70.086      -42.772       12.105       79.347       94.715       56.742     6295.891     8970.859     3219.657        1.268        0.924       82.107       52.363        0.407      347.913       27.226      861.809
09/23/2014  13:04:00       73.973      -60.593       23.055       76.098      133.755       77.169     5790.905    17890.421     5954.993        1.965        1.482       95.621       89.509        0.876      347.934       27.262      861.811
09/23/2014  13:05:00       65.217      -55.335       23.687       49.997       84.873       50.577     2499.689     7203.404     2558.000        1.007        0.613       85.529       56.302        0.433      347.819       27.064      861.813
09/23/2014  13:06:00       16.255       13.709       70.585       33.035       36.474       27.803     1091.340     1330.331      773.010        0.431        0.160       21.264       24.816        1.362      348.380       28.034      861.787
09/23/2014  13:07:00        9.867       25.311       41.499       27.716       27.968       19.404      768.197      782.210      376.528        0.219        0.096       27.166        8.843        0.106      348.331       27.949      861.777
09/23/2014  13:08:00      -13.959        1.236       48.113       33.229       42.165       44.212     1104.156     1777.886     1954.659        0.367        0.242       14.014       35.399        6.381      348.645       28.492      861.746
09/23/2014  13:09:00      -30.930      -19.846        5.795       50.490       36.323       35.217     2549.208     1319.352     1240.246        0.325        0.255       36.750       26.550        0.522      348.094       27.540      861.735
09/23/2014  13:10:00       27.012      -23.860       36.918       55.024       58.901       56.488     3027.631     3469.285     3190.853        0.617        0.484       36.041       31.810        0.779      348.285       27.870      861.708
09/23/2014  13:11:00       40.779      -58.595        1.707       42.707       62.936       44.699     1823.877     3960.979     1997.980        0.644        0.389       71.389       39.591        0.308      347.863       27.140      861.708
09/23/2014  13:12:00       22.930      -43.054       41.553       48.823       78.358       53.651     2383.696     6140.011     2878.382        0.775        0.570       48.780       50.474        1.071      348.299       27.894      861.690
09/23/2014  13:13:00       23.938      -28.970       29.125       41.558       64.158       35.086     1727.103     4116.245     1231.026        0.467        0.354       37.581       27.555        0.538      348.308       27.911      861.671
09/23/2014  13:14:00       96.853       85.646       52.435       63.993       56.820       44.470     4095.106     3228.509     1977.587        1.438        0.465      129.289       29.995        0.054      348.002       27.380      861.656
09/23/2014  13:15:00       91.818       53.883       34.041       86.868       66.962       55.861     7546.037     4483.952     3120.398        1.382        0.758      106.461       48.025        0.203      348.014       27.400      861.631
09/23/2014  13:16:00       96.996       45.394       -2.256       63.611       36.776       41.617     4046.389     1352.490     1731.992        0.930        0.357      107.092       15.232        0.020      347.934       27.262      861.618
09/23/2014  13:17:00       39.310       32.410       22.310       52.704       35.895       30.042     2777.745     1288.418      902.546        0.403        0.248       50.948       18.708        0.135      348.233       27.780      861.615
09/23/2014  13:18:00      128.725       55.234        3.810       68.221       52.003       48.332     4654.137     2704.350     2335.980        1.466        0.485      140.075       22.423        0.026      347.738       26.924      861.608
09/23/2014  13:19:00       36.905       68.210        5.389       61.050       41.572       26.939     3727.096     1728.223      725.695        0.611        0.309       77.554       15.722        0.041      348.012       27.398      861.605
09/23/2014  13:20:00       89.160       33.491       17.558       39.039       39.899       31.818     1524.006     1591.899     1012.385        0.675        0.206       95.243       17.493        0.034      348.151       27.638      861.591
09/23/2014  13:21:00       70.855       55.550       51.243       66.147       53.602       46.477     4375.409     2873.142     2160.094        1.007        0.470       90.034       36.926        0.168      348.090       27.534      861.584
09/23/2014  13:22:00        0.798       43.548       35.067       35.129       36.488       41.210     1234.031     1331.338     1698.254        0.369        0.213       43.556       29.550        0.460      348.149       27.635      861.584
09/23/2014  13:23:00       30.915      -39.143       58.929       71.889      137.949       65.979     5168.023    19030.060     4353.239        1.725        1.428       49.879       89.052        3.187      348.015       27.401      861.595
09/23/2014  13:24:00       94.411      -41.422       36.140       59.529       67.333       51.621     3543.708     4533.732     2664.773        1.134        0.537      103.098       36.858        0.128      347.844       27.106      861.582
09/23/2014  13:25:00      100.685       63.453      114.315      109.539      114.638       85.017    11998.877    13141.897     7227.840        2.979        1.618      119.012       76.047        0.408      347.930       27.253      861.536
09/23/2014  13:26:00       75.143      -24.628       58.525      100.096      134.896       98.955    10019.140    18197.010     9792.085        2.384        1.900       79.076      115.943        2.150      347.828       27.077      861.547
09/23/2014  13:27:00       57.565      -69.803       25.726       52.006      108.269       52.194     2704.664    11722.268     2724.183        1.300        0.858       90.477       66.686        0.543      347.881       27.172      861.530
09/23/2014  13:28:00       35.242     -127.298      -11.733       50.822       63.277       38.075     2582.920     4004.016     1449.669        1.281        0.402      132.087       41.094        0.097      347.837       27.095      861.511
09/23/2014  13:29:00      159.675     -200.302      -25.836      131.344      128.710       72.369    17251.215    16566.162     5237.341        5.266        1.953      256.158       84.657        0.109      347.700       26.856      861.494
09/23/2014  13:30:00       28.973      -81.734       20.297       51.149       77.286       66.039     2616.226     5973.171     4361.126        1.044        0.648       86.718       54.110        0.389      347.922       27.243      861.510
09/23/2014  13:31:00       19.143      -17.744       44.562       41.146       62.934       40.612     1692.987     3960.684     1649.302        0.498        0.365       26.102       40.461        2.403      347.995       27.369      861.510
09/23/2014  13:32:00       55.356      -94.794        3.266       50.472       79.449       42.059     2547.432     6312.113     1768.958        1.134        0.531      109.773       46.543        0.180      348.000       27.377      861.496
09/23/2014  13:33:00      -10.724      -78.661        6.110       45.672       50.584       32.852     2085.904     2558.730     1079.282        0.603        0.286       79.388       30.851        0.151      348.084       27.521      861.496
09/23/2014  13:34:00      -15.509      -96.357      -11.182       39.471       50.632       36.617     1557.952     2563.577     1340.796        0.756        0.273       97.597       14.024        0.021      347.922       27.244      861.487
09/23/2014  13:35:00        7.383      -88.851       37.212       49.881       72.440       52.375     2488.085     5247.623     2743.093        0.990        0.524       89.157       37.504        0.177      348.231       27.777      861.472
09/23/2014  13:36:00       10.241      -31.462        9.508       51.312       48.856       41.294     2632.924     2386.895     1705.168        0.395        0.336       33.087       40.703        1.513      348.204       27.731      861.457
09/23/2014  13:37:00      -43.060      -44.776        1.159       41.795       40.428       30.743     1746.798     1634.419      945.109        0.409        0.216       62.122       27.166        0.191      348.415       28.094      861.441
09/23/2014  13:38:00     -107.741      -41.957        7.699       74.188       51.286       32.629     5503.844     2630.253     1064.652        1.131        0.460      115.622       31.208        0.073      348.230       27.775      861.424
09/23/2014  13:39:00     -114.518      -61.369        3.569       81.849       48.000       31.229     6699.284     2303.978      975.244        1.343        0.499      129.925       30.024        0.053      348.017       27.405      861.402
09/23/2014  13:40:00      -96.510      -91.370        3.092       53.088       56.055       34.608     2818.381     3142.155     1197.723        1.241        0.358      132.901       30.899        0.054      347.910       27.220      861.390
09/23/2014  13:41:00      -99.349      -41.633      -10.999       45.965       35.483       23.041     2112.819     1259.027      530.867        0.781        0.195      107.720       24.595        0.052      347.837       27.097      861.381
09/23/2014  13:42:00      -15.189      -20.219       21.195       27.859       36.921       20.196      776.112     1363.184      407.894        0.182        0.127       25.289       10.574        0.175      348.761       28.694      861.360
09/23/2014  13:43:00        4.879      -25.736       19.250       35.064       50.754       34.185     1229.488     2575.994     1168.636        0.301        0.249       26.195       27.623        1.112      348.541       28.312      861.346
09/23/2014  13:44:00       40.376      -52.209       27.238       50.599       88.914       51.828     2560.298     7905.772     2686.097        0.912        0.658       66.000       54.031        0.670      348.516       28.268      861.325
09/23/2014  13:45:00       77.737     -108.647       -4.805       72.279       85.030       40.084     5224.263     7230.058     1606.689        1.596        0.703      133.594       47.085        0.124      348.060       27.481      861.313
09/23/2014  13:46:00        2.329      -72.717       12.066       69.553       64.997       50.330     4837.627     4224.642     2533.085        0.852        0.580       72.754       36.326        0.249      348.404       28.077      861.294
09/23/2014  13:47:00       23.063     -128.278      -11.464       86.496      131.977       54.281     7481.513    17417.871     2946.413        2.248        1.392      130.334       71.232        0.299      348.299       27.892      861.279
09/23/2014  13:48:00       84.009     -184.774      -42.456       75.126       89.887       52.483     5643.979     8079.611     2754.426        2.974        0.824      202.976       46.633        0.053      348.036       27.437      861.260
09/23/2014  13:49:00      -47.024      -89.622       19.937       84.977       63.677       49.007     7221.109     4054.741     2401.724        1.216        0.684      101.209       28.557        0.080      348.207       27.735      861.260
09/23/2014  13:50:00       69.887        4.495       44.320       44.484       61.779       37.607     1978.851     3816.620     1414.258        0.704        0.360       70.032       23.262        0.110      347.953       27.295      861.272
09/23/2014  13:51:00        1.272       44.631      -15.898       27.535       42.214       24.676      758.172     1781.987      608.915        0.270        0.157       44.649       18.775        0.177      347.925       27.247      861.238
09/23/2014  13:52:00       12.157       22.950        1.046       17.756       26.352       13.443      315.292      694.432      180.714        0.093        0.060       25.971        4.938        0.036      348.009       27.392      861.226
09/23/2014  13:53:00      -24.641      -12.231       -1.641       26.251       26.800       19.706      689.139      718.220      388.343        0.128        0.090       27.509       11.152        0.164      348.422       28.107      861.207
09/23/2014  13:54:00       -8.331      -24.354        6.495       52.609       35.953       29.547     2767.742     1292.593      873.050        0.282        0.247       25.740       26.337        1.047      348.647       28.497      861.208
09/23/2014  13:55:00       17.211      -70.785       -5.333       38.235       43.636       27.481     1461.890     1904.111      755.223        0.473        0.206       72.847       26.597        0.133      348.511       28.260      861.199
09/23/2014  13:56:00       21.616      -94.708      -14.281       79.120       39.686       29.364     6260.014     1574.950      862.242        0.917        0.435       97.144       25.548        0.069      348.411       28.088      861.195
09/23/2014  13:57:00     -109.262      -65.831        3.160       59.469       50.844       34.262     3536.518     2585.128     1173.917        1.179        0.365      127.562       25.846        0.041      348.279       27.858      861.189
09/23/2014  13:58:00      -60.519     -229.491        6.429       63.886      115.676       39.660     4081.412    13380.981     1572.892        3.770        0.952      237.337       36.716        0.024      348.068       27.493      861.176
09/23/2014  13:59:00      -99.277      -94.149        8.897       72.252       56.583       33.116     5220.375     3201.660     1096.687        1.416        0.476      136.821       34.629        0.064      348.195       27.713      861.160
09/23/2014  14:00:00      -57.187      -80.428      -13.305       26.735       31.843       13.214      714.779     1013.978      174.609        0.591        0.095       98.686       10.482        0.011      347.716       26.885      861.157
09/23/2014  14:01:00      -21.462      -42.095      -21.379       35.090       16.666       19.702     1231.306      277.760      388.155        0.229        0.095       47.250       12.708        0.072      348.133       27.606      861.139
09/23/2014  14:02:00       47.651      -31.359        6.787       67.039       87.339       45.761     4494.174     7628.137     2094.107        0.876        0.711       57.044       52.333        0.842      348.371       28.018      861.123
09/23/2014  14:03:00       38.563       42.786       88.139       71.696       81.720       47.804     5140.386     6678.186     2285.253        1.259        0.705       57.600       52.072        0.817      348.470       28.189      861.105
09/23/2014  14:04:00       17.763       -9.556       31.784       95.011       60.316       49.872     9027.114     3638.053     2487.178        0.828        0.758       20.170       39.751        3.884      348.452       28.158      861.080
09/23/2014  14:05:00       19.529       -2.506       66.065       52.040       74.428       51.041     2708.196     5539.492     2605.232        0.780        0.543       19.689       33.358        2.870      348.701       28.590      861.052
09/23/2014  14:06:00        9.559      -90.212       12.119       73.320       72.877       60.754     5375.764     5311.107     3691.031        1.137        0.719       90.717       44.487        0.240      348.487       28.218      861.037
09/23/2014  14:07:00       71.928      -20.562       21.162       60.091       67.401       53.082     3610.987     4542.950     2817.654        0.851        0.549       74.809       44.822        0.359      348.434       28.128      861.024
09/23/2014  14:08:00       77.842      -45.598       36.066       60.981       74.838       43.926     3718.677     5600.771     1929.515        1.034        0.562       90.214       52.377        0.337      348.227       27.770      861.007
09/23/2014  14:09:00       23.879       26.900       80.161       52.896       56.753       45.492     2797.941     3220.896     2069.564        0.790        0.404       35.970       30.238        0.707      348.425       28.113      860.979
09/23/2014  14:10:00       57.778       -2.227       43.303       48.354       55.604       44.614     2338.075     3091.753     1990.376        0.632        0.371       57.821       37.911        0.430      348.369       28.015      860.967
09/23/2014  14:11:00       96.586       53.517       35.072       50.631       50.998       43.883     2563.463     2600.780     1925.701        1.026        0.354      110.422       34.656        0.099      347.944       27.281      860.942
09/23/2014  14:12:00       91.868       59.934        3.117       60.045       48.404       26.738     3605.429     2342.929      714.894        0.935        0.333      109.690       12.181        0.012      348.068       27.494      860.915
09/23/2014  14:13:00       56.676       57.509       46.473       59.275       40.525       42.586     3513.501     1642.259     1813.574        0.782        0.348       80.744       36.768        0.207      348.392       28.055      860.891
09/23/2014  14:14:00       -2.310       46.839       95.601       50.710       54.595       45.098     2571.538     2980.559     2033.789        0.946        0.379       46.896       41.097        0.768      348.703       28.592      860.882
09/23/2014  14:15:00       13.591       14.720       25.615       37.127       23.277       21.203     1378.386      541.807      449.563        0.171        0.118       20.035       16.649        0.691      348.549       28.327      860.895
09/23/2014  14:16:00       31.311      -64.136      -11.695       25.438       22.170       21.892      647.115      491.502      479.267        0.342        0.081       71.371       16.289        0.052      348.394       28.058      860.896
09/23/2014  14:17:00      -30.094      -25.458       -0.508       50.184       23.786       20.576     2518.456      565.771      423.384        0.253        0.175       39.418       16.792        0.181      348.815       28.787      860.897
09/23/2014  14:18:00      -74.565        3.349       -2.705       60.649       37.997       29.300     3678.316     1443.805      858.493        0.578        0.299       74.640       27.516        0.136      348.937       28.997      860.898
09/23/2014  14:19:00      -88.632      -39.990       -1.530       55.890       42.157       24.460     3123.693     1777.210      598.271        0.748        0.275       97.236       22.263        0.052      348.641       28.484      860.914
09/23/2014  14:20:00     -106.903      -54.359       -0.369       54.565       37.087       27.931     2977.385     1375.464      780.122        0.976        0.257      119.930       23.150        0.037      348.509       28.257      860.903
09/23/2014  14:21:00      -94.941     -115.264        2.027       40.203       47.702       35.463     1616.299     2275.471     1257.633        1.373        0.257      149.330       25.191        0.028      348.383       28.039      860.913
09/23/2014  14:22:00      -14.831      -54.547       40.114       80.924      139.253       52.397     6548.639    19391.473     2745.447        1.674        1.434       56.527       76.095        1.812      348.506       28.252      860.906
09/23/2014  14:23:00      -37.815        0.353       26.889       99.767       80.285       42.330     9953.504     6445.662     1791.857        1.017        0.910       37.817       48.684        1.657      348.796       28.752      860.866
09/23/2014  14:24:00     -372.859       50.608      -31.722      107.848       65.401       49.436    11631.247     4277.308     2443.947        8.047        0.918      376.278       56.101        0.022      348.435       28.126      860.862
09/23/2014  14:25:00     -120.374      -26.014      -15.245      125.011       55.488       33.804    15627.716     3078.970     1142.719        1.762        0.992      123.153       50.470        0.168      348.427       28.113      860.844
09/23/2014  14:26:00     -171.591      -91.629       -5.166      127.823       78.975       41.192    16338.831     6237.027     1696.749        3.107        1.214      194.523       44.521        0.052      348.769       28.704      860.834
09/23/2014  14:27:00     -335.710      -45.728      -15.356      138.230      112.126       53.485    19107.501    12572.139     2860.673        7.478        1.727      338.810       59.547        0.031      348.724       28.626      860.819
09/23/2014  14:28:00     -436.581      -41.492      -31.057      118.601       91.213       56.137    14066.282     8319.841     3151.390       10.941        1.277      438.549       61.983        0.020      348.369       28.011      860.775
09/23/2014  14:29:00     -177.082        4.092       -7.159      137.072       87.259       66.932    18788.779     7614.107     4479.891        3.115        1.544      177.130       60.992        0.119      348.757       28.685      860.770
09/23/2014  14:30:00     -245.410      -27.704       -3.235      149.135       86.309       55.320    22241.290     7449.178     3060.358        4.687        1.638      246.968       72.102        0.085      348.661       28.518      860.777
09/23/2014  14:31:00     -218.035      -25.785       -2.383      100.616      128.377       45.344    10123.627    16480.762     2056.091        3.843        1.433      219.554       55.789        0.065      348.897       28.925      860.768
09/23/2014  14:32:00     -299.212     -205.353      -20.254      156.468      140.387       67.550    24482.282    19708.623     4562.993        9.042        2.438      362.902       70.135        0.037      348.584       28.383      860.759
09/23/2014  14:33:00     -145.974     -103.993        0.630       89.614      117.455       47.197     8030.733    13795.689     2227.517        2.808        1.203      179.228       48.026        0.072      348.457       28.164      860.774
09/23/2014  14:34:00     -130.102      -66.922        7.159       76.073      101.169       44.605     5787.174    10235.251     1989.597        1.973        0.901      146.304       50.154        0.118      348.523       28.280      860.770
09/23/2014  14:35:00     -180.620      -92.997      -19.077       56.677       43.725       31.201     3212.264     1911.873      973.483        2.387        0.305      203.155       23.734        0.014      348.347       27.975      860.764
09/23/2014  14:36:00      -48.124       -3.742       10.438       56.793       64.848       38.942     3225.432     4205.260     1516.490        0.569        0.447       48.269       36.926        0.585      348.990       29.090      860.740
09/23/2014  14:37:00      -21.723      -55.832        0.564       51.334      141.541       32.838     2635.145    20033.990     1078.350        1.366        1.187       59.909       32.287        0.290      348.687       28.565      860.720
09/23/2014  14:38:00      -69.909      -69.597        6.762       96.117       76.796       52.263     9238.421     5897.554     2731.404        1.382        0.893       98.645       54.575        0.306      348.899       28.931      860.714
09/23/2014  14:39:00     -123.617     -224.223        5.749       91.143      116.476       45.734     8307.033    13566.565     2091.588        4.477        1.198      256.041       41.052        0.026      348.566       28.353      860.716
09/23/2014  14:40:00      -95.699      -65.540       14.276       90.398       86.387       44.143     8171.821     7462.657     1948.601        1.562        0.879      115.991       48.656        0.176      348.811       28.777      860.710
09/23/2014  14:41:00     -282.889     -139.962       -0.321      117.938      113.834       59.218    13909.325    12958.201     3506.760        6.499        1.519      315.619       45.879        0.021      348.683       28.554      860.705
09/23/2014  14:42:00     -207.276      -56.188      -10.032       79.027       68.057       43.001     6245.330     4631.721     1849.110        2.947        0.636      214.756       34.875        0.026      348.629       28.461      860.690
09/23/2014  14:43:00     -172.103      -71.049      -14.665      114.522       83.583       45.241    13115.370     6986.110     2046.737        2.851        1.107      186.192       50.245        0.073      348.737       28.648      860.693
09/23/2014  14:44:00     -300.080      -89.589      -26.652      102.952      105.996       45.716    10599.032    11235.218     2089.946        6.135        1.196      313.168       44.191        0.020      348.647       28.492      860.682
09/23/2014  14:45:00     -290.527      -69.542       -1.193      130.296      102.212       64.319    16977.095    10447.394     4136.991        6.040        1.578      298.734       70.981        0.056      348.756       28.681      860.633
09/23/2014  14:46:00     -170.459     -128.014       -7.065       65.788      107.162       42.922     4328.111    11483.675     1842.309        3.157        0.883      213.176       40.787        0.037      348.748       28.667      860.643
09/23/2014  14:47:00     -166.624     -162.146        4.617      120.190      119.293       58.496    14445.694    14230.856     3421.833        4.308        1.605      232.497       58.064        0.062      348.972       29.056      860.626
09/23/2014  14:48:00     -215.466     -129.120      -29.209       92.140      120.162       40.899     8489.797    14438.801     1672.739        4.427        1.230      251.192       23.880        0.009      348.818       28.787      860.616
09/23/2014  14:49:00     -201.997     -143.076       -7.803       91.819       65.694       45.793     8430.701     4315.746     2097.007        3.809        0.742      247.535       51.826        0.044      348.952       29.020      860.615
09/23/2014  14:50:00     -221.199     -180.583        0.258      137.528      111.908       81.929    18913.933    12523.404     6712.425        5.984        1.907      285.550       75.340        0.070      348.941       29.001      860.612
09/23/2014  14:51:00     -341.162     -135.864        2.179      147.864      116.607       63.960    21863.625    13597.203     4090.931        8.720        1.978      367.220       73.325        0.040      348.998       29.099      860.588
09/23/2014  14:52:00     -184.231     -175.139        8.746      172.487      140.322       77.178    29751.705    19690.178     5956.483        6.004        2.770      254.194       69.502        0.075      348.969       29.051      860.569
09/23/2014  14:53:00     -238.543     -176.369       15.063      232.384      141.861       81.432    54002.437    20124.587     6631.153        8.448        4.038      296.663       88.736        0.089      348.982       29.072      860.575
09/23/2014  14:54:00     -298.760     -109.077       12.771      230.523      148.532       89.232    53140.648    22061.676     7962.292        9.223        4.158      318.049       98.977        0.097      348.953       29.024      860.552
09/23/2014  14:55:00     -294.397     -179.740        3.187      225.308      147.702       75.481    50763.721    21815.859     5697.309        9.862        3.914      344.929       80.142        0.054      348.962       29.038      860.570
09/23/2014  14:56:00     -194.018     -137.961        0.374      143.472      179.949       66.402    20584.229    32381.747     4409.214        5.702        2.869      238.067       52.275        0.048      348.844       28.832      860.544
09/23/2014  14:57:00     -270.139     -221.849      -15.682      142.691      136.327       70.537    20360.647    18585.065     4975.489        8.317        2.196      349.560       67.356        0.037      348.814       28.779      860.541
09/23/2014  14:58:00     -296.308     -175.543       10.777      133.617      134.727       68.462    17853.506    18151.342     4687.061        7.970        2.035      344.404       68.551        0.040      348.954       29.025      860.522
09/23/2014  14:59:00     -227.814     -139.006        2.963      127.303       84.366       55.926    16206.122     7117.581     3127.729        4.884        1.323      266.874       62.783        0.055      349.032       29.160      860.538
09/23/2014  15:00:00     -217.836      -95.473        1.726      211.699      109.686       63.970    44816.318    12030.941     4092.129        5.874        3.047      237.840       72.453        0.093      349.064       29.216      860.559
09/23/2014  15:01:00     -310.623     -210.354        6.557      164.916      114.516       78.801    27197.342    13113.964     6209.675        9.364        2.326      375.147       74.480        0.039      348.655       28.506      860.536
09/23/2014  15:02:00      -94.921     -108.875       -2.052      121.343       89.977       55.048    14724.142     8095.876     3030.271        2.335        1.293      144.444       55.843        0.149      348.609       28.429      860.548
09/23/2014  15:03:00      -93.167      -79.154       12.458      131.131       87.924       50.907    17195.339     7730.554     2591.561        2.130        1.376      122.252       49.060        0.161      348.738       28.652      860.511
09/23/2014  15:04:00     -121.863     -190.220       -3.814       86.306      107.709       44.009     7448.693    11601.236     1936.831        3.601        1.049      225.908       51.051        0.051      348.587       28.389      860.510
09/23/2014  15:05:00     -179.452     -138.111      -11.290      119.272       89.136       39.876    14225.720     7945.296     1590.061        3.758        1.188      226.446       43.602        0.037      348.727       28.631      860.509
09/23/2014  15:06:00     -173.071     -156.092      -10.916      108.988      118.917       47.294    11878.282    14141.216     2236.745        4.134        1.413      233.063       51.846        0.049      348.717       28.614      860.495
09/23/2014  15:07:00     -185.552     -365.262      -16.618      128.558      176.717       68.915    16527.047    31228.928     4749.277       11.030        2.625      409.690       58.835        0.021      348.731       28.637      860.462
09/23/2014  15:08:00     -311.467     -178.394       -3.794      209.114      145.035       77.138    43728.475    21035.137     5950.238        9.977        3.536      358.937       89.205        0.062      348.825       28.802      860.473
09/23/2014  15:09:00     -253.795     -150.935      -25.004      142.579      130.464       58.138    20328.749    17020.755     3380.027        6.427        2.036      295.285       72.802        0.061      348.626       28.457      860.467
09/23/2014  15:10:00     -318.436     -145.369       -6.795      117.533      113.665       56.584    13813.947    12919.693     3201.733        7.625        1.497      350.048       61.423        0.031      348.667       28.526      860.471
09/23/2014  15:11:00     -103.867     -122.656       17.642      107.008      124.230       54.208    11450.798    15433.153     2938.475        2.798        1.491      160.726       56.152        0.122      348.735       28.645      860.477
09/23/2014  15:12:00     -189.043      -92.925       13.339      115.492       99.962       52.542    13338.397     9992.401     2760.696        3.532        1.305      210.648       55.102        0.068      348.795       28.750      860.468
09/23/2014  15:13:00     -325.130     -228.212       -0.151      232.917      123.917       84.360    54250.252    15355.514     7116.689       11.724        3.836      397.228      113.394        0.081      348.530       28.290      860.453
09/23/2014  15:14:00     -407.428     -169.710      -18.274      166.617      114.494       68.393    27761.367    13108.828     4677.561       12.033        2.277      441.361       80.326        0.033      348.496       28.232      860.428
09/23/2014  15:15:00     -254.284     -126.885       -5.139      129.365       94.006       54.803    16735.340     8837.084     3003.422        5.468        1.429      284.184       60.495        0.045      348.690       28.566      860.434
09/23/2014  15:16:00     -315.109      -88.402      -18.114      147.605      131.593       69.011    21787.300    17316.747     4762.541        7.564        2.193      327.275       70.925        0.047      348.801       28.760      860.417
09/23/2014  15:17:00      -77.482        1.428        9.068      123.847      107.241       60.321    15338.017    11500.720     3638.664        1.828        1.524       77.495       34.278        0.196      349.046       29.185      860.409
09/23/2014  15:18:00     -204.829     -207.816        9.428      181.524      135.862       78.314    32950.807    18458.525     6133.024        7.138        2.877      291.792       89.405        0.094      348.819       28.789      860.422
09/23/2014  15:19:00     -282.159     -118.353      -12.255      174.517       88.099       74.570    30456.091     7761.466     5560.627        6.877        2.189      305.975       74.739        0.060      348.642       28.483      860.411
09/23/2014  15:20:00     -393.259     -188.191       -6.563      158.221      188.575       86.611    25033.870    35560.655     7501.537       12.909        3.405      435.968       84.060        0.037      348.483       28.208      860.399
09/23/2014  15:21:00     -260.097     -137.779        4.747      158.514      133.457       65.150    25126.642    17810.708     4244.458        6.691        2.359      294.336       58.577        0.040      348.635       28.471      860.407
09/23/2014  15:22:00     -479.989     -192.923      -32.148      147.187      129.358       71.556    21663.964    16733.384     5120.297       15.607        2.176      517.309       67.587        0.017      348.515       28.263      860.360
09/23/2014  15:23:00     -287.814     -217.171       -2.614      167.520      148.224       87.625    28063.027    21970.322     7678.140        9.385        2.886      360.555       98.903        0.075      348.625       28.453      860.349
09/23/2014  15:24:00     -207.598     -194.099       -4.289      108.472      106.236       53.884    11766.117    11286.168     2903.470        5.337        1.298      284.204       55.520        0.038      348.612       28.432      860.355
09/23/2014  15:25:00     -164.943     -112.993       -3.955      102.611       76.359       60.999    10529.078     5830.664     3720.907        3.003        1.004      199.935       61.670        0.095      348.747       28.664      860.367
09/23/2014  15:26:00     -157.418      -93.475        7.668      107.620       81.257       35.980    11582.033     6602.625     1294.565        2.652        0.974      183.079       41.052        0.050      348.783       28.729      860.365
09/23/2014  15:27:00      -13.330        4.913       25.213       91.497      100.174       43.381     8371.751    10034.929     1881.878        1.056        1.014       14.207       37.212        6.861      348.938       28.999      860.347
09/23/2014  15:28:00     -226.274      -85.917       -2.371      126.091      133.695       66.687    15899.021    17874.412     4447.107        4.840        1.911      242.037       66.535        0.076      348.935       28.990      860.344
09/23/2014  15:29:00     -370.591     -136.787       -6.680      189.815      100.154       58.086    36029.684    10030.748     3373.970       10.276        2.472      395.030       72.781        0.034      348.829       28.807      860.325
09/23/2014  15:30:00     -241.424     -196.441       -3.864      156.222      145.833       75.726    24405.158    21267.399     5734.471        7.414        2.570      311.246       59.333        0.036      348.776       28.716      860.327
09/23/2014  15:31:00     -348.649      -56.643       -6.403      182.948      121.584       67.398    33470.009    14782.572     4542.530        8.879        2.640      353.220       78.874        0.050      348.795       28.747      860.331
09/23/2014  15:32:00     -239.996      -62.940        1.262      163.667       99.318       59.048    26786.992     9864.095     3486.671        5.084        2.007      248.112       72.827        0.086      348.789       28.739      860.335
09/23/2014  15:33:00     -222.098      -29.734       18.483      139.170      147.164       73.052    19368.369    21657.336     5336.634        4.845        2.318      224.080       71.352        0.101      348.770       28.706      860.313
09/23/2014  15:34:00     -349.429     -128.241       -1.375      165.221      102.052       59.885    27297.854    10414.526     3586.268        8.992        2.065      372.218       67.379        0.033      348.580       28.376      860.315
09/23/2014  15:35:00     -134.493      -16.691       -2.011       88.657       92.784       45.868     7860.038     8608.935     2103.850        1.847        0.929      135.524       48.237        0.127      348.794       28.748      860.305
09/23/2014  15:36:00     -178.806      -92.810      -10.305       84.319       82.921       42.747     7109.767     6875.819     1827.289        2.825        0.791      201.458       34.583        0.029      348.910       28.947      860.297
09/23/2014  15:37:00     -101.296      -58.767        8.999       87.889       66.660       49.015     7724.453     4443.510     2402.447        1.418        0.729      117.109       45.661        0.152      349.113       29.301      860.291
09/23/2014  15:38:00     -258.484     -181.928      -14.762      148.301       87.869       57.213    21993.232     7721.046     3273.358        6.655        1.649      316.088       56.282        0.032      348.805       28.767      860.286
09/23/2014  15:39:00     -382.210     -269.769      -30.505      202.633      182.318       88.413    41060.004    33239.963     7816.937       15.094        4.106      467.824      105.311        0.051      348.624       28.452      860.265
09/23/2014  15:40:00     -441.287     -250.749       -8.254      203.229      188.769       99.639    41302.021    35633.577     9927.884       17.226        4.343      507.553      101.212        0.040      348.592       28.397      860.251
09/23/2014  15:41:00     -458.457     -107.032       -3.785      241.092      207.984       92.240    58125.158    43257.498     8508.136       16.575        5.495      470.785      118.055        0.063      348.613       28.434      860.259
09/23/2014  15:42:00     -152.301     -126.515       12.014      131.736       93.036       62.918    17354.398     8655.733     3958.671        3.465        1.498      197.994       55.502        0.079      348.727       28.631      860.289
09/23/2014  15:43:00     -306.017     -229.790       -7.232      187.333      122.072       86.245    35093.674    14901.667     7438.122       10.196        2.872      382.688      102.450        0.072      348.587       28.388      860.248
09/23/2014  15:44:00     -317.595     -224.188        6.010      174.112      131.730       76.419    30315.017    17352.740     5839.794       10.233        2.675      388.750       88.544        0.052      348.441       28.135      860.250
09/23/2014  15:45:00     -368.498     -216.929       -5.987      160.649      108.870       70.906    25807.991    11852.707     5027.704       11.278        2.134      427.608       75.036        0.031      348.444       28.141      860.230
09/23/2014  15:46:00     -273.236      -95.699       -6.711      128.572      121.752       60.028    16530.771    14823.531     3603.415        5.940        1.748      289.510       64.893        0.050      348.583       28.381      860.242
09/23/2014  15:47:00     -207.346     -116.639       -0.628      133.304      128.357       61.421    17769.887    16475.607     3772.482        4.730        1.901      237.901       58.851        0.061      348.644       28.488      860.244
09/23/2014  15:48:00      -97.480      -54.781        4.038      107.004       65.441       43.868    11449.914     4282.542     1924.359        1.509        0.883      111.818       56.220        0.253      348.651       28.501      860.231
09/23/2014  15:49:00     -138.751     -122.748       -8.128      128.070       69.503       46.566    16401.923     4830.731     2168.413        2.889        1.170      185.254       43.264        0.055      348.699       28.584      860.198
09/23/2014  15:50:00     -276.020     -134.959       -6.699      163.466      109.304       65.246    26721.220    11947.372     4257.098        6.868        2.146      307.247       71.636        0.054      348.620       28.446      860.196
09/23/2014  15:51:00     -308.318     -207.356      -14.098      191.388      160.527       83.530    36629.210    25768.826     6977.215       10.380        3.469      371.560       97.091        0.068      348.594       28.401      860.187
09/23/2014  15:52:00     -259.058      -70.602       21.163      228.323      115.807       84.196    52131.298    13411.149     7089.016        7.258        3.632      268.507      111.448        0.172      348.628       28.460      860.152
09/23/2014  15:53:00     -211.520      -67.193       -3.402      101.032       96.512       47.926    10207.493     9314.541     2296.899        3.554        1.091      221.935       49.125        0.049      348.764       28.696      860.135
09/23/2014  15:54:00     -271.474      -40.605        3.707      153.076      116.189       82.121    23432.231    13499.936     6743.781        5.951        2.184      274.494       70.073        0.065      348.856       28.854      860.134
09/23/2014  15:55:00     -509.894     -105.235      -26.455      212.296      157.216       85.488    45069.596    24716.894     7308.120       17.442        3.855      520.640       96.077        0.034      348.570       28.359      860.119
09/23/2014  15:56:00     -491.495     -163.870      -26.771      158.825      103.906       68.891    25225.335    10796.484     4745.955       15.495        2.038      518.093       71.097        0.019      348.537       28.303      860.126
09/23/2014  15:57:00     -251.667      -64.267       -3.073      156.781      152.883       70.088    24580.341    23373.068     4912.313        6.016        2.643      259.744       71.982        0.077      348.742       28.656      860.127
09/23/2014  15:58:00     -154.499      -35.318       13.774      129.856       77.184       58.915    16862.513     5957.428     3470.978        2.579        1.315      158.485       60.180        0.144      348.829       28.808      860.156
09/23/2014  15:59:00     -172.016      -91.459        2.976      120.032       80.472       52.351    14407.741     6475.779     2740.661        3.079        1.181      194.819       60.685        0.097      348.817       28.787      860.159
09/23/2014  16:00:00     -264.579      -29.540       -5.250      117.702      123.462       55.592    13853.684    15242.984     3090.498        5.154        1.609      266.223       56.355        0.045      348.773       28.711      860.189
09/23/2014  16:01:00     -292.352     -119.545      -19.132      130.041      112.404       69.331    16910.760    12634.756     4806.778        6.723        1.718      315.849       65.082        0.042      348.712       28.604      860.189
09/23/2014  16:02:00     -172.929      -67.807       28.894      157.509      137.348       92.547    24809.212    18864.545     8565.036        4.378        2.612      185.747       86.701        0.218      348.771       28.708      860.180
09/23/2014  16:03:00     -183.080      -65.577       -0.796      135.268      100.071       56.342    18297.356    10014.132     3174.446        3.465        1.574      194.470       57.520        0.087      348.750       28.672      860.195
09/23/2014  16:04:00     -210.013     -122.223       15.826      163.030      122.181       88.110    26578.903    14928.310     7763.376        5.427        2.464      242.990       81.162        0.112      348.650       28.497      860.163
09/23/2014  16:05:00     -147.494     -147.507       20.440      139.925      128.758       84.179    19579.108    16578.543     7086.056        4.358        2.162      208.597       94.452        0.205      348.628       28.459      860.150
09/23/2014  16:06:00     -153.772     -154.609       10.592      143.797       95.335       63.545    20677.497     9088.753     4038.027        4.073        1.690      218.059       65.709        0.091      348.674       28.540      860.141
09/23/2014  16:07:00     -303.322      -80.707        8.200      145.660      144.896       71.006    21216.819    20994.946     5041.897        7.291        2.363      313.875       74.274        0.056      348.652       28.501      860.153
09/23/2014  16:08:00     -243.315     -161.372       -8.426      140.301      110.093       63.194    19684.411    12120.359     3993.496        6.055        1.790      291.964       77.473        0.070      348.704       28.592      860.152
09/23/2014  16:09:00     -313.434     -180.674       -2.758      196.757      173.526       94.283    38713.513    30111.395     8889.192       10.429        3.886      361.779       97.648        0.073      348.477       28.197      860.142
09/23/2014  16:10:00     -318.180     -203.402       -1.537      180.472      171.852       89.194    32569.998    29533.267     7955.512       10.632        3.503      377.639      103.723        0.075      348.509       28.253      860.136
09/23/2014  16:11:00     -226.539     -109.939        3.813      173.111      181.601       79.549    29967.350    32978.850     6328.094        6.634        3.464      251.806       92.390        0.135      348.470       28.186      860.129
09/23/2014  16:12:00     -348.263     -142.052      -16.198      168.789      120.406       80.213    28489.850    14497.582     6434.142        9.557        2.471      376.119       86.570        0.053      348.461       28.171      860.121
09/23/2014  16:13:00     -142.746     -109.399        3.455      172.966      136.554       77.396    29917.250    18647.092     5990.081        4.345        2.728      179.846       86.721        0.233      348.525       28.282      860.109
09/23/2014  16:14:00     -281.468     -120.849       10.958      240.894      149.707       89.327    58029.798    22412.259     7979.384        9.117        4.421      306.315      122.006        0.159      348.468       28.182      860.121
09/23/2014  16:15:00     -415.667     -181.851      -13.653      209.274      116.583       71.211    43795.754    13591.493     5070.948       13.424        3.123      453.706       80.207        0.031      348.346       27.971      860.131
09/23/2014  16:16:00     -311.445     -225.543      -16.040      169.067      123.733       82.070    28583.776    15309.773     6735.451        9.937        2.531      384.536       86.602        0.051      348.375       28.022      860.129
09/23/2014  16:17:00     -275.643     -122.784      -21.504      149.018      102.175       70.001    22206.412    10439.767     4900.140        6.453        1.877      301.753       53.474        0.031      348.501       28.239      860.128
09/23/2014  16:18:00     -335.061      -74.420      -11.134      122.945      121.648       60.347    15115.381    14798.133     3641.735        7.574        1.678      343.226       64.164        0.035      348.571       28.359      860.148
09/23/2014  16:19:00     -477.826     -106.644      -20.936      188.983      160.104       83.540    35714.633    25633.187     6978.886       15.422        3.416      489.583       99.596        0.041      348.337       27.958      860.146
09/23/2014  16:20:00     -257.652     -107.453      -12.512      162.143      110.688       72.666    26290.335    12251.732     5280.305        6.095        2.191      279.161       75.260        0.073      348.386       28.042      860.141
09/23/2014  16:21:00     -324.580      -68.145      -20.008      114.073      106.214       58.687    13012.556    11281.489     3444.167        6.906        1.387      331.656       54.836        0.027      348.512       28.258      860.150
09/23/2014  16:22:00     -397.347      -81.901      -14.589      157.394      159.111       83.122    24773.016    25316.275     6909.210       11.089        2.850      405.700       86.665        0.046      348.479       28.202      860.102
09/23/2014  16:23:00     -313.498      -52.308       -3.780      181.176      120.169       76.871    32824.635    14440.547     5909.183        7.709        2.659      317.832       83.523        0.069      348.534       28.297      860.133
09/23/2014  16:24:00     -340.953     -127.181       -7.698      151.554      160.725       80.534    22968.653    25832.492     6485.764        9.388        2.764      363.901       74.396        0.042      348.388       28.045      860.138
09/23/2014  16:25:00     -269.327     -150.531        2.214      168.063      141.043       82.844    28245.082    19893.211     6863.130        7.509        2.750      308.539       85.279        0.076      348.415       28.090      860.135
09/23/2014  16:26:00     -195.931     -127.613       10.649      101.469       77.961       48.019    10296.027     6077.925     2305.792        3.673        0.934      233.825       50.464        0.047      348.476       28.197      860.135
09/23/2014  16:27:00     -357.797     -105.289       -7.250      195.374      130.670       77.217    38170.823    17074.593     5962.403       10.017        3.060      372.967       79.264        0.045      348.468       28.182      860.125
09/23/2014  16:28:00     -444.225     -128.912       -3.190      199.035      145.065       86.236    39614.818    21043.983     7436.691       14.102        3.405      462.552       98.664        0.045      348.350       27.977      860.103
09/23/2014  16:29:00     -321.203      -84.111       15.776      196.606      121.230       72.683    38654.054    14696.659     5282.850        8.455        2.932      332.033       91.821        0.076      348.422       28.104      860.124
09/23/2014  16:30:00     -252.889     -112.354       -3.684      238.038      112.741       75.018    56662.247    12710.603     5627.753        7.578        3.750      276.724      109.389        0.156      348.310       27.910      860.112
09/23/2014  16:31:00     -371.418     -143.363      -18.703      182.590      130.051       86.290    33339.272    16913.171     7445.976       10.827        2.885      398.126       87.449        0.048      348.300       27.892      860.085
09/23/2014  16:32:00     -477.383     -107.302      -27.816      213.575      159.903       88.372    45614.081    25568.933     7809.690       15.957        3.950      489.293       92.829        0.036      348.288       27.870      860.068
09/23/2014  16:33:00     -236.119     -134.707       14.745      165.608      118.518       77.104    27426.043    14046.478     5945.068        6.076        2.371      271.842       75.270        0.077      348.329       27.941      860.080
09/23/2014  16:34:00     -270.681      -73.721        7.180      160.629      144.220       74.066    25801.579    20799.336     5485.825        6.541        2.604      280.541       73.534        0.069      348.351       27.981      860.090
09/23/2014  16:35:00     -373.020       16.477      -23.475      198.656      161.868       69.024    39464.021    26201.272     4764.338       10.519        3.521      373.384       92.414        0.061      348.287       27.868      860.086
09/23/2014  16:36:00     -288.140      -40.497       -5.856      176.172      118.692       72.231    31036.582    14087.787     5217.248        6.751        2.517      290.972       87.051        0.090      348.289       27.873      860.104
09/23/2014  16:37:00     -441.810      -30.926      -34.156      149.564      130.409       58.672    22369.436    17006.455     3442.373       12.006        2.141      442.891       51.672        0.014      348.175       27.675      860.109
09/23/2014  16:38:00     -324.710       38.233      -13.963      190.791      120.160       64.237    36401.127    14438.317     4126.364        8.102        2.748      326.954       65.061        0.040      348.167       27.661      860.121
09/23/2014  16:39:00     -402.309     -118.739      -14.095      187.055      126.725       68.748    34989.693    16059.276     4726.322       11.595        2.789      419.466       69.598        0.028      348.091       27.530      860.106
09/23/2014  16:40:00     -338.510      -74.145      -12.632      163.379      136.575       68.079    26692.634    18652.646     4634.722        8.510        2.499      346.535       67.986        0.038      348.040       27.444      860.101
09/23/2014  16:41:00     -353.573      -97.364       -4.187      143.437      184.272       82.049    20574.251    33956.185     6731.990        9.788        3.063      366.733       80.844        0.049      348.006       27.386      860.079
09/23/2014  16:42:00     -392.932      -47.697      -23.680      196.327      168.835       86.146    38544.346    28505.416     7421.131       11.584        3.724      395.816       87.151        0.048      347.971       27.324      860.042
09/23/2014  16:43:00     -454.268      -93.959      -12.678      164.400      139.547       96.677    27027.374    19473.416     9346.423       13.559        2.792      463.883       97.303        0.044      347.944       27.276      860.063
09/23/2014  16:44:00     -380.562     -177.397        1.501      230.112      155.401       89.228    52951.363    24149.462     7961.652       13.067        4.253      419.878      103.395        0.061      347.927       27.247      860.054
09/23/2014  16:45:00     -385.465      -27.339       -7.445      208.815      142.470       82.341    43603.881    20297.672     6780.033       11.002        3.534      386.434       93.636        0.059      347.919       27.232      860.060
09/23/2014  16:46:00     -166.954      -64.420        5.754      139.750      110.808       70.303    19530.081    12278.408     4942.545        3.440        1.838      178.952       76.524        0.183      347.966       27.316      860.066
09/23/2014  16:47:00     -374.663      -95.094      -24.618      190.318      127.541       70.030    36220.905    16266.589     4904.187       10.370        2.870      386.542       88.543        0.052      347.920       27.235      860.080
09/23/2014  16:48:00     -327.768       46.205      -16.239      157.500      110.148       78.579    24806.126    12132.648     6174.642        7.646        2.156      331.009       80.260        0.059      347.874       27.156      860.093
09/23/2014  16:49:00     -429.688     -144.975      -20.785      198.397      132.106       71.924    39361.284    17451.960     5173.014       13.402        3.099      453.485       92.271        0.041      347.847       27.107      860.074
09/23/2014  16:50:00     -424.941     -158.958       -6.187      184.150      135.243       82.995    33911.049    18290.659     6888.246       13.248        2.954      453.699       94.691        0.044      347.817       27.058      860.039
09/23/2014  16:51:00     -500.688        1.157      -10.596      192.793      138.682       82.289    37169.233    19232.619     6771.432       15.698        3.159      500.690       91.304        0.033      347.785       27.001      860.058
09/23/2014  16:52:00     -260.669     -113.678        4.501      169.964      133.279       75.809    28887.893    17763.378     5747.001        6.664        2.620      284.379       84.067        0.087      347.794       27.021      860.061
09/23/2014  16:53:00     -313.976     -115.456      -26.552      138.052      147.479       75.787    19058.236    21750.094     5743.713        7.958        2.328      334.531       76.440        0.052      347.761       26.961      860.052
09/23/2014  16:54:00     -488.350      -47.625      -33.654      153.825      181.864       84.271    23662.079    33074.533     7101.601       15.285        3.192      490.666       68.936        0.020      347.689       26.836      860.053
09/23/2014  16:55:00     -474.098     -102.742       -1.346      207.928      210.105       97.521    43233.865    44144.253     9510.257       16.609        4.844      485.102      100.778        0.043      347.630       26.735      860.027
09/23/2014  16:56:00     -313.940       46.760       -8.381      141.776      135.805       79.139    20100.356    18443.112     6263.029        7.280        2.240      317.403       67.300        0.045      347.653       26.773      860.034
09/23/2014  16:57:00     -406.137       21.420      -40.105      156.010      139.745       77.097    24339.007    19528.711     5944.014       10.840        2.491      406.702       76.297        0.035      347.635       26.744      860.050
09/23/2014  16:58:00     -368.190      -82.771      -11.505      144.281      116.362       60.907    20817.070    13540.088     3709.632        9.030        1.903      377.379       54.871        0.021      347.630       26.736      860.048
09/23/2014  16:59:00     -274.866      -79.258      -11.759      170.384      126.803       78.844    29030.601    16079.031     6216.305        6.664        2.566      286.065       92.155        0.104      347.676       26.813      860.043
09/23/2014  17:00:00     -536.631     -136.924      -31.992      173.171      157.000       75.387    29988.316    24649.149     5683.141       18.402        3.016      553.824       87.097        0.025      347.675       26.811      860.032
09/23/2014  17:01:00     -331.993      -85.565      -10.198      165.852      162.998       83.605    27506.729    26568.420     6989.720        8.934        3.053      342.842       78.449        0.052      347.725       26.899      860.032
09/23/2014  17:02:00     -351.800      -22.489      -35.763      220.731      160.944       77.102    48722.148    25903.040     5944.760       10.305        4.028      352.518       82.033        0.054      347.741       26.927      859.991
09/23/2014  17:03:00     -392.961      -80.391      -24.463      217.120      192.935       83.406    47140.997    37223.984     6956.492       12.639        4.566      401.100       77.605        0.037      347.773       26.982      859.991
09/23/2014  17:04:00     -437.148     -117.226      -16.230      167.169      122.582       72.993    27945.394    15026.242     5327.933       12.669        2.415      452.593       66.892        0.022      347.757       26.954      859.981
09/23/2014  17:05:00     -549.306      -85.519      -38.366      162.197      185.530       92.002    26307.805    34421.271     8464.377       18.985        3.460      555.924       86.027        0.024      347.729       26.906      859.979
09/23/2014  17:06:00     -521.236      -63.261      -29.620      244.607      192.414       87.270    59832.656    37023.103     7615.982       19.050        5.224      525.061      101.220        0.037      347.728       26.904      859.973
09/23/2014  17:07:00     -415.200      -92.460      -11.149      219.748      130.766       90.764    48289.010    17099.676     8238.054       12.733        3.681      425.371      106.374        0.063      347.730       26.907      859.966
09/23/2014  17:08:00     -420.397     -110.903      -37.776      163.697      144.327       77.407    26796.810    20830.174     5991.798       12.203        2.681      434.779       85.618        0.039      347.762       26.962      859.958
09/23/2014  17:09:00     -338.057      -28.801      -13.634      213.207      137.357      100.995    45457.300    18866.865    10199.985        9.490        3.726      339.282       93.654        0.076      347.778       26.992      859.939
09/23/2014  17:10:00     -144.055      -68.126       18.861      145.093      139.063       82.487    21051.909    19338.638     6804.157        3.646        2.360      159.352       88.651        0.309      347.861       27.134      859.964
09/23/2014  17:11:00     -481.715     -266.178      -24.812      228.688      157.285       91.253    52297.974    24738.639     8327.141       19.443        4.268      550.364      102.823        0.035      347.727       26.902      859.964
09/23/2014  17:12:00     -315.283     -143.951        5.231      213.656      174.156       88.093    45648.960    30330.151     7760.369       10.193        4.187      346.590       97.007        0.078      347.780       26.995      859.948
09/23/2014  17:13:00     -508.958     -204.004      -13.077      198.768      184.367       93.230    39508.737    33991.319     8691.914       19.150        4.110      548.321       94.061        0.029      347.758       26.955      859.958
09/23/2014  17:14:00     -193.020     -170.041        8.596      156.784      169.342      102.337    24581.183    28676.556    10472.869        6.498        3.187      257.237       98.834        0.148      347.810       27.048      859.946
09/23/2014  17:15:00     -391.152      -59.858      -32.497      180.048      135.236       76.433    32417.392    18288.707     5841.987       10.708        2.827      395.706       79.301        0.040      347.879       27.164      859.955
09/23/2014  17:16:00     -331.419      -44.844      -11.999      141.978      112.766       59.193    20157.807    12716.268     3503.846        7.418        1.819      334.439       59.927        0.032      347.891       27.183      859.945
09/23/2014  17:17:00     -505.808     -105.266      -14.693      265.688      178.195       91.231    70590.088    31753.451     8323.152       18.888        5.533      516.645      102.724        0.040      347.827       27.074      859.942
09/23/2014  17:18:00     -458.419     -108.619      -28.813      234.455      168.499       92.148    54968.918    28392.016     8491.321       15.730        4.593      471.112      104.777        0.049      347.769       26.974      859.918
09/23/2014  17:19:00     -248.828      -79.264       -9.817      166.804      135.951       70.544    27823.635    18482.564     4976.524        5.978        2.564      261.148       82.043        0.099      347.851       27.118      859.930
09/23/2014  17:20:00     -235.297     -103.531        2.088      164.948      173.794       77.526    27207.707    30204.258     6010.296        6.474        3.171      257.067       71.430        0.077      347.845       27.106      859.922
09/23/2014  17:21:00     -279.324     -143.698       21.491      254.608      185.887      118.035    64825.349    34554.011    13932.354       10.620        5.666      314.119      132.295        0.177      347.776       26.987      859.906
09/23/2014  17:22:00     -290.892      -15.709       -3.559      184.198      147.985       67.764    33928.775    21899.671     4591.961        7.264        3.021      291.316       79.048        0.074      347.832       27.083      859.938
09/23/2014  17:23:00     -349.957      -61.963      -16.470      236.394      130.733       77.976    55882.000    17091.074     6080.200       10.280        3.953      355.400       97.591        0.075      347.780       26.995      859.955
09/23/2014  17:24:00     -377.930      -94.713      -10.686      144.398      133.569       83.499    20850.721    17840.753     6972.068        9.878        2.283      389.617       78.523        0.041      347.763       26.964      859.954
09/23/2014  17:25:00     -167.822        2.773        1.286      116.154      106.140       51.033    13491.725    11265.753     2604.407        2.776        1.368      167.845       54.660        0.106      347.822       27.069      859.972
09/23/2014  17:26:00     -395.054     -168.981      -13.806      210.693      160.900       81.227    44391.334    25888.745     6597.881       13.083        3.844      429.677       82.058        0.036      347.802       27.033      859.977
09/23/2014  17:27:00     -380.280     -155.558      -24.596      208.478      137.454       84.700    43462.967    18893.579     7174.147       11.946        3.477      410.866       96.875        0.056      347.746       26.935      859.976
09/23/2014  17:28:00     -264.410     -178.309       10.307      199.948      136.564       84.444    39979.013    18649.845     7130.836        8.378        3.288      318.915       97.960        0.094      347.731       26.909      859.957
09/23/2014  17:29:00     -155.903     -112.657        0.728      139.549      110.130       64.272    19474.006    12128.659     4130.901        3.636        1.787      192.347       57.096        0.088      347.799       27.027      859.943
09/23/2014  17:30:00     -175.262      -56.328       15.786      126.826      125.972       60.640    16084.755    15868.956     3677.197        3.488        1.782      184.091       56.588        0.094      347.806       27.041      859.938
09/23/2014  17:31:00     -237.367      -58.040       -1.845      121.000       85.334       68.501    14640.995     7281.929     4692.322        4.316        1.331      244.360       70.445        0.083      347.831       27.081      859.934
09/23/2014  17:32:00     -324.907     -151.877       -1.281      245.724      187.593       76.181    60380.426    35191.071     5803.565       11.499        5.069      358.652       99.031        0.076      347.798       27.026      859.936
09/23/2014  17:33:00     -508.082     -101.838      -38.107      195.256      192.704       83.517    38124.717    37134.818     6975.138       17.609        4.112      518.188       93.067        0.032      347.650       26.770      859.925
09/23/2014  17:34:00     -431.423      -64.913      -21.358      233.711      158.937       86.034    54620.645    25260.941     7401.802       13.902        4.364      436.279      104.580        0.057      347.659       26.785      859.916
09/23/2014  17:35:00     -367.381        6.590      -22.371      128.870      106.273       69.740    16607.422    11293.887     4863.702        8.413        1.638      367.440       56.240        0.023      347.667       26.798      859.929
09/23/2014  17:36:00     -540.630      -90.977      -46.294      172.921      169.270       97.321    29901.555    28652.273     9471.429       18.535        3.401      548.231       87.692        0.026      347.597       26.678      859.897
09/23/2014  17:37:00     -332.951     -120.176        7.769      294.351      248.800      106.958    86642.236    61901.640    11440.114       14.264        7.999      353.976      132.414        0.140      347.606       26.693      859.887
09/23/2014  17:38:00     -332.768     -170.276        7.995      186.808      140.609       85.764    34897.331    19771.025     7355.454       10.090        3.101      373.803       94.128        0.063      347.581       26.650      859.893
09/23/2014  17:39:00     -215.618      -95.570       -4.319      140.367      163.000       78.281    19702.849    26569.132     6127.842        5.401        2.620      235.849       76.083        0.104      347.603       26.689      859.885
09/23/2014  17:40:00     -105.911      -34.008       12.707      117.115      118.750       56.708    13715.953    14101.483     3215.829        2.178        1.552      111.237       55.548        0.249      347.640       26.755      859.914
09/23/2014  17:41:00     -347.337     -171.113      -25.180      151.574      143.900       80.985    22974.546    20707.192     6558.506       10.039        2.512      387.198       79.739        0.042      347.572       26.636      859.915
09/23/2014  17:42:00     -243.240      -80.300       -0.514      133.138      118.351       61.190    17725.644    14007.042     3744.233        5.054        1.774      256.152       58.042        0.051      347.558       26.610      859.906
09/23/2014  17:43:00     -353.514      -54.869       -6.859      160.801      104.393       78.242    25857.065    10897.856     6121.752        8.545        2.144      357.746       85.564        0.057      347.523       26.551      859.896
09/23/2014  17:44:00     -399.996     -109.356      -34.170      269.432      147.674       81.979    72593.602    21807.648     6720.603       13.711        5.056      414.675       75.150        0.033      347.500       26.511      859.863
09/23/2014  17:45:00     -505.696      -71.019      -19.766      303.944      147.624       91.062    92381.916    21792.772     8292.218       19.179        6.123      510.659      121.552        0.057      347.441       26.408      859.877
09/23/2014  17:46:00     -327.965     -176.851      -22.230      168.116      139.662       74.928    28263.034    19505.433     5614.251        9.635        2.669      372.609       86.824        0.054      347.437       26.401      859.893
09/23/2014  17:47:00     -236.762     -125.220       -3.992      171.501      136.190       83.275    29412.635    18547.707     6934.650        6.331        2.745      267.836       81.686        0.093      347.433       26.395      859.889
09/23/2014  17:48:00     -336.728      -76.130      -20.733      145.059      135.174       72.371    21042.068    18272.022     5237.607        8.207        2.228      345.227       67.932        0.039      347.408       26.352      859.899
09/23/2014  17:49:00     -361.703      -68.887      -25.554      201.841      120.107       79.290    40739.927    14425.583     6286.898        9.883        3.073      368.205       87.315        0.056      347.387       26.316      859.889
09/23/2014  17:50:00     -389.350      -80.003      -26.371      193.560      149.988       69.268    37465.323    22496.329     4798.096       11.171        3.238      397.484       75.086        0.036      347.370       26.288      859.901
09/23/2014  17:51:00     -408.503      -39.683      -20.648      178.880      118.532       83.496    31998.171    14049.942     6971.601       11.094        2.651      410.426       84.239        0.042      347.368       26.284      859.890
09/23/2014  17:52:00     -306.307      -88.991      -18.503      123.864      145.116       76.745    15342.234    21058.620     5889.749        7.218        2.115      318.972       66.489        0.043      347.381       26.305      859.893
09/23/2014  17:53:00     -346.847     -186.474        5.347      220.387      154.013       81.708    48570.461    23720.151     6676.215       11.702        3.948      393.796       91.113        0.054      347.333       26.224      859.884
09/23/2014  17:54:00     -317.431      -40.687      -16.037      166.641      131.101       82.097    27769.349    17187.363     6739.956        7.718        2.585      320.028       81.432        0.065      347.355       26.260      859.891
09/23/2014  17:55:00     -352.730     -128.217       -2.764      212.378      182.571       92.230    45104.339    33332.139     8506.428       11.389        4.347      375.311      114.506        0.093      347.349       26.250      859.886
09/23/2014  17:56:00     -303.168     -151.520      -12.665      190.482      145.290       69.734    36283.348    21109.257     4862.872        8.863        3.113      338.924       77.331        0.052      347.340       26.233      859.885
09/23/2014  17:57:00     -361.680     -131.947       -9.067      213.477      124.235       77.840    45572.458    15434.304     6058.995       10.767        3.353      384.997       77.089        0.040      347.330       26.218      859.857
09/23/2014  17:58:00     -295.536     -133.374       -3.045      193.494      118.700       80.645    37440.038    14089.731     6503.678        8.158        2.902      324.238       91.647        0.080      347.325       26.208      859.846
09/23/2014  17:59:00     -458.484     -117.541      -22.323      212.845      160.379       89.061    45302.815    25721.374     7931.811       15.173        3.948      473.311       95.237        0.040      347.307       26.177      859.835
09/23/2014  18:00:00     -438.633       13.483      -24.860      196.710      155.214       94.159    38694.796    24091.337     8865.963       13.241        3.583      438.840       98.175        0.050      347.291       26.150      859.834
09/23/2014  18:01:00     -336.006      -76.622       -8.985      194.160      123.130       80.371    37698.261    15160.940     6459.463        8.908        2.966      344.632       85.099        0.061      347.274       26.120      859.852
09/23/2014  18:02:00     -347.653      -89.153       -5.786      170.004      125.128       70.301    28901.358    15657.131     4942.299        8.916        2.475      358.903       73.378        0.042      347.256       26.088      859.831
09/23/2014  18:03:00     -385.868     -107.917      -24.503      197.376      185.283       84.536    38957.479    34329.642     7146.418       12.077        4.022      400.674       79.715        0.040      347.241       26.064      859.820
09/23/2014  18:04:00     -357.431     -156.431      -22.294      135.394      152.329       74.442    18331.608    23204.036     5541.657        9.989        2.354      390.163       68.305        0.031      347.217       26.022      859.800
09/23/2014  18:05:00     -291.727      -57.622       -2.192      255.146      124.849       79.414    65099.259    15587.180     6306.558        8.770        4.350      297.364       86.309        0.084      347.208       26.008      859.802
09/23/2014  18:06:00     -289.117      -75.646        0.974      165.387      135.620       79.870    27352.746    18392.911     6379.154        7.071        2.606      298.850       80.790        0.073      347.195       25.986      859.788
09/23/2014  18:07:00     -325.462     -129.919      -14.330      130.124      143.546       72.082    16932.295    20605.580     5195.884        8.286        2.137      350.434       68.771        0.039      347.184       25.966      859.779
09/23/2014  18:08:00     -312.688      -31.619      -28.325      254.842      130.447       72.616    64944.472    17016.520     5273.068        9.339        4.362      314.283      102.033        0.105      347.180       25.960      859.752
09/23/2014  18:09:00     -323.760      -47.734       -9.853      162.425      114.874       73.255    26381.761    13196.008     5366.328        7.606        2.247      327.259       69.048        0.045      347.149       25.905      859.769
09/23/2014  18:10:00     -326.679      -88.604      -15.413      156.585      138.852       87.229    24519.004    19279.881     7608.982        8.310        2.570      338.482       86.628        0.066      347.165       25.933      859.770
09/23/2014  18:11:00     -214.638      -86.592       10.706      120.399       92.962       64.499    14495.903     8641.937     4160.062        4.049        1.365      231.447       52.106        0.051      347.157       25.920      859.757
09/23/2014  18:12:00     -328.807      -83.254       -8.953      139.509      123.435       66.431    19462.742    15236.222     4413.046        7.711        1.956      339.183       68.250        0.040      347.134       25.880      859.715
09/23/2014  18:13:00     -343.724      -60.175      -10.597      226.833      184.727       95.565    51453.221    34124.212     9132.710       10.828        4.736      348.952      112.149        0.103      347.072       25.772      859.717
09/23/2014  18:14:00     -518.430     -101.474       -8.599      241.261      171.779      107.606    58206.668    29508.026    11579.157       18.920        4.965      528.268      120.153        0.052      347.104       25.827      859.720
09/23/2014  18:15:00     -374.963     -176.822        8.539      207.748      212.654       96.847    43159.379    45221.616     9379.274       13.483        4.888      414.564       98.723        0.057      347.075       25.779      859.728
09/23/2014  18:16:00     -381.205     -101.279       -1.699      205.299      157.542       92.282    42147.523    24819.448     8515.981       11.552        3.774      394.430       96.390        0.060      347.074       25.777      859.737
09/23/2014  18:17:00     -199.711     -111.669        7.131      176.726      129.732       79.880    31231.993    16830.378     6380.839        5.342        2.722      228.811       88.378        0.149      347.063       25.759      859.762
09/23/2014  18:18:00     -261.111      -74.943        3.335      234.468      146.704       87.980    54975.090    21522.165     7740.510        7.901        4.212      271.653      108.527        0.160      347.035       25.709      859.765
09/23/2014  18:19:00     -437.441       13.893      -31.186      132.922      130.219       67.296    17668.342    16956.903     4528.777       11.583        1.958      437.662       64.059        0.021      347.018       25.680      859.772
09/23/2014  18:20:00     -387.851      -29.820      -23.329      224.620      151.163       81.605    50454.262    22850.180     6659.381       11.590        3.998      388.995      106.418        0.075      346.989       25.631      859.722
09/23/2014  18:21:00     -350.660      -89.007       -4.273      170.726      141.909       81.132    29147.477    20138.258     6582.321        9.338        2.793      361.780       87.786        0.059      346.981       25.615      859.703
09/23/2014  18:22:00     -388.165     -105.084      -12.059      239.716      142.517       69.301    57463.665    20311.215     4802.588       12.220        4.129      402.137       83.135        0.043      346.971       25.599      859.715
09/23/2014  18:23:00     -426.612      -56.676      -47.001      254.572      143.521       79.897    64807.137    20598.291     6383.583       13.959        4.589      430.360      110.561        0.066      346.963       25.585      859.702
09/23/2014  18:24:00     -320.906      -86.804      -10.636      182.974      104.822       76.172    33479.563    10987.741     5802.176        8.044        2.513      332.438       90.655        0.074      346.933       25.534      859.717
09/23/2014  18:25:00     -272.334      -41.621      -15.032      235.924      110.843       77.308    55659.974    12286.215     5976.484        7.501        3.696      275.496       79.601        0.083      346.923       25.517      859.720
09/23/2014  18:26:00     -359.834     -133.539       -8.492      193.134      154.857       81.156    37300.832    23980.837     6586.341       10.762        3.393      383.814       87.265        0.052      346.917       25.506      859.744
09/23/2014  18:27:00     -321.700     -115.850        3.652      216.502      164.000       87.369    46872.949    26896.085     7633.349        9.915        4.070      341.924       93.686        0.075      346.913       25.499      859.754
09/23/2014  18:28:00     -303.361     -121.356      -14.749      127.208      145.621       74.012    16181.969    21205.343     5477.799        7.491        2.143      326.734       63.404        0.038      346.890       25.460      859.783
09/23/2014  18:29:00     -450.582      -16.176      -19.988      189.508      152.723       65.253    35913.135    23324.251     4257.902       13.358        3.175      450.872       61.835        0.019      346.904       25.483      859.765
09/23/2014  18:30:00     -455.481      -55.876      -29.200      168.461      138.686       81.308    28378.967    19233.840     6610.985       13.282        2.711      458.895       85.877        0.035      346.885       25.451      859.753
09/23/2014  18:31:00     -299.499     -159.760       18.035      231.715      143.666       92.692    53691.942    20639.979     8591.857        9.922        4.146      339.445      104.689        0.095      346.839       25.371      859.762
09/23/2014  18:32:00     -284.634      -94.897      -20.759      149.022      112.850       55.634    22207.412    12735.203     3095.195        6.424        1.902      300.036       59.261        0.039      346.834       25.365      859.770
09/23/2014  18:33:00     -140.406      -63.424       -2.345      123.901       99.726       47.219    15351.467     9945.279     2229.631        2.563        1.376      154.067       53.796        0.122      346.825       25.350      859.767
09/23/2014  18:34:00     -212.823      -44.186       -5.072      195.433      103.435       72.386    38194.144    10698.888     5239.725        5.069        2.707      217.361       93.412        0.185      346.773       25.260      859.781
09/23/2014  18:35:00     -341.770      -82.271       -6.394      174.986      158.851       66.588    30620.236    25233.712     4433.937        9.194        3.014      351.533       71.466        0.041      346.786       25.281      859.796
09/23/2014  18:36:00     -315.270      -17.566      -22.699      241.341      129.778       75.682    58245.537    16842.224     5727.700        9.050        4.041      315.759       80.984        0.066      346.762       25.241      859.814
09/23/2014  18:37:00     -316.699       -5.532      -19.880      144.551      113.958       60.641    20894.853    12986.525     3677.384        6.914        1.878      316.747       58.672        0.034      346.746       25.212      859.862
09/23/2014  18:38:00     -292.470      -97.907        5.323      183.524      136.114       78.370    33681.062    18526.999     6141.814        7.674        2.917      308.422       87.838        0.081      346.716       25.160      859.869
09/23/2014  18:39:00     -280.147     -123.387       -0.988      174.568      128.681       80.259    30474.075    16558.849     6441.583        7.358        2.674      306.115       85.509        0.078      346.734       25.192      859.883
09/23/2014  18:40:00     -339.141     -154.428      -24.455      192.344      135.840       81.446    36996.293    18452.623     6633.510       10.076        3.104      372.646       87.559        0.055      346.730       25.184      859.921
09/23/2014  18:41:00     -305.666      -95.586      -16.492      151.018      188.587       69.279    22806.576    35565.242     4799.575        8.300        3.159      320.263       60.290        0.035      346.688       25.111      859.947
09/23/2014  18:42:00     -303.570     -103.393       -3.301      167.988      138.398       78.756    28220.030    19153.998     6202.487        7.821        2.679      320.694       86.190        0.072      346.651       25.049      859.964
09/23/2014  18:43:00     -261.436       -2.814      -10.218      156.635      105.522       61.584    24534.472    11134.843     3792.595        5.395        1.973      261.451       79.879        0.093      346.623       25.001      859.975
09/23/2014  18:44:00     -226.286     -104.310       -2.966      140.653      137.728       83.697    19783.270    18969.134     7005.221        5.392        2.288      249.170       85.290        0.117      346.611       24.981      859.972
09/23/2014  18:45:00     -296.523     -114.183      -19.315      138.560      111.250       58.083    19198.835    12376.506     3373.630        6.814        1.747      317.748       58.588        0.034      346.660       25.064      859.983
09/23/2014  18:46:00     -162.642      -61.642        9.844      158.741      152.089       82.181    25198.717    23131.211     6753.670        4.271        2.754      173.932       79.312        0.208      346.606       24.974      859.999
09/23/2014  18:47:00     -209.184      -25.007        8.925      134.889      130.491       63.743    18194.908    17027.973     4063.165        4.187        1.964      210.674       56.508        0.072      346.613       24.984      860.018
09/23/2014  18:48:00     -270.241      -61.774       -2.244      124.618      100.715       48.862    15529.705    10143.496     2387.533        5.245        1.403      277.212       50.205        0.033      346.598       24.959      860.028
09/23/2014  18:49:00     -453.780      -49.406      -30.548      188.773      176.710       70.404    35635.111    31226.321     4956.684       14.054        3.591      456.462       80.023        0.031      346.612       24.982      860.043
09/23/2014  18:50:00     -373.622     -183.633       -9.799      220.300      203.006       94.501    48531.917    41211.344     8930.361       13.603        4.934      416.310      114.273        0.075      346.622       24.998      860.034
09/23/2014  18:51:00     -261.513     -197.563        3.459      160.202      143.334       92.972    25664.685    20544.656     8643.727        8.113        2.743      327.750      100.276        0.094      346.575       24.918      860.024
09/23/2014  18:52:00     -298.653     -130.625       25.855      240.234      164.906      109.364    57712.140    27193.871    11960.419       10.188        4.843      325.970      118.979        0.133      346.555       24.884      860.008
09/23/2014  18:53:00     -330.955      -78.531      -19.254      142.828      116.158       69.175    20399.956    13492.711     4785.124        7.737        1.934      340.145       65.371        0.037      346.525       24.832      860.038
09/23/2014  18:54:00     -197.831      -90.123        3.308      152.155      141.942       80.763    23151.048    20147.403     6522.656        4.854        2.491      217.392       78.940        0.132      346.523       24.829      860.046
09/23/2014  18:55:00     -287.408     -122.149       -8.678      205.236      185.172       84.168    42121.740    34288.551     7084.332        9.053        4.175      312.288       90.221        0.083      346.526       24.834      860.056
09/23/2014  18:56:00     -105.286      -37.525       15.874      188.824      127.122       82.437    35654.411    16159.923     6795.877        3.567        2.931      111.774       65.496        0.343      346.488       24.770      860.065
09/23/2014  18:57:00     -252.502     -164.275       11.332      192.910      154.689       98.773    37214.273    23928.825     9756.055        8.087        3.545      301.237      103.989        0.119      346.476       24.749      860.072
09/23/2014  18:58:00     -239.063      -68.718       19.739      182.258      158.423       90.290    33218.081    25097.803     8152.211        6.435        3.323      248.743      100.442        0.163      346.443       24.691      860.086
09/23/2014  18:59:00     -348.106     -119.935       -4.371      219.752      187.974      106.788    48290.880    35334.380    11403.738       11.529        4.751      368.187       95.083        0.067      346.479       24.755      860.073
09/23/2014  19:00:00     -305.480      -89.460       18.613      306.685      176.447       91.273    94055.906    31133.702     8330.823       11.757        6.676      318.310      133.507        0.176      346.435       24.679      860.079
09/23/2014  19:01:00     -343.161      -26.618      -16.271      185.185      122.388       66.682    34293.662    14978.914     4446.535        8.622        2.686      344.192       75.588        0.048      346.419       24.648      860.085
09/23/2014  19:02:00     -222.752      -52.957       16.374      216.503      138.085       69.780    46873.758    19067.365     4869.307        6.174        3.541      228.960       97.284        0.181      346.366       24.560      860.072
09/23/2014  19:03:00     -378.566      -78.753       -3.126      180.809      116.822       82.959    32691.873    13647.373     6882.276       10.136        2.661      386.671       95.535        0.061      346.352       24.532      860.098
09/23/2014  19:04:00     -235.686      -59.314        7.487      182.476      131.518       65.975    33297.658    17297.087     4352.635        5.703        2.747      243.035       79.240        0.106      346.318       24.476      860.103
09/23/2014  19:05:00     -265.351     -122.341      -10.909      147.143      146.068       74.235    21651.049    21335.779     5510.859        6.699        2.425      292.196       65.878        0.051      346.305       24.453      860.099
09/23/2014  19:06:00     -258.535      -99.768       -0.165      162.061       95.720       80.628    26263.788     9162.366     6500.898        5.935        2.096      277.118       87.764        0.100      346.263       24.382      860.128
09/23/2014  19:07:00     -385.236      -55.597       -7.930      151.558      132.015       70.642    22969.832    17428.039     4990.235        9.847        2.269      389.227       80.757        0.043      346.252       24.362      860.119
09/23/2014  19:08:00     -218.373      -70.986        6.637      143.005      146.465       70.968    20450.329    21452.045     5036.513        4.985        2.347      229.621       73.881        0.104      346.188       24.252      860.130
09/23/2014  19:09:00     -435.925     -102.352      -20.198      164.175      159.913       77.545    26953.389    25572.321     6013.234       12.972        2.927      447.780       83.491        0.035      346.245       24.351      860.130
09/23/2014  19:10:00     -258.111      -38.826        5.565      219.687      139.789       82.440    48262.299    19540.857     6796.350        7.137        3.730      261.014       77.604        0.088      346.209       24.287      860.137
09/23/2014  19:11:00     -471.626      -36.680      -14.414      187.500      179.712       87.613    35156.217    32296.429     7676.006       14.954        3.756      473.050       83.571        0.031      346.261       24.376      860.144
09/23/2014  19:12:00     -354.065       11.044      -33.117      173.698      116.541       68.960    30170.977    13581.902     4755.503        8.754        2.425      354.238       78.268        0.049      346.210       24.289      860.165
09/23/2014  19:13:00     -311.173       23.121       -8.123      166.838      134.858       73.060    27834.994    18186.812     5337.824        7.439        2.568      312.031       85.176        0.075      346.192       24.259      860.158
09/23/2014  19:14:00     -278.691      -12.878       -7.756      122.023      114.404       54.746    14889.610    13088.340     2997.136        5.443        1.549      278.988       55.499        0.040      346.155       24.195      860.159
09/23/2014  19:15:00     -413.731      -80.289      -18.661      173.374      111.134       69.375    30058.501    12350.863     4812.954       11.259        2.361      421.450       85.036        0.041      346.148       24.184      860.149
09/23/2014  19:16:00     -409.939     -123.760      -12.507      171.513      150.519       72.320    29416.752    22655.827     5230.187       12.040        2.865      428.213       75.785        0.031      346.133       24.157      860.144
09/23/2014  19:17:00     -332.185     -109.695      -45.072      157.812      132.971       76.893    24904.738    17681.226     5912.599        8.645        2.425      349.829       43.245        0.015      346.141       24.171      860.141
09/23/2014  19:18:00     -256.995      -68.179        0.184      216.123      143.676       93.702    46709.203    20642.919     8780.090        7.340        3.807      265.885      111.415        0.176      346.075       24.059      860.165
09/23/2014  19:19:00     -451.973      -73.073       -9.544      180.992      114.365       73.120    32758.110    13079.387     5346.524       13.044        2.559      457.842       86.964        0.036      346.091       24.086      860.178
09/23/2014  19:20:00     -180.012      -59.233       -1.416      141.757      116.641       70.846    20095.157    13605.163     5019.164        3.731        1.936      189.507       66.339        0.123      346.035       23.991      860.183
09/23/2014  19:21:00     -312.474     -131.358       -9.914      120.463      119.787       59.748    14511.442    14348.992     3569.775        7.371        1.622      338.961       45.352        0.018      346.060       24.031      860.157
09/23/2014  19:22:00     -420.644      -40.172      -14.375      203.870      182.448       95.804    41563.010    33287.143     9178.314       13.138        4.201      422.558      103.486        0.060      346.052       24.017      860.178
09/23/2014  19:23:00     -251.865     -100.576       -9.911      170.814      128.986       66.597    29177.272    16637.265     4435.117        6.194        2.512      271.204       87.601        0.104      346.050       24.015      860.205
09/23/2014  19:24:00     -203.791      -73.410       -0.759      192.345      115.696       60.731    36996.490    13385.494     3688.308        5.049        2.704      216.610       84.711        0.153      346.004       23.938      860.202
09/23/2014  19:25:00     -451.438      -48.682      -25.089      148.745      170.738       81.261    22125.117    29151.633     6603.292       13.233        2.894      454.056       75.634        0.028      346.015       23.956      860.185
09/23/2014  19:26:00     -364.258      -68.794      -24.770      158.497      160.421       78.080    25121.245    25734.980     6096.470        9.748        2.848      370.698       74.370        0.040      345.967       23.873      860.179
09/23/2014  19:27:00     -287.648      -72.997       -7.900      184.992      121.756       84.586    34221.950    14824.585     7154.748        7.216        2.810      296.766       91.230        0.095      345.977       23.892      860.180
09/23/2014  19:28:00     -319.263      -28.757      -11.151      150.016      117.237       69.970    22504.839    13744.541     4895.860        7.201        2.057      320.555       76.122        0.056      345.958       23.856      860.172
09/23/2014  19:29:00     -275.162      -37.864       -7.651      142.852      113.149       67.867    20406.809    12802.698     4605.997        5.750        1.891      277.755       74.753        0.072      345.943       23.832      860.179
09/23/2014  19:30:00     -384.057      -74.178      -15.605      150.190      152.853       79.381    22556.976    23363.959     6301.352       10.273        2.611      391.155       71.884        0.034      345.936       23.819      860.156
09/23/2014  19:31:00     -232.318      -39.558        8.760      149.663      131.772       71.278    22398.870    17363.748     5080.541        5.022        2.242      235.662       78.792        0.112      345.882       23.726      860.179
09/23/2014  19:32:00     -307.545      -92.147      -20.104      133.940      118.658       71.727    17939.847    14079.727     5144.704        7.032        1.858      321.053       64.697        0.041      345.899       23.754      860.188
09/23/2014  19:33:00     -235.433      -90.901       -0.606      114.218       97.242       68.088    13045.842     9455.919     4635.936        4.541        1.357      252.372       59.543        0.056      345.864       23.696      860.226
09/23/2014  19:34:00     -358.439      -31.361      -20.233      160.325      111.044       70.705    25704.220    12330.785     4999.139        8.645        2.152      359.808       75.331        0.044      345.840       23.657      860.245
09/23/2014  19:35:00     -439.842      -77.188      -24.406      212.773      130.106       76.007    45272.418    16927.476     5777.118       13.398        3.399      446.563       97.261        0.047      345.908       23.771      860.247
09/23/2014  19:36:00     -393.682      -13.542      -16.902      142.779      124.618       74.714    20385.721    15529.527     5582.167        9.847        2.075      393.915       70.894        0.032      345.890       23.740      860.229
09/23/2014  19:37:00     -225.123      -35.485       -6.276      118.460      101.215       56.253    14032.753    10244.413     3164.344        3.971        1.372      227.903       45.446        0.040      345.860       23.691      860.224
09/23/2014  19:38:00     -269.996      -97.225       -7.675      149.795      143.186       75.532    22438.561    20502.318     5705.072        6.552        2.432      286.968       67.336        0.055      345.844       23.663      860.211
09/23/2014  19:39:00     -387.081      -96.003      -18.306      174.994      136.158       80.189    30622.970    18539.069     6430.272       10.748        2.780      398.809       88.040        0.049      345.840       23.656      860.224
09/23/2014  19:40:00     -392.115      -34.878      -27.332      231.591      111.722       72.209    53634.353    12481.767     5214.094       11.351        3.567      393.663       92.288        0.055      345.821       23.623      860.261
09/23/2014  19:41:00     -454.256      -23.831      -39.250      156.530      103.529       68.169    24501.653    10718.158     4647.059       12.416        1.993      454.881       67.455        0.022      345.863       23.695      860.271
09/23/2014  19:42:00     -197.931      -77.524        9.073      150.154      134.231       64.399    22546.121    18017.862     4147.284        4.498        2.236      212.571       64.300        0.091      345.792       23.573      860.290
09/23/2014  19:43:00     -121.662      -44.828        5.586      110.528       62.941       46.336    12216.475     3961.531     2147.033        1.758        0.916      129.658       53.707        0.172      345.760       23.520      860.293
09/23/2014  19:44:00     -316.159      -39.703       -4.538      184.829      136.881       75.230    34161.607    18736.431     5659.603        8.005        2.928      318.643       90.635        0.081      345.782       23.557      860.273
09/23/2014  19:45:00     -221.310      -63.300        4.803      182.706      134.544       66.755    33381.474    18102.170     4456.211        5.446        2.797      230.185       78.563        0.116      345.766       23.528      860.282
09/23/2014  19:46:00     -313.949      -26.208      -12.066      184.071      147.794       82.106    33882.030    21843.106     6741.382        8.092        3.123      315.041       89.805        0.081      345.781       23.554      860.308
09/23/2014  19:47:00     -287.604     -105.205        5.626      151.279      125.621       78.702    22885.484    15780.596     6193.987        6.933        2.243      306.242       80.926        0.070      345.766       23.528      860.322
09/23/2014  19:48:00     -208.345      -51.075       14.383      145.969      128.999       78.849    21307.086    16640.754     6217.087        4.519        2.208      214.514       84.218        0.154      345.749       23.499      860.325
09/23/2014  19:49:00     -515.822      -55.096      -17.609      141.188      114.628       68.117    19934.119    13139.626     4639.869       15.356        1.886      518.756       65.543        0.016      345.785       23.561      860.349
09/23/2014  19:50:00     -314.939      -78.765      -11.327      249.258      126.335       90.437    62129.648    15960.593     8178.798        9.588        4.313      324.639      119.664        0.136      345.746       23.492      860.357
09/23/2014  19:51:00     -202.811      -18.733        1.120      105.322       88.346       60.798    11092.701     7805.035     3696.383        3.204        1.130      203.674       57.699        0.080      345.744       23.489      860.359
09/23/2014  19:52:00     -323.494      -81.885      -22.187      199.031      113.609       72.752    39613.140    12906.962     5292.888        8.482        2.891      333.696       83.150        0.062      345.727       23.460      860.380
09/23/2014  19:53:00     -334.576     -135.101      -17.181      123.694      113.342       65.077    15300.275    12846.360     4235.055        8.143        1.619      360.823       64.643        0.032      345.755       23.510      860.398
09/23/2014  19:54:00     -246.201      -34.119        1.537      139.543      105.588       66.766    19472.152    11148.751     4457.635        4.842        1.754      248.553       71.525        0.083      345.684       23.388      860.416
09/23/2014  19:55:00     -362.895     -129.565      -11.487      189.714      114.428       84.844    35991.316    13093.790     7198.454       10.244        2.814      385.331       86.397        0.050      345.747       23.496      860.427
09/23/2014  19:56:00     -200.690      -63.559       -3.462      140.162       85.840       64.006    19645.316     7368.563     4096.782        3.771        1.556      210.514       69.355        0.109      345.705       23.424      860.456
09/23/2014  19:57:00     -206.187      -92.041      -12.600      131.118       88.054       57.407    17191.853     7753.576     3295.556        3.969        1.412      225.798       64.822        0.082      345.732       23.472      860.468
09/23/2014  19:58:00     -345.985     -208.298      -33.321      144.896      140.169       76.492    20994.763    19647.433     5850.951       10.534        2.325      403.849       67.601        0.028      345.737       23.479      860.461
09/23/2014  19:59:00     -234.655       39.426      -17.007      135.492       91.601       70.041    18358.142     8390.781     4905.794        4.428        1.583      237.945       69.985        0.087      345.690       23.397      860.488
09/23/2014  20:00:00     -413.094     -193.893      -22.812      162.796      174.019       70.440    26502.487    30282.485     4961.784       13.524        3.087      456.335       61.765        0.018      345.760       23.517      860.493
09/23/2014  20:01:00     -251.815      -12.258       -4.887      129.660      104.195       64.673    16811.777    10856.577     4182.614        4.771        1.593      252.113       69.331        0.076      345.675       23.373      860.514
09/23/2014  20:02:00     -143.451      -37.898        4.504       82.121       71.237       52.014     6743.803     5074.743     2705.468        1.828        0.726      148.373       55.316        0.139      345.692       23.404      860.515
09/23/2014  20:03:00     -253.909      -71.020      -12.063      111.863      135.771       52.387    12513.229    18433.767     2744.415        5.167        1.685      263.654       44.790        0.029      345.671       23.364      860.521
09/23/2014  20:04:00     -285.341      -43.417      -10.273      158.986      136.806       71.690    25276.703    18716.009     5139.418        6.626        2.457      288.626       70.929        0.060      345.649       23.327      860.554
09/23/2014  20:05:00     -313.762      -91.949       -5.572      170.470      162.707       76.452    29059.859    26473.514     5844.939        8.415        3.069      326.958       83.273        0.065      345.669       23.363      860.576
09/23/2014  20:06:00     -379.612      -47.939      -31.994      149.447      138.099       60.400    22334.324    19071.455     3648.141        9.623        2.253      382.627       64.560        0.028      345.694       23.406      860.609
09/23/2014  20:07:00     -248.935      -51.193       -0.292      136.056      128.089       71.695    18511.250    16406.810     5140.181        5.232        2.003      254.145       71.495        0.079      345.648       23.326      860.617
09/23/2014  20:08:00     -257.181      -97.458       -0.776      152.015      111.049       64.626    23108.418    12331.835     4176.477        5.762        1.981      275.028       68.011        0.061      345.618       23.273      860.631
09/23/2014  20:09:00     -304.903      -90.196       -9.671      129.653      102.511       67.447    16810.028    10508.560     4549.119        6.653        1.593      317.964       68.987        0.047      345.634       23.300      860.624
09/23/2014  20:10:00     -386.936     -115.926       -9.839      144.925      118.214       66.513    21003.257    13974.499     4423.944       10.132        1.970      403.929       67.121        0.028      345.677       23.374      860.634
09/23/2014  20:11:00     -374.904      -80.926      -31.564      146.868      114.159       68.603    21570.257    13032.171     4706.343        9.370        1.965      383.539       71.267        0.035      345.648       23.325      860.653
09/23/2014  20:12:00     -203.224      -64.780       -6.539      146.785      140.447       67.541    21545.941    19725.257     4561.803        4.568        2.292      213.299       76.169        0.128      345.592       23.230      860.660
09/23/2014  20:13:00     -366.324     -104.960      -28.808      157.387      102.667       60.115    24770.636    10540.593     3613.807        9.248        1.946      381.064       59.254        0.024      345.630       23.294      860.683
09/23/2014  20:14:00     -177.629     -112.632       10.216      172.713       85.509       77.261    29829.625     7311.711     5969.304        4.372        2.156      210.329       92.184        0.192      345.621       23.279      860.676
09/23/2014  20:15:00     -124.775        0.885       15.556      140.474       65.842       57.326    19732.813     4335.176     3286.268        2.158        1.368      124.778       52.505        0.177      345.559       23.173      860.637
09/23/2014  20:16:00     -261.248      -43.545       -5.915      176.548      115.303       66.357    31169.362    13294.681     4403.264        5.952        2.443      264.852       83.384        0.099      345.579       23.207      860.665
09/23/2014  20:17:00     -234.988      -27.253       -8.041       97.843       83.698       57.368     9573.191     7005.304     3291.125        3.794        0.993      236.563       47.300        0.040      345.557       23.168      860.676
09/23/2014  20:18:00     -389.047     -189.958       -5.706      192.280      146.833       70.844    36971.710    21559.830     5018.856       12.550        3.178      432.945       82.423        0.036      345.611       23.263      860.654
09/23/2014  20:19:00     -335.268     -108.138      -13.471      133.155      129.645       69.247    17730.353    16807.917     4795.190        8.180        1.967      352.277       68.731        0.038      345.615       23.268      860.670
09/23/2014  20:20:00     -280.801      -96.866      -15.070      127.983      128.318       74.143    16379.632    16465.455     5497.162        6.339        1.917      297.039       67.595        0.052      345.604       23.249      860.689
09/23/2014  20:21:00     -195.119      -65.961       -3.738      126.615       89.431       61.381    16031.313     7997.939     3767.653        3.511        1.390      205.967       71.631        0.121      345.581       23.211      860.706
09/23/2014  20:22:00     -273.588     -173.802       -3.929      152.587      104.316       68.848    23282.840    10881.886     4740.029        7.198        1.945      324.126       66.785        0.042      345.633       23.300      860.709
09/23/2014  20:23:00     -244.398      -52.558       19.398      207.420      150.479       92.331    43023.108    22643.985     8525.012        6.852        3.710      249.985      112.649        0.203      345.584       23.215      860.745
09/23/2014  20:24:00     -229.743      -50.561       -0.031      129.048      108.976       58.830    16653.410    11875.745     3460.989        4.366        1.600      235.241       70.885        0.091      345.590       23.225      860.742
09/23/2014  20:25:00     -261.613     -156.870      -10.930      158.826      117.958       75.229    25225.716    13914.157     5659.357        6.898        2.240      305.040       82.292        0.073      345.606       23.252      860.724
09/23/2014  20:26:00     -218.157      -27.427       -9.964      143.602       89.421       52.747    20621.553     7996.161     2782.259        3.992        1.570      219.874       67.937        0.095      345.541       23.142      860.742
09/23/2014  20:27:00     -153.126      -60.623       -4.879       85.097       39.076       33.475     7241.541     1526.908     1120.547        1.852        0.494      164.690       26.661        0.026      345.517       23.103      860.751
09/23/2014  20:28:00     -206.396     -119.034       -5.219      128.539      101.525       54.545    16522.245    10307.319     2975.162        4.330        1.490      238.261       64.242        0.073      345.477       23.032      860.750
09/23/2014  20:29:00     -207.262      -63.646       -5.374      102.513      109.930       42.813    10508.936    12084.540     1832.977        3.573        1.221      216.814       49.115        0.051      345.429       22.950      860.737
09/23/2014  20:30:00     -166.946      -52.704        9.946      142.763       86.943       52.551    20381.344     7559.005     2761.591        3.072        1.535      175.068       68.994        0.155      345.400       22.901      860.734
09/23/2014  20:31:00     -359.741      -57.978       -9.101      168.652      101.391       77.576    28443.353    10280.079     6018.110        8.879        2.237      364.383       86.422        0.056      345.530       23.122      860.739
09/23/2014  20:32:00     -199.629      -88.020        3.395      135.071       79.852       64.145    18244.269     6376.305     4114.528        3.817        1.437      218.172       76.855        0.124      345.498       23.068      860.768
09/23/2014  20:33:00     -173.716     -109.258        7.314      117.147       87.994       61.244    13723.339     7742.874     3750.800        3.369        1.261      205.218       65.657        0.102      345.507       23.082      860.795
09/23/2014  20:34:00     -175.140      -83.064       -7.411      128.510       88.416       51.263    16514.785     7817.448     2627.919        3.229        1.348      193.839       60.690        0.098      345.511       23.088      860.804
09/23/2014  20:35:00     -209.572      -33.010       -2.250      135.998      102.929       46.404    18495.551    10594.352     2153.295        3.812        1.562      212.156       41.090        0.038      345.439       22.966      860.780
09/23/2014  20:36:00     -320.060      -85.775      -21.047      152.100      121.489       48.699    23134.494    14759.470     2371.607        7.525        2.013      331.354       52.487        0.025      345.434       22.958      860.764
09/23/2014  20:37:00     -191.123      -42.814        3.164      137.953      111.964       53.952    19031.072    12536.003     2910.820        3.642        1.724      195.860       47.802        0.060      345.368       22.847      860.749
09/23/2014  20:38:00     -394.662      -30.889      -22.343      140.578      123.431       73.803    19762.166    15235.151     5446.847        9.882        2.022      395.869       71.075        0.032      345.397       22.894      860.738
09/23/2014  20:39:00     -368.310      -99.881      -19.264      162.992      133.393       68.297    26566.249    17793.600     4664.467        9.750        2.451      381.612       75.803        0.039      345.380       22.865      860.710
09/23/2014  20:40:00     -323.932      -59.234      -23.623      132.498      107.098       62.551    17555.825    11469.908     3912.648        7.096        1.647      329.303       66.746        0.041      345.317       22.757      860.702
09/23/2014  20:41:00     -128.061      -97.756       35.237      118.811      111.458       59.244    14115.989    12422.953     3509.887        2.862        1.502      161.108       68.830        0.183      345.277       22.689      860.699
09/23/2014  20:42:00     -259.191      -68.036       -3.362      138.095      112.659       67.252    19070.362    12692.026     4522.821        5.405        1.814      267.972       69.827        0.068      345.299       22.727      860.702
09/23/2014  20:43:00     -189.127      -86.665       -6.716       99.191      117.802       53.709     9838.921    13877.336     2884.699        3.496        1.330      208.038       56.387        0.073      345.251       22.645      860.706
09/23/2014  20:44:00     -255.662      -89.696       -7.897      222.964       93.752       55.027    49712.889     8789.387     3028.017        6.749        3.077      270.940       74.337        0.075      345.267       22.672      860.719
09/23/2014  20:45:00     -279.053      -72.598        0.383      212.911       97.528       67.643    45331.110     9511.636     4575.559        7.127        2.971      288.342       91.994        0.102      345.319       22.762      860.747
09/23/2014  20:46:00     -255.893     -115.735      -13.795      167.624       99.620       66.694    28097.641     9924.220     4448.068        6.076        2.123      280.849       83.453        0.088      345.341       22.798      860.760
09/23/2014  20:47:00     -202.027      -78.511       -5.359      135.160      115.791       59.502    18268.124    13407.598     3540.525        4.111        1.761      216.746       75.224        0.120      345.353       22.820      860.770
09/23/2014  20:48:00     -238.051     -186.007       -2.951      145.052      136.323       69.404    21040.068    18583.884     4816.974        6.785        2.222      302.104       71.983        0.057      345.363       22.836      860.773
09/23/2014  20:49:00     -221.486     -170.684       -3.283      131.837      123.258       65.549    17380.928    15192.643     4296.711        5.753        1.844      279.623       67.284        0.058      345.357       22.827      860.798
09/23/2014  20:50:00     -169.848     -134.481        2.819      174.496       98.873       67.749    30448.856     9775.910     4589.983        4.587        2.241      216.641       78.154        0.130      345.321       22.765      860.814
09/23/2014  20:51:00     -212.404      -78.806       -1.966      134.231       90.026       67.311    18017.867     8104.633     4530.720        4.099        1.533      226.552       70.328        0.096      345.348       22.812      860.819
09/23/2014  20:52:00     -215.757      -70.546       -6.150      123.648       87.361       46.810    15288.816     7631.971     2191.204        3.833        1.256      226.997       37.225        0.027      345.379       22.865      860.812
09/23/2014  20:53:00     -232.745     -100.253        6.838      136.534      123.044       70.574    18641.660    15139.862     4980.687        5.151        1.938      253.418       63.613        0.063      345.350       22.812      860.828
09/23/2014  20:54:00     -194.121      -81.678      -10.191      142.198      102.881       49.351    20220.269    10584.561     2435.521        3.884        1.662      210.604       51.082        0.059      345.334       22.786      860.841
09/23/2014  20:55:00     -219.030     -178.075       -5.797      125.690      100.681       61.543    15797.865    10136.576     3787.490        5.472        1.486      282.285       65.789        0.054      345.387       22.878      860.832
09/23/2014  20:56:00     -141.636      -65.072       -5.161      119.383       88.098       46.795    14252.401     7761.329     2189.816        2.426        1.210      155.869       54.040        0.120      345.317       22.758      860.836
09/23/2014  20:57:00     -229.912     -185.150      -12.087      115.100      104.665       60.532    13247.963    10954.836     3664.177        5.757        1.393      295.194       64.024        0.047      345.389       22.882      860.855
09/23/2014  20:58:00     -177.808     -159.414        2.051      102.901       92.306       48.239    10588.676     8520.397     2327.042        3.923        1.072      238.806       57.965        0.059      345.332       22.784      860.859
09/23/2014  20:59:00     -111.465      -79.216        8.541       86.758       71.303       37.706     7526.958     5084.129     1421.710        1.640        0.702      136.747       39.150        0.082      345.271       22.680      860.886
09/23/2014  21:00:00     -130.302     -102.975       -2.178       98.253       81.033       41.905     9653.705     6566.301     1756.007        2.278        0.899      166.080       40.018        0.058      345.275       22.686      860.906
09/23/2014  21:01:00     -274.910      -10.583      -13.356      114.439      128.405       56.410    13096.304    16487.860     3182.049        5.431        1.638      275.114       57.810        0.044      345.247       22.638      860.930
09/23/2014  21:02:00     -153.892      -19.507       -4.759       76.007       82.286       32.019     5777.028     6771.019     1025.226        1.883        0.679      155.123       24.788        0.026      345.222       22.594      860.943
09/23/2014  21:03:00      -44.083      -80.529        7.313       61.769       98.115       23.301     3815.467     9626.586      542.949        1.123        0.699       91.806       21.195        0.053      345.230       22.611      860.938
09/23/2014  21:04:00      -81.320      -68.936       17.016      123.410       91.154       63.672    15230.051     8309.105     4054.171        1.962        1.380      106.607       69.026        0.419      345.143       22.462      860.950
09/23/2014  21:05:00     -177.427     -105.920        7.848      121.444       98.355       66.571    14748.727     9673.712     4431.681        3.580        1.443      206.639       75.252        0.133      345.110       22.403      860.972
09/23/2014  21:06:00     -181.961     -118.466       -5.755      110.522       93.475       48.226    12215.010     8737.536     2325.764        3.522        1.164      217.126       52.286        0.058      345.156       22.483      860.985
09/23/2014  21:07:00     -281.269      -70.679      -11.891       80.859       71.168       46.833     6538.186     5064.825     2193.352        4.902        0.690      290.013       43.522        0.023      345.159       22.485      860.982
09/23/2014  21:08:00     -153.557      -78.216       -7.034       58.570       69.724       37.484     3430.415     4861.390     1405.018        1.972        0.485      172.329       35.285        0.042      345.118       22.418      860.978
09/23/2014  21:09:00     -132.363      -30.722        8.834       90.853       65.520       45.627     8254.324     4292.830     2081.817        1.658        0.731      135.881       50.798        0.140      345.053       22.309      860.988
09/23/2014  21:10:00     -166.336      -43.531       -4.514       98.034       71.193       41.394     9610.763     5068.411     1713.479        2.299        0.820      171.938       41.038        0.057      345.066       22.329      861.005
09/23/2014  21:11:00     -116.077      -71.007        3.750       60.168       62.643       42.372     3620.194     3924.198     1795.367        1.393        0.467      136.073       34.537        0.064      345.123       22.430      861.005
09/23/2014  21:12:00      -70.909      -36.811       19.588       54.676       53.179       30.462     2989.462     2827.989      927.945        0.675        0.337       79.895       21.308        0.071      345.073       22.344      860.997
09/23/2014  21:13:00      -80.293      -49.491       -0.109       51.914       49.723       26.445     2695.059     2472.372      699.361        0.738        0.293       94.321       18.620        0.039      345.118       22.420      860.976
09/23/2014  21:14:00     -159.545     -121.982       -0.257       76.037       59.381       38.842     5781.640     3526.103     1508.728        2.557        0.541      200.834       41.094        0.042      345.095       22.380      860.978
09/23/2014  21:15:00     -148.069     -112.783       -0.229       78.878       53.523       35.550     6221.744     2864.763     1263.772        2.250        0.518      186.130       25.392        0.019      345.039       22.283      860.989
09/23/2014  21:16:00     -204.243     -131.096       -7.313       90.593       93.077       44.699     8207.158     8663.351     1998.034        3.891        0.943      242.696       45.584        0.035      345.073       22.342      860.988
09/23/2014  21:17:00     -178.591     -122.409        6.306       92.938       69.260       47.589     8637.489     4796.903     2264.688        3.131        0.785      216.515       53.330        0.061      345.052       22.305      860.987
09/23/2014  21:18:00     -238.625     -133.349       -3.877       96.279       98.485       47.538     9269.677     9699.326     2259.898        4.798        1.061      273.357       50.216        0.034      345.079       22.350      861.002
09/23/2014  21:19:00     -115.563      -62.169        5.276       71.741       48.098       32.490     5146.718     2313.455     1055.590        1.288        0.426      131.225       35.812        0.074      345.026       22.261      861.007
09/23/2014  21:20:00     -167.533      -95.873       -7.405       71.394       53.193       34.352     5097.095     2829.453     1180.055        2.321        0.455      193.026       32.802        0.029      345.044       22.291      860.995
09/23/2014  21:21:00     -107.105      -35.257       18.886       72.595       61.703       42.326     5269.991     3807.269     1791.511        1.197        0.543      112.758       36.626        0.106      344.969       22.166      860.998
09/23/2014  21:22:00     -143.122     -108.496       -9.219       80.371       74.308       33.839     6459.511     5521.642     1145.077        2.273        0.656      179.598       34.597        0.037      344.967       22.160      861.017
09/23/2014  21:23:00     -215.364     -156.413      -12.223      100.073       66.885       44.591    10014.509     4473.639     1988.376        4.373        0.824      266.170       33.504        0.016      345.013       22.237      861.002
09/23/2014  21:24:00     -193.554      -85.320       -2.124      118.699       96.698       59.383    14089.458     9350.426     3526.333        3.585        1.348      211.524       62.394        0.087      344.954       22.136      861.006
09/23/2014  21:25:00     -148.358      -47.614        1.622      111.666       67.883       45.604    12469.308     4608.165     2079.765        2.172        0.958      155.811       50.372        0.105      344.965       22.158      861.011
09/23/2014  21:26:00     -183.832      -90.915       -8.700       80.532       57.968       35.468     6485.387     3360.336     1257.974        2.662        0.555      205.085       29.248        0.020      344.960       22.148      861.011
09/23/2014  21:27:00     -192.018      -47.204       -9.655       74.196       48.901       32.454     5505.007     2391.287     1053.249        2.407        0.447      197.735       27.130        0.019      344.887       22.022      861.010
09/23/2014  21:28:00     -132.332      -56.347        1.686       86.041       72.034       43.950     7403.058     5188.874     1931.641        1.760        0.726      143.829       45.280        0.099      344.855       21.969      861.020
09/23/2014  21:29:00     -163.045     -123.952       -9.948       92.610       62.035       44.881     8576.603     3848.371     2014.348        2.824        0.722      204.812       37.451        0.033      344.978       22.178      861.041
09/23/2014  21:30:00     -132.854      -74.094        9.443      104.972       62.056       45.902    11019.205     3850.938     2106.965        2.010        0.849      152.118       55.165        0.132      344.924       22.086      861.071
09/23/2014  21:31:00      -99.679     -106.496       11.806       70.750       82.858       38.258     5005.528     6865.407     1463.673        1.737        0.667      145.868       31.662        0.047      344.999       22.216      861.074
09/23/2014  21:32:00     -187.850     -100.554        1.871       63.217       59.668       37.468     3996.380     3560.289     1403.834        2.718        0.448      213.069       24.019        0.013      344.990       22.199      861.073
09/23/2014  21:33:00      -56.564      -71.943       -6.613       45.379       37.489       19.413     2059.212     1405.392      376.871        0.613        0.192       91.516       19.278        0.044      345.006       22.229      861.078
09/23/2014  21:34:00      -77.175     -107.526       -9.365       70.011       57.358       28.931     4901.598     3289.926      837.001        1.332        0.451      132.355       26.597        0.040      344.955       22.141      861.074
09/23/2014  21:35:00     -179.046     -110.828       -4.583       86.033       47.884       29.010     7401.615     2292.835      841.593        2.745        0.527      210.571       33.564        0.025      344.871       21.996      861.063
09/23/2014  21:36:00      -98.658      -45.785        7.252       79.956       54.465       27.126     6392.918     2966.473      735.843        1.099        0.505      108.764       36.733        0.114      344.785       21.849      861.072
09/23/2014  21:37:00     -149.333      -87.613        6.275       75.654       72.992       38.014     5723.467     5327.903     1445.094        2.125        0.625      173.137       35.288        0.042      344.932       22.100      861.094
09/23/2014  21:38:00     -108.665     -104.546       -7.993       72.813       46.481       32.273     5301.666     2160.450     1041.537        1.565        0.425      150.791       39.082        0.067      345.011       22.238      861.097
09/23/2014  21:39:00     -115.187     -112.974        0.910       64.403       89.654       35.004     4147.796     8037.824     1225.311        1.972        0.671      161.341       37.458        0.054      345.066       22.328      861.084
09/23/2014  21:40:00      -93.107      -33.692        6.529       61.139       68.322       37.973     3738.037     4667.945     1441.942        0.985        0.492       99.016       36.655        0.137      345.027       22.265      861.071
09/23/2014  21:41:00     -231.918      -75.050      -20.356       95.928       70.692       42.655     9202.164     4997.406     1819.478        3.792        0.801      243.759       45.815        0.035      345.070       22.334      861.077
09/23/2014  21:42:00      -23.719     -101.963       17.552       52.519       78.986       35.044     2758.245     6238.730     1228.092        1.074        0.511      104.685       41.080        0.154      344.967       22.161      861.074
09/23/2014  21:43:00      -66.229      -40.474       19.487       63.924       38.102       33.513     4086.227     1451.746     1123.106        0.653        0.333       77.617       34.370        0.196      344.875       22.005      861.083
09/23/2014  21:44:00      -70.944      -67.465        4.075       53.171       46.500       32.524     2827.168     2162.266     1057.838        0.782        0.302       97.901       18.987        0.038      344.925       22.090      861.102
09/23/2014  21:45:00       -7.372      -23.026       -0.292       32.579       34.592       23.114     1061.361     1196.572      534.271        0.169        0.140       24.177       21.420        0.785      344.873       22.001      861.121
09/23/2014  21:46:00       -6.311      -86.260       16.642       50.480       40.357       33.950     2548.200     1628.656     1152.605        0.654        0.266       86.491       24.761        0.082      344.959       22.148      861.134
09/23/2014  21:47:00       27.126       -6.379        3.747       31.869       53.488       23.514     1015.638     2860.949      552.906        0.261        0.221       27.865       20.162        0.524      344.771       21.825      861.128
09/23/2014  21:48:00      -73.498       -7.357       -4.868       35.114       33.363       21.667     1233.018     1113.121      469.451        0.415        0.141       73.865       19.773        0.072      344.813       21.899      861.155
09/23/2014  21:49:00      -40.477       31.417        8.321       50.899       37.479       27.631     2590.725     1404.640      763.462        0.373        0.238       51.239        7.749        0.023      344.825       21.921      861.143
09/23/2014  21:50:00       42.135       24.843       28.059       41.597       37.626       30.084     1730.315     1415.683      905.051        0.361        0.203       48.913       26.589        0.295      344.546       21.440      861.135
09/23/2014  21:51:00       -1.345       12.060       39.417       30.351       44.963       31.218      921.163     2021.714      974.568        0.281        0.196       12.135       28.418        5.484      344.331       21.074      861.141
09/23/2014  21:52:00      -19.671       -5.843        4.857       59.547       30.232       27.201     3545.854      913.959      739.893        0.282        0.260       20.520       28.707        1.957      344.585       21.509      861.163
09/23/2014  21:53:00      -64.881       16.930      -18.265       68.517       41.725       28.243     4694.580     1740.978      797.687        0.603        0.362       67.054       12.727        0.036      344.750       21.790      861.172
09/23/2014  21:54:00     -172.307        0.220      -23.441       59.341       46.239       27.002     3521.349     2138.011      729.081        1.831        0.319      172.307       27.370        0.025      344.864       21.985      861.171
09/23/2014  21:55:00      -98.169      -31.127       -4.051       58.980       49.395       31.849     3478.650     2439.884     1014.378        0.878        0.347      102.985       31.263        0.092      344.767       21.820      861.173
09/23/2014  21:56:00      -25.582      -41.332       -3.206       37.776       38.596       21.503     1427.052     1489.659      462.388        0.288        0.169       48.609       13.036        0.072      344.781       21.844      861.179
09/23/2014  21:57:00      -74.734      -70.251       -0.760       86.826       74.480       48.948     7538.757     5547.337     2395.893        1.300        0.774      102.569       52.551        0.262      344.874       22.002      861.181
09/23/2014  21:58:00      -55.354     -159.947        2.329      107.461       98.067       35.661    11547.790     9617.160     1271.682        2.554        1.122      169.255       49.381        0.085      344.963       22.154      861.173
09/23/2014  21:59:00     -147.153      -21.594        1.660       64.189       81.883       34.468     4120.274     6704.885     1188.062        1.707        0.601      148.729       27.667        0.035      344.784       21.847      861.160
09/23/2014  22:00:00     -131.280      -48.654        5.404       89.106       69.307       35.896     7939.882     4803.488     1288.524        1.683        0.702      140.006       41.091        0.086      344.718       21.734      861.163
09/23/2014  22:01:00      -35.593        5.740       14.295       45.314       29.863       25.749     2053.364      891.792      663.031        0.256        0.180       36.053       21.040        0.341      344.658       21.632      861.135
09/23/2014  22:02:00      -74.239      -34.729        5.126       57.484       56.949       31.081     3304.420     3243.145      966.047        0.713        0.376       81.960       22.973        0.079      344.717       21.733      861.141
09/23/2014  22:03:00     -153.719      -49.134       -4.951       61.311       48.160       31.279     3759.088     2319.372      978.405        1.656        0.353      161.381       31.566        0.038      344.704       21.711      861.166
09/23/2014  22:04:00      -46.866      -20.238       13.892       52.800       42.630       27.306     2787.816     1817.276      745.605        0.407        0.268       51.049       15.976        0.098      344.661       21.638      861.190
09/23/2014  22:05:00      -37.961      -66.257       -2.744       48.037       45.003       34.575     2307.587     2025.230     1195.418        0.568        0.276       76.361       31.829        0.174      344.875       22.004      861.171
09/23/2014  22:06:00      -35.127      -64.656        2.539       38.705       29.858       20.166     1498.057      891.482      406.677        0.411        0.140       73.582       17.774        0.058      344.940       22.115      861.159
09/23/2014  22:07:00      -67.256      -39.300       -0.354       47.660       36.314       23.411     2271.517     1318.674      548.083        0.510        0.207       77.897       24.540        0.099      344.740       21.773      861.166
09/23/2014  22:08:00      -97.591      -10.798       -5.024       36.195       31.112       26.510     1310.099      967.944      702.758        0.632        0.149       98.186       15.601        0.025      344.696       21.698      861.144
09/23/2014  22:09:00     -117.808      -24.266       -1.339       69.615       53.548       32.556     4846.203     2867.419     1059.882        1.162        0.439      120.281       29.812        0.061      344.705       21.712      861.114
09/23/2014  22:10:00     -107.736       -9.966        8.503       59.225       70.378       47.992     3507.635     4953.129     2303.276        1.127        0.538      108.196       38.490        0.127      344.736       21.765      861.120
09/23/2014  22:11:00       19.855      -57.381       22.306       50.975       37.859       37.702     2598.473     1433.320     1421.422        0.482        0.273       60.719       25.922        0.182      344.821       21.912      861.100
09/23/2014  22:12:00     -224.725      -77.690      -13.434       84.703       85.569       41.299     7174.538     7322.033     1705.568        3.646        0.810      237.776       43.750        0.034      344.846       21.949      861.103
09/23/2014  22:13:00      -71.599      -69.215       -5.043       76.846       58.214       29.301     5905.334     3388.897      858.564        1.005        0.508       99.585       33.977        0.116      344.763       21.811      861.093
09/23/2014  22:14:00     -110.520      -64.620        1.472       56.896       52.830       34.262     3237.163     2790.994     1173.878        1.180        0.360      128.025       29.785        0.054      344.758       21.805      861.101
09/23/2014  22:15:00     -108.650      -15.440      -21.065       60.792       39.080       27.318     3695.690     1527.274      746.280        0.923        0.298      109.742       17.114        0.024      344.870       21.996      861.114
09/23/2014  22:16:00      -56.113      -41.854        4.825       30.306       34.610       20.211      918.472     1197.882      408.488        0.372        0.126       70.003       17.450        0.062      344.759       21.805      861.112
09/23/2014  22:17:00      -51.969      -25.415       -5.376       47.040       32.449       20.279     2212.715     1052.941      411.222        0.353        0.184       57.851       21.330        0.136      344.796       21.869      861.108
09/23/2014  22:18:00      -19.417      -43.926       12.671       42.656       48.407       19.875     1819.496     2343.254      395.026        0.351        0.228       48.026       23.659        0.243      344.676       21.663      861.118
09/23/2014  22:19:00      -76.581        1.344        8.466       65.490       47.859       32.653     4288.921     2290.511     1066.243        0.679        0.382       76.592       30.020        0.154      344.650       21.619      861.114
09/23/2014  22:20:00      -83.369      -18.871       -0.347       89.966       65.100       34.434     8093.895     4237.983     1185.667        1.041        0.676       85.478       28.550        0.112      344.704       21.710      861.100
09/23/2014  22:21:00     -190.124      -65.317       -3.265      135.719      100.715       60.127    18419.590    10143.603     3615.268        3.630        1.609      201.031       65.177        0.105      344.662       21.636      861.057
09/23/2014  22:22:00     -225.466      -40.808      -14.808       94.576       68.042       41.298     8944.707     4629.748     1705.534        3.400        0.764      229.129       48.224        0.044      344.631       21.584      861.065
09/23/2014  22:23:00     -111.359        9.711       10.070       90.421       68.990       51.214     8176.004     4759.593     2622.876        1.407        0.778      111.781       51.845        0.215      344.544       21.438      861.064
09/23/2014  22:24:00     -232.522      -95.898      -12.210      103.674       75.623       54.632    10748.215     5718.884     2984.658        4.143        0.973      251.521       38.299        0.023      344.672       21.654      861.083
09/23/2014  22:25:00     -159.086      -51.467       -2.183      105.186       58.636       42.591    11064.148     3438.138     1813.962        2.214        0.816      167.204       20.482        0.015      344.668       21.647      861.108
09/23/2014  22:26:00     -227.018     -109.489      -27.788      104.361       94.131       47.282    10891.208     8860.630     2235.558        4.314        1.099      252.042       48.592        0.037      344.688       21.680      861.101
09/23/2014  22:27:00     -158.460      -58.304       13.074       97.003       83.711       52.556     9409.607     7007.523     2762.116        2.393        0.959      168.846       57.581        0.116      344.614       21.554      861.110
09/23/2014  22:28:00     -218.872     -137.274       -9.937      124.267      101.161       53.043    15442.306    10233.523     2813.529        4.766        1.424      258.358       49.711        0.037      344.689       21.683      861.112
09/23/2014  22:29:00     -296.992      -47.943      -19.389      124.790      108.569       60.137    15572.508    11787.265     3616.465        6.092        1.549      300.836       61.001        0.041      344.723       21.740      861.119
09/23/2014  22:30:00     -201.772      -91.835      -17.494      102.985      130.886       55.929    10605.986    17131.038     3128.079        4.015        1.543      221.688       49.692        0.050      344.705       21.709      861.114
09/23/2014  22:31:00     -215.494      -39.914       -6.759      117.685      102.972       48.144    13849.845    10603.329     2317.877        3.742        1.339      219.159       55.273        0.064      344.662       21.634      861.114
09/23/2014  22:32:00     -235.549      -64.908        9.451      118.291       93.690       57.615    13992.654     8777.831     3319.435        4.293        1.304      244.329       58.973        0.058      344.646       21.610      861.103
09/23/2014  22:33:00     -303.065      -25.013      -20.926      158.759      109.568       63.332    25204.405    12005.175     4010.924        6.706        2.061      304.095       72.422        0.057      344.729       21.751      861.119
09/23/2014  22:34:00     -284.977      -37.706      -15.967      147.175       79.903       62.379    21660.377     6384.453     3891.136        5.741        1.597      287.461       73.735        0.066      344.745       21.778      861.131
09/23/2014  22:35:00     -335.419        7.913      -23.996      130.712       82.254       66.158    17085.503     6765.746     4376.875        7.068        1.411      335.513       63.799        0.036      344.778       21.834      861.150
09/23/2014  22:36:00     -236.362      -50.128      -20.237       89.172       76.920       53.902     7951.574     5916.690     2905.414        3.778        0.839      241.619       51.086        0.045      344.762       21.810      861.158
09/23/2014  22:37:00     -286.527     -111.871      -20.242      147.646       85.960       64.915    21799.379     7389.198     4213.915        6.421        1.670      307.592       71.538        0.054      344.747       21.781      861.142
09/23/2014  22:38:00     -124.734      -18.816       -3.723       96.850       80.017       51.371     9379.866     6402.647     2638.999        1.717        0.921      126.145       52.272        0.172      344.656       21.628      861.140
09/23/2014  22:39:00     -200.289      -50.551      -14.644      106.216       93.023       46.971    11281.861     8653.200     2206.272        3.251        1.107      206.569       44.244        0.046      344.668       21.647      861.128
09/23/2014  22:40:00     -202.882      -84.365       -5.320       99.102       56.227       36.555     9821.297     3161.464     1336.283        3.131        0.716      219.724       37.834        0.030      344.664       21.641      861.127
09/23/2014  22:41:00      -42.003      -39.118        7.258       60.865       50.455       32.445     3704.574     2545.708     1052.681        0.532        0.365       57.398       33.526        0.341      344.525       21.407      861.111
09/23/2014  22:42:00     -105.184      -52.920        2.133       66.583       67.070       29.312     4433.261     4498.333      859.201        1.183        0.490      117.747       29.062        0.061      344.577       21.494      861.099
09/23/2014  22:43:00      -68.065       -7.298        6.486       71.294       68.659       38.048     5082.853     4714.084     1447.648        0.798        0.562       68.455       40.944        0.358      344.486       21.338      861.078
09/23/2014  22:44:00     -101.448      -80.844       11.842       82.601       98.440       47.360     6822.853     9690.378     2242.927        1.786        0.938      129.721       53.234        0.168      344.554       21.454      861.062
09/23/2014  22:45:00     -202.941      -19.121       -6.047       66.387       55.233       35.962     4407.229     3050.646     1293.297        2.517        0.438      203.840       31.168        0.023      344.549       21.444      861.061
09/23/2014  22:46:00     -182.245      -62.453       -4.187      110.867       59.948       41.382    12291.542     3593.769     1712.491        2.736        0.880      192.649       44.921        0.054      344.572       21.485      861.058
09/23/2014  22:47:00     -223.883      -78.012      -19.721       94.737       98.619       59.493     8975.108     9725.745     3539.446        3.942        1.112      237.085       55.867        0.056      344.601       21.531      861.053
09/23/2014  22:48:00     -139.763      -26.074        3.498      132.181       72.633       51.722    17471.863     5275.551     2675.121        2.282        1.271      142.175       59.175        0.173      344.600       21.533      861.065
09/23/2014  22:49:00     -109.132      -22.214       -5.708       50.040       52.726       27.850     2503.954     2780.078      775.648        0.925        0.303      111.369       25.092        0.051      344.605       21.542      861.067
09/23/2014  22:50:00      -92.394      -24.472        3.008       94.346       67.805       39.650     8901.195     4597.527     1572.110        1.211        0.754       95.580       42.625        0.199      344.518       21.392      861.071
09/23/2014  22:51:00     -123.334      -54.008        0.720       80.520       57.965       38.225     6483.422     3359.970     1461.161        1.471        0.565      134.641       38.186        0.080      344.498       21.357      861.091
09/23/2014  22:52:00      -95.918      -32.642       -2.538       52.409       38.157       28.592     2746.696     1455.942      817.524        0.765        0.251      101.320       24.632        0.059      344.529       21.412      861.100
09/23/2014  22:53:00     -177.120      -71.002        2.076      111.538       81.655       43.231    12440.691     6667.521     1868.899        2.869        1.049      190.822       44.295        0.054      344.477       21.320      861.095
09/23/2014  22:54:00     -106.775      -31.109        6.959       60.555       54.026       42.022     3666.879     2918.826     1765.812        1.038        0.418      111.214       37.207        0.112      344.474       21.318      861.090
09/23/2014  22:55:00     -170.137      -28.839        0.353       99.457       83.122       47.031     9891.694     6909.329     2211.946        2.439        0.951      172.564       45.927        0.071      344.500       21.359      861.083
09/23/2014  22:56:00     -155.535      -17.190       -2.839      106.671       94.257       39.486    11378.794     8884.363     1559.170        2.315        1.091      156.482       47.920        0.094      344.505       21.370      861.092
09/23/2014  22:57:00     -162.632      -89.966       -6.824      106.867       58.007       32.087    11420.519     3364.852     1029.557        2.520        0.791      185.858       15.694        0.007      344.499       21.360      861.109
09/23/2014  22:58:00     -231.068      -64.558      -12.025      124.578      102.453       50.006    15519.766    10496.553     2500.645        4.311        1.426      239.917       58.678        0.060      344.495       21.353      861.124
09/23/2014  22:59:00     -196.174      -35.461      -15.125       77.389       92.827       44.337     5989.067     8616.936     1965.808        2.827        0.829      199.353       40.712        0.042      344.480       21.325      861.130
09/23/2014  23:00:00     -199.076       18.214      -13.467       86.007       67.220       38.147     7397.269     4518.513     1455.212        2.676        0.669      199.907       31.029        0.024      344.461       21.295      861.138
09/23/2014  23:01:00     -343.924      -41.469      -26.176      143.157       82.949       57.170    20493.845     6880.454     3268.360        7.566        1.532      346.415       55.924        0.026      344.570       21.480      861.141
09/23/2014  23:02:00     -233.658      -69.247       -8.538      153.691       87.378       61.157    23621.034     7634.924     3740.121        4.722        1.750      243.703       63.143        0.067      344.557       21.457      861.149
09/23/2014  23:03:00     -209.176      -27.521       -5.655       75.023       77.721       46.325     5628.390     6040.602     2145.988        2.918        0.691      210.979       45.675        0.047      344.550       21.445      861.156
09/23/2014  23:04:00     -134.804      -41.858       -6.690       70.145       60.550       33.628     4920.261     3666.265     1130.871        1.484        0.486      141.153       30.136        0.046      344.453       21.281      861.168
09/23/2014  23:05:00     -258.698      -86.166       -7.668      119.911       72.991       48.844    14378.584     5327.630     2385.691        4.825        1.105      272.671       57.703        0.045      344.430       21.240      861.172
09/23/2014  23:06:00     -287.244      -57.337      -13.414      117.759       90.465       50.700    13867.257     8183.993     2570.468        5.530        1.231      292.911       61.861        0.045      344.468       21.306      861.175
09/23/2014  23:07:00     -408.271      -40.597      -37.803      124.509      100.457       60.697    15502.534    10091.671     3684.103        9.952        1.464      410.285       62.674        0.023      344.520       21.394      861.158
09/23/2014  23:08:00     -209.160      -35.530       -0.140      126.346       76.833       56.821    15963.290     5903.257     3228.605        3.505        1.255      212.157       59.342        0.078      344.333       21.074      861.167
09/23/2014  23:09:00     -226.993      -27.291       -8.939       86.676       80.851       47.011     7512.743     6536.819     2210.007        3.430        0.813      228.628       45.965        0.040      344.334       21.077      861.181
09/23/2014  23:10:00     -229.925      -38.470        3.381      100.638       90.739       51.280    10127.976     8233.590     2629.668        3.767        1.050      233.122       46.060        0.039      344.353       21.107      861.185
09/23/2014  23:11:00     -238.450      -66.882       10.224      166.032      104.186       67.244    27566.710    10854.773     4521.757        5.218        2.147      247.652       76.373        0.095      344.377       21.149      861.192
09/23/2014  23:12:00     -286.996      -41.678       -4.075      146.468      106.201       60.847    21452.978    11278.668     3702.336        6.027        1.822      290.007       65.145        0.050      344.445       21.266      861.197
09/23/2014  23:13:00     -217.772      -36.584        7.835      111.964       80.996       49.775    12535.882     6560.281     2477.550        3.520        1.079      220.823       44.755        0.041      344.383       21.160      861.198
09/23/2014  23:14:00     -274.345      -40.804       -3.285      156.547       84.877       58.304    24507.049     7204.087     3399.378        5.602        1.756      277.363       73.338        0.070      344.377       21.150      861.190
09/23/2014  23:15:00     -284.880      -89.611       -6.767      121.703      103.924       56.456    14811.594    10800.143     3187.316        5.901        1.440      298.642       62.290        0.044      344.430       21.240      861.185
09/23/2014  23:16:00     -276.568      -39.602      -20.520       95.807       75.938       51.964     9178.969     5766.542     2700.274        4.806        0.882      279.389       40.409        0.021      344.424       21.230      861.187
09/23/2014  23:17:00     -109.192      -55.397       14.769      106.490       82.877       44.321    11340.124     6868.528     1964.387        1.769        1.009      122.440       55.675        0.207      344.277       20.979      861.188
09/23/2014  23:18:00     -246.617      -89.150        7.568      101.845      107.341       47.277    10372.457    11522.146     2235.072        4.647        1.206      262.236       45.972        0.031      344.386       21.165      861.190
09/23/2014  23:19:00     -182.290      -89.549       -5.000       89.188       92.644       44.780     7954.515     8582.837     2005.257        2.991        0.927      203.098       45.301        0.050      344.384       21.162      861.192
09/23/2014  23:20:00      -79.549      -10.364       13.245       83.644       66.757       48.315     6996.266     4456.440     2334.347        1.020        0.689       80.221       55.462        0.478      344.376       21.151      861.176
09/23/2014  23:21:00     -110.083      -43.310        8.436       81.873       44.353       34.117     6703.212     1967.220     1164.003        1.195        0.492      118.297       38.370        0.105      344.400       21.189      861.169
09/23/2014  23:22:00     -103.974      -46.536        6.799       64.483       68.325       36.722     4158.064     4668.282     1348.530        1.160        0.509      113.913       34.423        0.091      344.370       21.139      861.192
09/23/2014  23:23:00     -167.420      -47.249      -13.898       38.846       57.236       35.111     1509.034     3275.935     1232.792        1.824        0.301      173.960       31.011        0.032      344.520       21.396      861.194
09/23/2014  23:24:00     -223.160      -15.214      -18.364      109.010       69.905       44.114    11883.113     4886.651     1946.033        3.454        0.936      223.678       47.953        0.046      344.422       21.226      861.189
09/23/2014  23:25:00     -167.591      -55.834        6.837      122.020       80.565       54.445    14888.821     6490.742     2964.263        2.779        1.217      176.647       51.349        0.084      344.371       21.140      861.183
09/23/2014  23:26:00     -158.664      -23.817       12.155      134.388      102.369       54.786    18060.172    10479.454     3001.473        2.871        1.577      160.441       70.012        0.190      344.421       21.226      861.167
09/23/2014  23:27:00      -87.128       -3.150       12.225       65.418       55.283       32.759     4279.543     3056.265     1073.143        0.808        0.420       87.185       30.911        0.126      344.300       21.023      861.168
09/23/2014  23:28:00      -50.216       -7.322       -0.827       36.085       33.277       22.860     1302.158     1107.347      522.580        0.275        0.147       50.747       20.932        0.170      344.297       21.016      861.169
09/23/2014  23:29:00     -186.716      -34.660        0.253      143.643       69.032       43.673    20633.202     4765.483     1907.289        3.168        1.365      189.906       57.035        0.090      344.386       21.166      861.161
09/23/2014  23:30:00     -154.919      -33.701      -11.468       95.187       53.216       39.348     9060.497     2831.914     1548.266        1.935        0.672      158.542       44.198        0.078      344.361       21.124      861.148
09/23/2014  23:31:00     -164.804      -93.108      -11.664       83.872       67.596       45.836     7034.542     4569.239     2100.983        2.483        0.685      189.287       40.817        0.046      344.329       21.068      861.136
09/23/2014  23:32:00      -57.804      -23.489       11.262       50.600       47.381       24.762     2560.361     2245.005      613.173        0.472        0.271       62.394       21.926        0.123      344.213       20.871      861.137
09/23/2014  23:33:00     -153.163      -87.330       -9.651      107.580       67.608       49.217    11573.528     4570.786     2422.272        2.487        0.928      176.311       47.453        0.072      344.360       21.122      861.127
09/23/2014  23:34:00     -199.300      -27.346      -18.815      100.857       67.366       41.738    10172.069     4538.153     1742.101        2.863        0.823      201.167       52.502        0.068      344.290       21.002      861.130
09/23/2014  23:35:00     -140.628      -37.154      -14.283       90.023       59.752       54.452     8104.112     3570.277     2964.966        1.800        0.732      145.453       48.425        0.111      344.320       21.054      861.112
09/23/2014  23:36:00      -90.297      -50.795       -1.460       57.544       53.292       31.802     3311.269     2840.083     1011.396        0.895        0.358      103.603       27.796        0.072      344.277       20.980      861.102
09/23/2014  23:37:00     -119.968      -67.853       -0.975       92.415       90.693       46.047     8540.546     8225.153     2120.366        1.894        0.944      137.827       44.461        0.104      344.234       20.908      861.112
09/23/2014  23:38:00     -128.008      -84.673        2.578       85.206       75.512       35.755     7260.053     5702.089     1278.452        1.890        0.712      153.478       32.039        0.044      344.204       20.856      861.125
09/23/2014  23:39:00     -142.406      -86.452       -6.683       98.932       81.841       43.714     9787.636     6697.987     1910.898        2.309        0.920      166.593       42.702        0.066      344.237       20.913      861.138
09/23/2014  23:40:00     -187.710     -123.822       -5.681      101.697      111.092       43.664    10342.181    12341.486     1906.529        3.759        1.230      224.871       51.563        0.053      344.228       20.896      861.138
09/23/2014  23:41:00     -188.787     -159.221       -2.544      129.576      111.394       65.341    16789.853    12408.586     4269.405        4.723        1.673      246.965       64.419        0.068      344.214       20.870      861.135
09/23/2014  23:42:00     -206.398      -93.846        2.955       88.820       70.255       48.265     7889.076     4935.714     2329.467        3.328        0.758      226.732       47.788        0.044      344.227       20.891      861.149
09/23/2014  23:43:00     -190.978     -113.277        2.695      106.690       64.276       45.171    11382.839     4131.413     2040.443        3.343        0.878      222.046       53.301        0.058      344.196       20.842      861.150
09/23/2014  23:44:00     -157.510      -45.144        0.613       93.896       64.847       43.154     8816.531     4205.111     1862.233        2.086        0.744      163.851       47.023        0.082      344.227       20.894      861.139
09/23/2014  23:45:00     -138.949      -51.344      -15.744       80.925       43.806       23.787     6548.894     1919.006      565.799        1.561        0.452      148.131       12.876        0.008      344.162       20.783      861.119
09/23/2014  23:46:00      -39.177      -17.182        4.906       46.601       41.245       30.762     2171.646     1701.143      946.313        0.334        0.241       42.779       19.764        0.213      344.107       20.692      861.134
09/23/2014  23:47:00     -186.123     -100.262       -2.129      142.259       67.209       47.908    20237.734     4517.092     2295.160        3.587        1.352      211.410       61.076        0.083      344.197       20.843      861.158
09/23/2014  23:48:00     -130.644       -5.213       11.515       80.737       76.282       45.148     6518.420     5819.015     2038.334        1.580        0.719      130.748       42.496        0.106      344.208       20.864      861.176
09/23/2014  23:49:00      -97.183      -54.613       -7.971       72.053       69.759       28.600     5191.584     4866.357      817.949        1.168        0.544      111.477       31.105        0.078      344.118       20.709      861.178
09/23/2014  23:50:00     -115.080      -54.371       -1.614       54.955       59.118       30.041     3020.039     3494.920      902.462        1.181        0.371      127.278       20.456        0.026      344.137       20.741      861.157
09/23/2014  23:51:00     -227.194      -39.854      -14.555       75.839       61.528       43.268     5751.575     3785.665     1872.159        3.241        0.570      230.664       39.942        0.030      344.218       20.878      861.128
09/23/2014  23:52:00     -122.277      -89.074       -1.745       69.745       70.425       35.485     4864.391     4959.669     1259.177        1.698        0.554      151.281       29.744        0.039      344.168       20.793      861.119
09/23/2014  23:53:00      -99.336     -113.745        2.605       93.557       59.369       40.690     8752.909     3524.733     1655.637        1.837        0.697      151.015       47.848        0.100      344.150       20.761      861.115
09/23/2014  23:54:00     -153.942      -45.588        1.013       73.716       49.574       33.425     5434.017     2457.575     1117.210        1.739        0.450      160.550       32.485        0.041      344.196       20.841      861.106
09/23/2014  23:55:00      -73.473      -39.283        5.185       48.092       63.915       37.058     2312.881     4085.159     1373.314        0.737        0.389       83.316       35.155        0.178      344.106       20.690      861.097
09/23/2014  23:56:00     -108.554      -74.854       -8.347       55.738       44.877       31.867     3106.780     2013.967     1015.521        1.180        0.307      131.860       27.991        0.045      344.091       20.663      861.105
09/23/2014  23:57:00     -123.766      -40.202       -9.498       70.929       54.373       23.204     5030.925     2956.473      538.443        1.277        0.426      130.131       28.987        0.050      344.379       21.156      861.091
09/23/2014  23:58:00     -105.744      -39.349       -8.463       51.833       60.498       28.918     2686.619     3659.965      836.275        0.999        0.359      112.828       25.730        0.052      344.191       20.835      861.079
09/23/2014  23:59:00     -147.692      -19.915       -1.117       68.793       45.764       33.491     4732.416     2094.384     1121.665        1.508        0.397      149.029       35.974        0.058      344.136       20.740      861.082
